GFSCGP_250_spd_009.txt.gz
Wind_Speed
20 17 15 13 11 9 7 8 9 12 12 12 12 11 13 16 14 15 14 13 13 14 15 16 16 14 15 16 16 19 20 21 22 22 24 26 27 30 31 30 29 30 31 30
27 23 19 16 14 11 9 7 5 5 7 8 10 10 4 10 15 11 11 12 12 13 13 14 14 14 15 17 20 22 23 22 22 24 24 27 29 31 33 34 36 36 35 35
34 28 25 21 18 16 13 10 7 6 3 7 8 7 8 6 7 9 12 12 13 15 17 17 18 20 20 20 21 22 23 24 24 27 28 30 32 35 36 38 38 42 38 39
37 31 27 25 23 22 20 15 13 10 8 7 3 8 4 2 5 4 9 9 10 12 14 17 18 19 20 21 24 25 26 27 28 29 30 31 32 36 39 41 43 48 47 46
44 35 29 28 28 26 26 22 18 16 13 13 10 7 10 9 8 7 8 11 8 16 15 16 18 20 19 21 22 25 28 30 31 33 35 37 36 38 40 43 45 49 50 51
44 41 34 36 33 31 30 29 26 22 20 19 15 15 13 15 17 14 12 12 15 19 19 21 21 23 23 23 25 28 31 34 35 36 38 40 42 44 46 49 51 53 53 55
48 46 44 42 37 34 34 34 32 31 27 24 22 21 15 18 19 20 20 18 18 19 22 25 28 30 32 31 30 32 35 37 40 40 42 44 48 50 50 50 54 56 56 57
48 45 46 46 44 41 36 37 37 38 34 32 30 26 26 23 22 23 25 25 25 23 22 25 31 32 37 32 39 38 40 41 43 44 47 48 50 53 56 56 57 59 60 62
54 52 51 48 48 45 40 39 45 41 39 38 36 34 33 31 26 27 29 29 31 33 30 28 34 37 41 34 45 44 44 46 46 46 51 53 52 54 58 60 60 62 65 65
58 58 55 53 52 47 42 46 44 45 47 45 44 37 35 35 33 39 36 34 34 34 35 34 37 31 28 47 46 49 46 49 49 52 54 57 56 59 62 64 65 65 68 70
65 63 61 59 54 52 48 48 46 48 49 49 51 43 41 40 37 40 45 45 41 37 39 39 36 42 46 49 47 53 49 49 51 55 55 59 57 62 64 66 68 70 71 75
70 70 71 62 58 58 54 50 51 51 51 52 53 49 46 46 44 41 41 45 55 51 42 42 44 44 47 47 53 54 53 51 52 55 60 58 60 64 65 68 69 72 73 77
78 77 74 70 65 61 59 57 55 52 58 54 57 57 52 49 48 49 46 47 50 54 58 48 46 47 51 53 58 57 56 57 55 56 61 62 66 66 68 72 73 75 77 80
83 81 79 73 70 67 65 64 61 58 60 59 61 63 54 54 52 54 49 50 50 54 54 58 55 52 53 57 57 60 61 61 61 62 63 66 70 65 73 78 79 79 80 82
79 78 77 76 77 74 72 67 66 63 60 62 65 67 59 60 59 57 55 54 54 59 61 58 59 57 57 58 60 62 64 65 60 63 67 71 67 69 76 80 82 81 83 84
81 79 76 75 78 80 78 72 67 67 64 66 70 73 63 65 61 59 57 58 57 60 68 65 62 57 57 61 59 63 66 64 51 65 68 70 70 73 79 83 83 82 86 85
83 82 79 77 75 79 77 73 74 72 72 71 73 75 72 66 66 61 60 62 60 63 68 67 64 62 60 61 63 63 63 55 74 73 70 73 69 75 81 84 83 82 87 89
84 87 83 77 75 76 64 74 76 80 80 80 79 78 75 71 69 67 60 63 64 67 72 70 68 65 63 62 64 65 66 66 68 73 73 75 71 79 85 85 85 79 88 88
85 85 84 82 81 70 70 72 80 80 82 83 84 83 81 76 77 73 67 68 68 71 71 72 71 66 67 68 68 69 72 72 70 72 71 68 78 86 86 86 81 78 94 93
86 88 87 82 82 79 71 79 82 85 84 83 86 85 86 80 75 73 72 78 77 72 70 74 74 71 70 71 71 74 75 77 73 66 67 75 88 88 83 78 74 82 95 98
86 88 86 85 84 78 78 84 85 79 81 81 88 87 85 84 80 79 82 81 80 76 73 75 73 73 73 72 72 75 79 78 77 77 76 83 88 79 82 79 77 90 98 88
82 91 91 87 84 81 86 85 86 81 83 85 81 83 86 87 84 82 79 84 82 84 78 78 78 79 76 73 73 76 77 73 77 74 82 78 76 77 78 84 88 87 86 76
94 90 85 88 88 77 61 86 84 79 77 74 78 76 70 78 85 85 82 85 86 89 77 71 69 79 75 71 73 58 62 63 67 82 63 58 62 70 81 84 81 86 89 105
87 85 77 94 91 80 83 75 81 77 77 79 83 88 93 92 90 86 86 88 86 87 85 77 71 72 65 65 64 54 42 60 56 51 52 59 70 83 87 82 90 103 113 114
87 86 91 91 84 79 77 80 85 87 80 51 52 61 73 78 80 83 84 82 79 85 87 81 75 71 65 59 57 52 59 61 58 71 86 98 88 91 93 105 115 119 119 115
86 86 87 83 83 79 76 76 79 83 72 71 70 80 79 81 84 88 88 86 82 77 81 75 78 78 69 68 67 74 81 78 81 81 77 81 90 97 106 111 114 116 109 102

GFSCGP_250_spd_012.txt.gz
Wind_Speed
19 16 13 9 8 9 9 8 4 5 6 9 9 7 10 14 13 13 11 12 12 12 12 14 12 12 13 14 15 16 17 18 19 22 23 25 25 26 29 31 32 33 35 34
28 24 20 15 13 9 10 9 9 4 3 3 4 1 6 4 11 9 7 9 9 9 11 12 14 15 14 15 17 19 21 22 22 24 25 28 30 31 33 35 36 38 40 39
35 32 28 23 20 15 11 9 9 11 6 6 2 4 6 4 4 2 4 5 5 7 10 12 13 15 15 16 17 19 21 22 24 24 26 29 31 32 34 36 38 39 41 43
42 35 34 31 25 22 18 14 12 11 11 11 8 6 5 2 2 3 2 7 7 9 13 15 15 13 14 16 18 22 24 26 27 29 29 29 32 34 37 40 43 45 46 47
48 42 41 36 31 26 25 21 17 15 17 13 10 11 11 7 7 10 11 10 13 15 16 16 19 19 19 17 19 21 24 27 28 30 32 31 35 39 41 43 46 48 51 53
52 48 43 42 36 34 33 27 26 21 20 22 14 14 12 13 13 11 15 15 17 16 17 18 23 21 25 20 26 21 27 30 33 34 35 35 38 40 43 43 47 49 52 54
50 46 45 47 44 41 38 34 33 29 28 25 20 18 20 16 17 14 16 17 21 21 21 21 22 25 25 28 30 30 29 38 37 38 40 38 39 42 44 45 49 52 56 60
55 50 47 49 48 47 46 43 36 36 33 32 26 25 26 22 23 19 23 24 23 25 26 28 31 31 31 30 22 25 32 40 40 41 43 43 41 47 47 46 50 54 55 59
55 51 52 51 51 49 48 43 45 44 38 35 33 32 30 28 27 27 31 31 28 30 33 38 41 42 41 36 28 33 37 40 42 42 46 46 49 52 54 51 54 58 57 60
62 61 61 59 56 52 48 47 47 45 43 41 40 36 34 33 34 33 36 35 31 31 35 37 40 40 42 43 40 38 40 42 44 43 43 46 53 57 57 52 56 61 58 60
69 65 64 65 57 56 53 49 49 50 47 45 46 42 40 38 40 37 37 40 39 34 37 37 41 40 41 43 45 45 47 45 46 47 44 50 56 59 58 56 58 62 60 64
73 72 72 61 61 61 58 55 52 52 49 48 47 47 46 43 42 40 40 41 45 45 38 39 40 43 46 49 51 50 49 48 51 50 47 56 62 64 53 58 60 63 65 67
79 73 76 72 67 65 62 59 56 57 55 50 53 50 51 45 45 44 45 47 48 49 45 43 43 43 46 51 54 52 50 51 52 52 52 55 56 50 57 67 68 68 69 68
84 78 79 73 69 70 70 67 64 63 61 62 60 58 54 49 46 50 48 46 48 45 47 48 48 48 48 50 52 51 51 54 53 54 56 51 53 55 69 72 71 70 71 69
81 77 79 75 75 76 73 73 71 68 66 67 68 65 58 54 52 51 51 50 51 50 51 56 55 52 50 51 53 57 56 55 54 57 56 59 60 65 69 70 70 74 72 69
79 74 74 75 77 77 75 74 72 72 73 71 70 69 65 61 58 58 54 52 54 58 55 54 57 56 54 54 55 57 58 59 57 59 58 58 60 69 70 70 72 74 70 71
78 72 73 70 69 71 72 67 70 72 71 73 71 70 70 66 66 64 60 59 61 60 60 63 63 58 57 57 58 60 59 58 60 58 62 59 67 68 68 69 74 73 71 75
80 76 76 74 75 75 69 67 68 70 68 70 71 73 75 71 72 68 68 65 67 66 67 70 74 68 63 59 60 61 60 57 56 59 64 68 66 69 71 74 71 72 75 79
82 80 80 79 75 72 73 72 73 76 76 75 69 69 69 69 72 69 69 70 70 71 70 72 74 72 69 68 67 65 60 59 60 62 66 64 70 71 73 72 74 75 78 84
89 87 83 84 81 78 74 76 77 76 80 77 75 72 70 70 70 73 73 72 72 73 75 78 79 77 73 71 72 68 66 63 66 67 63 62 69 70 68 71 73 82 85 79
90 90 88 84 82 80 80 81 80 78 80 78 74 77 78 76 78 78 76 75 75 76 78 78 80 81 81 77 73 70 63 63 59 55 59 61 64 62 74 77 79 81 63 37
83 83 84 86 87 85 82 81 82 80 82 82 79 81 78 77 80 79 78 76 73 69 68 73 72 69 73 79 81 75 65 61 62 61 61 60 60 64 66 64 70 49 43 56
78 79 81 82 83 82 82 83 80 80 80 80 80 80 79 78 80 82 79 72 72 72 71 70 72 78 80 78 77 73 67 67 62 58 55 62 53 52 46 60 58 52 53 79
73 76 75 72 74 79 82 82 82 84 83 77 80 76 77 73 69 70 69 72 70 75 75 77 77 74 68 63 64 67 63 53 58 55 56 63 51 50 53 63 65 71 77 95
75 74 71 73 50 52 66 66 65 72 78 69 57 49 51 52 58 68 66 76 79 83 82 84 77 75 67 65 69 64 64 70 65 72 71 71 75 69 70 79 86 86 100 103
73 69 66 68 69 73 74 74 70 65 71 60 63 69 72 74 71 72 74 83 82 81 76 72 80 76 76 76 79 73 68 73 76 83 81 79 74 72 81 90 94 98 105 108

GFSCGP_250_spd_015.txt.gz
Wind_Speed
24 22 15 9 5 4 5 5 6 6 4 3 5 5 11 11 8 7 9 11 9 12 13 14 13 13 13 14 16 16 17 18 20 21 21 22 23 25 28 29 31 31 33 35
32 32 22 17 12 9 7 3 2 5 5 5 3 1 2 1 5 2 4 6 8 10 10 10 10 10 10 12 13 15 16 18 19 22 24 25 24 26 28 30 31 33 35 36
40 41 26 26 22 17 15 11 6 3 7 8 10 7 5 3 5 3 3 6 6 5 6 8 10 11 13 14 15 14 16 18 21 22 24 27 27 29 31 31 34 34 36 39
47 45 34 33 31 26 23 18 13 11 6 11 12 10 10 9 7 8 8 7 7 6 11 11 13 15 14 16 15 17 19 19 22 27 29 29 33 32 32 34 36 36 35 41
46 49 43 42 41 33 30 23 20 17 16 11 13 12 13 10 12 12 12 12 12 12 17 14 14 17 18 19 19 24 30 29 27 31 34 33 33 33 36 35 40 42 41 43
55 51 44 45 47 39 35 27 26 22 22 20 15 18 14 13 17 16 15 15 14 14 19 18 17 17 19 21 24 26 28 27 26 29 31 34 36 36 35 38 40 45 44 45
56 52 45 48 48 42 40 37 33 31 28 32 19 22 19 18 19 20 21 21 19 17 19 23 22 22 25 25 28 31 28 29 32 34 34 35 36 40 40 38 42 44 46 45
61 60 49 49 48 45 50 44 41 39 37 37 23 24 27 25 24 24 26 27 29 29 29 29 28 30 29 27 29 31 31 36 36 38 37 41 45 44 45 41 42 48 47 42
65 61 58 54 56 55 51 47 48 45 40 37 30 30 34 32 31 29 33 33 33 37 37 36 37 36 35 31 32 34 36 39 41 41 41 44 47 48 51 47 45 52 44 46
69 69 67 61 62 56 53 53 47 44 42 38 37 37 38 35 34 34 36 37 36 38 40 42 43 43 40 38 38 39 38 40 43 43 43 45 49 50 52 50 47 50 47 53
74 70 72 70 63 60 58 55 50 49 45 40 40 37 40 39 37 37 37 36 37 38 42 43 45 45 42 42 42 41 40 40 42 44 46 49 52 53 54 53 53 55 57 57
73 74 80 68 66 67 63 59 57 55 50 50 46 41 40 38 40 40 39 38 41 44 44 43 44 43 45 47 47 46 46 45 44 47 51 51 53 54 53 56 58 58 60 62
77 75 79 77 76 68 63 61 60 57 58 52 49 43 44 43 42 41 41 44 46 47 44 44 47 45 51 55 51 48 49 50 48 49 51 52 55 58 59 62 58 59 60 63
84 79 81 76 69 70 69 69 68 64 61 56 52 52 52 50 45 44 46 45 44 47 51 51 51 54 55 54 51 53 55 54 53 51 53 54 55 59 60 56 57 59 59 67
84 80 78 76 77 78 77 78 73 69 64 66 60 60 60 55 50 49 50 51 50 50 55 56 54 55 55 56 58 59 58 56 53 50 51 55 53 52 58 59 59 63 74 76
85 78 77 77 80 84 81 78 77 73 70 70 66 63 62 60 57 56 58 56 55 57 61 62 60 57 58 61 63 61 59 58 58 52 53 38 62 49 56 43 52 76 77 74
86 80 79 74 77 82 88 80 78 76 76 74 69 66 69 64 63 63 62 59 61 62 63 65 63 61 64 67 67 68 64 64 61 55 53 47 17 43 68 67 79 86 91 93
86 81 78 73 78 86 78 77 79 80 80 77 73 68 71 71 66 62 58 57 57 63 66 68 68 70 71 72 72 70 68 67 65 58 56 47 41 58 78 87 88 90 93 87
85 82 81 77 78 79 79 77 78 76 75 74 69 67 66 66 63 56 55 59 62 64 66 68 70 70 71 74 72 68 68 65 64 59 59 51 60 68 81 88 85 85 79 78
87 84 85 82 83 82 78 76 76 73 74 69 62 63 64 67 64 64 65 65 65 70 73 72 73 72 73 72 72 70 69 68 66 59 50 59 57 60 69 77 78 74 76 75
86 87 87 85 86 85 80 75 75 75 70 67 64 68 68 72 73 73 72 70 70 75 73 74 76 75 73 73 69 73 71 68 65 63 60 63 60 58 61 58 53 58 70 78
86 84 84 86 88 87 81 79 79 78 77 72 70 71 73 75 76 77 76 75 73 75 75 75 74 75 75 74 75 72 67 65 68 65 70 51 52 53 51 51 56 58 62 49
79 81 81 83 85 84 85 85 83 82 83 81 80 79 79 80 77 76 76 78 78 78 78 79 79 81 81 79 74 69 68 69 68 68 55 52 45 53 56 53 52 61 29 50
81 77 75 78 82 83 80 80 80 79 80 81 80 81 83 84 83 81 81 80 80 80 78 83 84 82 77 77 76 73 73 72 72 61 50 55 58 62 69 74 74 69 69 79
84 78 77 78 77 77 76 79 81 80 78 78 80 80 81 82 83 85 85 86 86 85 80 83 81 78 77 76 74 77 77 75 76 56 65 69 71 81 86 75 77 86 95 92
84 85 82 74 71 75 77 77 79 79 80 79 81 80 72 69 75 82 68 67 57 75 79 78 74 69 77 79 79 84 81 82 84 85 86 82 89 82 79 83 87 91 82 84

GFSCGP_250_spd_018.txt.gz
Wind_Speed
26 23 21 18 9 3 2 1 0 6 6 2 1 4 7 6 8 10 10 10 11 12 12 12 12 12 12 10 10 11 12 14 16 18 20 22 24 24 24 25 26 28 30 30
33 35 26 19 22 14 8 7 5 5 5 4 1 2 1 6 1 4 6 6 7 7 7 9 9 8 10 11 11 12 13 15 15 19 23 25 26 27 25 26 25 30 31 35
44 44 29 24 24 26 19 14 11 10 10 8 5 3 3 3 4 1 1 1 3 3 1 4 8 10 11 13 15 11 13 20 22 24 26 27 27 27 31 33 30 28 31 34
48 46 38 34 30 30 31 22 16 16 16 9 9 5 4 3 6 3 4 8 7 8 8 10 11 11 14 15 16 15 17 24 21 23 23 27 32 32 31 34 36 34 32 33
49 51 46 40 41 40 42 29 21 18 19 16 15 10 8 7 10 9 11 11 12 12 11 11 11 12 16 16 19 21 26 25 22 23 26 29 32 36 36 38 38 38 37 34
57 58 48 48 47 45 44 35 25 22 22 25 23 19 15 11 14 15 14 14 12 14 14 13 13 14 17 22 25 27 27 27 28 28 29 32 34 38 41 40 41 40 39 37
61 62 55 51 49 47 44 39 34 30 26 34 27 23 21 19 19 20 20 19 17 18 18 18 20 21 24 26 28 31 32 32 32 32 32 34 35 38 41 41 41 42 40 40
66 65 60 53 50 50 48 43 39 37 37 38 30 33 25 25 26 28 28 27 25 26 26 26 27 27 30 30 31 34 35 37 37 36 35 35 36 38 41 42 41 42 40 39
72 68 69 64 61 59 51 46 45 43 43 40 36 36 29 31 32 33 34 34 33 36 35 33 35 34 34 35 35 38 39 41 41 39 39 40 41 42 44 45 47 47 44 44
79 77 75 71 68 64 57 55 52 45 43 41 41 35 39 36 36 35 35 37 37 41 41 41 40 40 38 39 39 38 39 40 41 43 44 43 44 43 48 52 52 50 49 46
84 81 82 82 71 67 65 59 55 51 47 42 42 37 40 42 41 37 36 38 41 43 44 44 45 42 42 43 42 43 44 44 44 48 49 47 48 49 54 58 56 52 45 45
88 84 84 80 77 75 72 66 63 59 52 48 45 40 44 45 45 41 41 39 43 45 46 48 46 45 47 49 48 48 48 47 48 51 48 49 50 52 55 60 59 50 45 48
91 87 83 86 82 73 68 65 65 62 59 52 48 43 48 45 43 41 41 42 45 45 47 48 51 52 51 52 52 53 52 53 53 53 50 50 49 54 55 61 59 46 50 50
96 90 86 84 74 72 69 67 66 66 62 55 49 50 54 52 48 48 46 46 46 46 50 52 54 53 55 55 57 56 57 58 57 58 55 52 53 48 40 57 50 52 53 56
97 92 88 80 82 81 75 75 73 72 66 65 57 57 56 54 53 48 47 47 50 52 54 56 57 57 59 60 61 61 63 64 63 61 59 58 53 45 39 48 54 68 45 60
99 91 87 84 87 85 81 78 77 77 74 68 63 59 60 58 57 52 52 54 57 57 59 62 61 62 64 65 68 68 67 68 64 64 63 58 44 49 45 40 50 59 66 79
100 92 91 85 87 87 89 80 81 79 77 72 65 61 67 62 59 59 62 60 61 60 67 66 65 67 69 69 71 71 66 63 60 59 60 57 51 46 46 52 60 63 67 74
99 92 92 87 92 96 82 83 83 84 82 80 71 69 69 65 65 67 66 67 68 67 70 71 69 72 73 75 72 66 63 62 62 62 61 61 56 52 50 52 60 69 75 83
98 94 91 87 90 89 84 84 85 86 83 78 74 71 70 69 72 72 72 73 74 74 74 71 71 73 71 69 71 69 69 68 68 67 64 61 58 56 52 49 56 63 71 75
95 94 93 89 91 92 83 81 83 85 84 76 72 69 69 68 73 74 74 78 77 75 71 68 68 68 68 69 72 73 71 67 68 66 67 63 63 57 49 53 58 69 67 71
94 95 93 90 91 92 88 84 85 87 82 71 70 69 70 70 72 75 75 78 77 71 66 67 71 70 71 72 74 74 74 72 70 70 69 65 62 58 50 54 55 60 64 66
76 91 92 92 91 92 87 86 85 83 79 74 73 70 69 71 71 70 74 75 71 70 71 72 73 73 75 76 77 77 80 77 76 72 70 66 62 56 47 48 56 57 54 55
88 83 85 93 91 87 86 84 84 83 81 76 74 72 72 72 73 72 73 74 74 73 75 77 78 77 79 80 83 80 78 82 80 76 69 67 62 51 48 59 66 64 62 68
82 78 80 86 89 86 85 84 84 81 81 78 79 76 75 75 77 77 76 78 79 78 79 81 81 81 81 84 83 83 82 80 73 70 71 66 61 62 66 69 67 66 68 77
78 85 79 77 84 85 83 82 81 80 83 82 80 78 77 77 76 78 81 82 82 86 87 84 83 82 83 83 85 83 78 74 71 72 66 63 70 70 74 75 76 74 80 80
79 86 82 75 78 79 81 80 78 76 82 82 81 79 80 80 81 82 84 84 84 87 84 81 81 82 83 77 78 76 77 75 75 74 73 78 78 80 83 87 85 81 80 81

GFSCGP_250_spd_021.txt.gz
Wind_Speed
31 30 26 15 11 6 3 1 1 3 4 9 9 10 8 5 10 11 13 13 12 12 11 11 11 10 10 9 9 9 10 11 11 14 21 20 22 22 22 23 24 26 27 27
36 38 33 23 19 15 11 7 6 4 3 2 5 6 4 5 5 6 9 9 8 6 6 8 8 8 7 8 8 6 10 16 20 18 19 19 19 22 24 25 26 26 27 28
40 48 38 31 27 22 20 18 12 9 8 7 5 6 7 5 7 5 5 4 3 2 1 3 7 5 4 7 8 8 12 17 20 20 21 22 22 26 28 29 30 30 31 30
44 51 40 38 36 31 29 27 20 15 15 11 12 12 10 8 8 6 4 3 1 2 3 6 7 6 7 8 9 13 17 19 19 20 22 24 26 28 30 32 33 33 34 34
51 53 46 42 45 45 40 34 27 23 20 17 17 17 14 14 11 8 6 7 6 7 8 9 9 8 8 11 14 17 20 21 23 25 25 28 29 30 31 33 34 34 36 38
58 60 50 47 49 46 46 38 33 28 25 20 26 21 19 18 14 13 12 12 11 14 12 12 13 13 15 17 19 21 23 26 27 28 30 31 31 31 33 35 36 36 39 41
65 64 59 55 51 48 47 43 36 34 29 32 28 26 26 22 22 20 19 18 17 19 18 18 20 20 21 23 25 26 27 29 31 31 31 31 33 33 35 38 39 40 42 46
73 71 67 61 57 54 52 51 42 38 37 42 35 36 28 25 23 27 30 26 24 25 24 25 25 25 27 28 31 32 32 33 33 33 33 35 37 39 38 38 40 40 40 45
79 75 76 70 67 64 58 52 48 44 40 41 40 42 33 31 33 33 33 31 30 30 31 31 31 31 31 33 34 36 37 37 38 39 39 40 41 41 44 44 46 47 40 47
85 82 81 79 77 69 63 62 57 50 44 42 44 46 42 39 38 38 37 35 33 35 34 33 33 33 33 34 35 36 38 40 41 41 43 43 43 44 48 45 50 44 51 52
91 87 86 86 81 74 70 66 61 55 48 45 46 47 47 43 42 40 41 40 40 40 39 37 35 37 38 39 40 39 39 40 41 42 43 44 45 45 48 49 49 46 51 53
95 94 92 85 83 83 78 74 68 60 55 52 51 51 55 52 45 43 45 42 46 44 41 38 38 41 43 43 43 43 43 42 43 45 46 47 48 47 51 43 50 41 40 50
101 98 95 93 90 86 78 73 68 64 61 55 53 51 56 56 51 47 45 44 49 47 43 43 46 46 46 48 47 47 47 47 48 50 51 52 52 52 51 52 46 41 46 40
104 102 98 93 86 84 84 78 74 70 64 60 53 54 60 58 56 49 49 48 49 52 49 50 50 49 49 50 51 53 53 53 54 55 55 56 54 50 47 52 50 36 40 49
99 101 101 95 92 94 89 86 82 75 66 64 57 59 61 61 59 56 53 51 49 53 54 54 53 52 53 54 57 60 61 59 59 59 58 57 53 49 46 45 49 49 50 53
92 97 102 98 96 97 94 90 87 81 74 69 65 62 62 66 64 59 55 53 52 55 56 57 57 56 57 59 63 67 66 65 64 64 61 56 55 55 55 53 50 47 50 50
87 92 100 99 101 101 102 95 92 84 78 73 69 64 69 67 65 62 61 58 57 57 59 61 62 60 61 63 66 69 70 69 69 67 58 56 58 60 59 57 56 48 52 56
84 87 92 98 104 106 95 92 90 87 82 82 76 73 71 72 69 68 64 62 63 63 65 67 67 65 65 67 69 72 72 73 72 67 61 62 62 62 63 62 60 57 55 63
77 85 87 95 101 101 98 96 92 90 84 82 79 79 76 75 73 71 69 68 70 70 70 69 70 71 71 72 75 74 75 74 73 65 63 64 66 67 68 68 67 68 65 59
71 78 84 87 94 99 96 95 96 93 89 86 83 82 81 77 77 76 74 75 75 75 73 73 73 75 77 77 76 74 72 71 68 67 68 71 72 73 74 73 69 70 65 55
68 74 75 80 86 93 96 96 97 97 87 84 83 84 80 76 80 81 78 80 80 79 78 79 79 77 78 76 72 69 66 68 69 70 71 75 76 75 75 75 68 64 57 56
66 70 71 74 79 85 92 96 97 94 90 87 85 85 79 79 78 78 79 80 79 79 78 80 79 77 74 71 66 63 66 71 72 75 78 78 79 78 74 71 63 63 60 54
62 64 63 50 56 80 89 93 95 94 91 89 89 86 79 77 77 76 74 77 76 76 79 78 76 74 73 69 68 69 70 73 75 79 81 80 79 77 76 70 69 62 59 57
59 64 60 60 66 66 85 89 94 93 91 87 87 82 76 81 77 76 76 75 75 76 76 77 75 74 75 74 75 73 73 78 80 82 81 78 77 74 72 73 68 64 65 69
57 62 56 67 57 48 71 84 87 92 90 86 84 82 82 83 81 79 78 77 77 77 75 76 77 77 75 79 81 77 77 79 81 83 80 78 75 77 76 74 73 72 73 77
55 53 60 53 55 45 47 62 85 89 86 84 83 82 82 82 81 80 80 80 79 77 78 81 82 82 79 78 81 82 81 80 80 77 78 78 75 74 72 70 73 78 86 90

GFSCGP_250_spd_024.txt.gz
Wind_Speed
34 31 29 19 16 12 8 6 5 6 3 7 9 12 15 16 15 13 11 11 12 12 13 12 11 10 9 8 7 8 6 10 11 9 12 14 14 15 17 18 20 21 22 23
38 38 35 28 23 21 16 12 10 9 8 7 10 12 12 11 14 13 11 12 11 9 9 8 7 6 5 4 3 1 4 8 12 12 13 14 16 18 22 22 22 22 23 26
41 47 41 34 31 28 25 22 17 12 12 12 11 10 10 10 12 12 12 10 8 6 7 4 2 3 2 1 0 2 6 11 12 14 17 18 20 21 24 26 25 25 26 26
49 49 46 38 36 35 31 31 25 17 18 15 14 13 11 13 17 14 14 12 9 9 8 6 5 5 5 5 5 8 11 13 14 17 19 22 25 25 25 28 30 29 30 31
54 52 52 45 45 42 44 36 31 26 24 17 18 16 14 15 17 16 17 14 13 12 10 10 8 7 8 9 12 14 16 17 19 20 22 23 25 26 29 32 33 33 34 34
63 61 58 51 52 47 46 38 35 30 30 21 24 23 17 21 15 17 20 18 17 16 14 12 12 12 13 15 18 20 21 23 24 25 25 27 26 30 30 31 33 36 36 36
73 67 66 60 57 56 46 41 36 34 33 27 31 25 28 26 20 22 18 21 21 21 18 17 16 16 19 23 24 26 27 28 28 29 27 27 28 30 31 31 33 39 39 44
79 73 71 66 62 62 58 51 46 42 38 38 40 32 37 29 25 24 28 26 26 25 24 23 23 22 25 29 30 31 30 31 31 29 29 29 30 32 34 36 36 37 40 39
85 80 80 76 71 69 64 56 52 50 47 44 44 44 41 32 31 34 35 31 30 30 30 29 30 29 30 33 34 35 32 32 31 31 30 30 31 33 35 37 39 39 47 39
88 88 85 83 81 76 70 67 63 53 49 43 49 45 45 38 40 41 40 38 35 34 34 33 34 33 34 36 37 38 36 35 34 33 33 33 35 37 40 44 46 45 45 44
92 92 92 92 85 79 76 74 68 61 56 50 52 50 55 43 44 45 44 42 40 40 41 39 39 38 38 40 41 40 39 38 38 37 35 36 40 42 44 46 45 44 52 45
83 97 98 90 88 89 88 82 78 73 59 53 51 52 62 49 46 47 48 45 47 46 45 43 42 41 43 43 44 42 41 40 41 40 37 38 41 45 47 50 50 48 46 45
78 87 99 98 97 97 92 85 80 74 68 61 58 57 60 63 55 52 50 49 48 46 48 46 45 45 46 45 45 45 45 43 43 43 41 43 44 48 50 52 50 45 43 47
77 80 93 98 96 94 93 90 87 83 77 67 58 62 62 67 65 61 56 53 51 50 48 47 48 48 46 46 47 48 49 49 48 48 47 48 48 50 48 49 46 48 47 47
71 75 83 93 100 102 98 97 93 91 81 78 68 64 64 64 73 73 66 55 51 51 53 52 52 51 49 49 50 52 54 53 52 53 54 55 55 52 50 45 43 46 49 52
66 72 76 85 95 104 103 99 97 94 90 85 77 70 69 68 74 73 71 61 58 55 59 57 56 54 54 54 53 54 57 58 57 58 61 62 60 55 51 46 43 46 51 51
61 68 71 74 85 99 107 103 98 95 93 89 80 71 75 75 76 75 73 69 62 60 61 62 60 60 58 58 58 58 61 64 62 63 66 68 65 59 55 48 47 52 55 58
63 68 66 67 80 92 91 99 101 99 96 93 86 84 78 79 80 81 78 72 67 66 66 65 65 65 64 62 62 65 66 67 67 69 71 72 71 67 61 53 52 54 59 64
64 65 67 67 71 78 85 96 103 103 98 94 89 85 82 82 84 81 81 77 73 71 70 69 69 68 68 68 68 69 69 69 70 71 74 75 74 69 63 60 59 61 65 66
69 65 65 63 65 68 80 85 95 103 100 94 92 89 85 87 86 82 87 83 80 76 75 75 73 72 72 73 74 74 73 73 73 73 73 72 69 67 66 66 67 68 72 73
72 69 66 66 63 68 68 80 88 99 97 96 94 92 92 89 86 91 89 88 83 81 79 80 78 77 77 78 79 78 76 75 75 73 71 69 68 68 71 71 70 74 76 78
73 70 68 68 64 64 65 70 81 88 93 96 95 93 92 91 88 89 90 90 87 85 85 84 83 82 81 82 81 80 78 78 74 71 70 69 71 69 71 75 75 76 75 76
75 70 70 66 62 57 61 69 72 80 81 90 96 94 93 93 92 89 87 87 87 87 88 88 87 86 84 83 81 79 77 72 71 71 70 70 75 76 73 75 79 79 77 75
71 68 69 73 62 56 56 61 64 66 70 77 88 93 93 93 92 90 87 84 85 84 86 87 84 83 81 80 78 77 74 71 71 73 72 74 74 78 80 77 71 76 75 76
63 67 64 66 64 52 51 54 56 60 64 70 78 88 92 92 91 88 86 83 84 84 83 82 82 81 80 78 77 76 73 72 74 75 78 76 79 80 80 78 75 78 80 79
62 61 65 62 58 44 42 43 45 49 60 66 70 77 82 87 88 86 85 85 85 83 82 82 82 82 81 79 79 78 76 74 77 79 80 79 80 79 80 76 78 82 80 81

GFSCGP_250_spd_027.txt.gz
Wind_Speed
38 32 31 25 18 14 10 7 5 7 5 4 4 11 14 16 19 19 18 14 14 14 14 14 13 12 12 10 9 7 5 7 7 8 11 12 14 17 19 21 22 22 23 23
36 36 39 31 26 23 18 14 11 9 10 7 7 7 11 14 16 17 18 19 16 15 13 11 11 10 9 7 7 5 1 5 8 9 11 13 16 18 19 19 21 21 23 22
40 46 45 33 31 30 26 24 20 17 14 13 11 12 9 11 12 15 17 17 16 14 12 9 9 9 8 7 6 5 3 6 10 12 14 16 18 19 18 19 18 20 23 26
50 49 47 41 34 36 34 31 28 23 19 18 18 17 15 14 15 15 16 16 15 14 13 11 10 9 9 8 8 6 7 10 12 15 16 19 20 19 20 19 20 20 22 24
58 56 53 49 46 42 43 42 35 31 27 24 19 19 19 17 17 18 19 17 15 15 15 15 15 13 11 10 9 9 11 14 15 17 19 22 20 21 20 21 23 25 25 27
68 64 59 54 57 50 50 49 40 36 35 30 24 23 22 20 20 22 20 21 21 19 20 19 16 14 15 13 13 14 16 17 19 20 21 21 22 21 22 24 26 27 31 34
75 71 67 62 61 60 56 50 46 39 36 34 31 29 27 28 24 25 25 24 24 24 23 19 18 19 19 19 18 19 21 22 23 24 23 23 22 22 24 28 29 31 35 37
79 76 72 69 65 64 64 57 49 48 45 43 41 35 37 33 30 26 25 27 28 27 24 22 24 23 23 24 24 25 26 27 27 28 25 24 24 25 26 29 33 34 37 38
76 81 83 78 73 73 67 64 54 56 54 50 44 45 48 42 33 29 30 34 33 32 29 26 29 28 28 30 30 31 29 29 31 30 27 26 26 27 30 31 34 37 41 43
60 81 87 84 84 78 74 72 70 59 55 50 52 51 48 48 41 37 39 40 38 36 35 33 34 33 32 32 34 35 35 34 35 32 29 29 29 30 31 34 37 40 45 48
61 67 85 94 85 78 77 74 75 69 64 59 58 54 54 52 45 40 47 45 44 42 40 39 39 36 36 37 39 38 39 39 36 35 33 34 35 34 35 38 39 43 47 49
61 67 72 88 93 91 88 84 85 83 70 62 60 57 61 62 52 47 50 50 48 48 46 45 43 42 41 43 43 42 42 40 39 39 38 39 40 39 40 41 42 45 48 51
74 65 69 73 93 95 92 85 84 81 81 71 67 58 67 65 61 52 49 51 53 50 49 48 48 48 45 46 45 44 42 41 41 43 43 43 44 44 44 45 48 51 52 53
81 72 64 63 72 92 100 97 92 90 86 78 71 71 72 67 68 61 58 60 58 56 54 51 49 47 45 45 45 44 43 44 45 48 48 47 48 48 48 48 51 53 55 55
82 79 71 67 71 84 98 100 100 97 90 88 80 80 74 70 71 73 65 63 64 61 59 58 54 51 49 49 49 48 47 49 51 53 52 50 53 53 53 54 56 56 55 54
84 79 76 66 61 77 87 98 102 102 95 93 91 85 79 79 76 73 72 71 70 66 64 64 60 57 55 53 52 52 52 55 56 57 55 56 58 58 59 60 61 59 57 54
85 81 81 71 66 67 84 83 94 101 101 96 94 84 89 83 76 71 79 76 74 71 68 69 65 62 60 59 57 57 57 59 62 60 60 61 62 63 65 65 66 64 60 56
81 82 79 79 77 70 57 74 85 99 105 104 100 97 93 88 80 80 80 83 82 78 73 70 69 67 65 64 61 60 61 64 66 66 66 66 66 67 68 68 71 69 64 61
81 76 75 75 78 63 63 67 80 90 99 104 104 100 97 91 89 86 75 85 87 81 79 79 73 72 72 71 68 65 64 68 69 70 71 70 70 69 70 72 74 70 69 66
82 81 80 79 71 60 56 68 68 76 88 100 109 106 102 100 97 78 83 90 90 89 89 83 76 78 77 77 74 71 70 72 74 74 73 74 73 71 73 75 73 71 69 69
79 78 77 73 72 67 63 58 60 70 73 87 97 104 104 103 91 90 100 90 91 93 93 88 81 83 79 82 77 78 77 77 76 76 77 76 75 74 75 74 72 72 71 72
77 73 72 72 71 67 55 56 62 61 64 75 89 97 104 104 101 102 93 88 95 95 99 92 87 85 83 84 82 82 81 81 81 81 80 79 78 76 74 73 73 71 73 72
79 71 69 72 69 71 58 55 57 61 65 63 76 85 95 102 106 102 95 96 96 98 100 95 90 88 87 87 85 85 85 84 84 84 83 80 77 77 74 74 76 77 76 74
71 70 73 76 69 66 65 64 62 64 65 62 59 65 81 94 100 102 101 98 97 98 97 95 93 91 90 89 88 87 86 86 85 84 82 79 76 76 76 77 78 79 77 77
69 72 75 74 67 65 65 66 61 64 64 60 60 57 63 81 90 96 99 99 98 98 96 94 92 90 90 89 88 86 84 83 82 80 79 77 77 76 77 78 79 80 81 80
56 60 61 55 64 69 66 65 62 60 59 54 52 47 48 62 77 87 90 96 97 96 95 93 91 89 89 89 87 86 84 81 81 81 79 79 78 77 79 81 79 78 77 81

GFSCGP_250_spd_030.txt.gz
Wind_Speed
35 31 29 28 23 15 13 10 7 6 4 3 11 18 6 9 12 14 16 16 17 17 16 16 16 14 13 12 10 7 7 7 7 9 10 11 14 14 13 14 13 12 13 16
40 30 40 35 28 24 21 16 13 10 22 18 7 9 10 13 11 12 12 14 17 19 19 18 15 13 12 10 10 5 3 4 8 9 11 12 14 15 14 15 17 15 14 17
47 43 43 36 31 28 28 24 20 16 16 15 12 10 8 9 11 11 14 16 16 18 18 17 16 15 13 10 9 7 3 5 8 10 12 14 15 15 16 18 19 18 21 22
53 51 47 43 36 33 33 34 29 24 19 20 19 15 15 13 11 11 14 16 15 15 16 16 15 14 12 11 10 8 5 5 8 11 14 16 16 16 17 18 19 22 23 24
59 57 55 49 45 41 39 42 38 32 28 25 22 21 21 18 18 17 17 18 16 15 16 16 15 14 14 12 10 9 8 8 10 13 15 17 19 19 18 18 21 24 26 29
63 61 59 56 54 50 48 45 45 39 35 31 29 26 25 24 23 19 24 22 21 20 20 20 18 16 14 13 11 10 11 13 13 16 18 19 20 20 19 20 23 25 28 30
54 62 63 64 60 57 57 51 47 43 36 33 36 28 28 28 21 22 25 25 27 26 26 23 20 17 18 16 15 14 16 17 18 20 20 21 23 21 20 21 24 27 30 33
36 47 64 70 66 65 63 63 54 51 47 44 41 35 34 33 31 22 31 28 29 30 29 25 22 20 20 20 18 20 21 22 23 23 22 25 24 24 24 24 26 30 33 36
39 40 45 64 71 71 66 67 61 57 55 51 44 45 44 44 39 38 42 32 32 32 31 27 25 25 24 24 24 25 26 26 26 26 26 27 26 26 28 28 29 32 36 39
49 44 44 45 63 68 72 71 73 65 59 51 53 51 46 49 47 44 41 35 39 38 38 32 31 30 31 29 29 30 30 29 30 30 30 31 29 30 32 32 33 35 37 43
60 53 48 45 44 51 74 77 75 76 69 61 58 52 53 54 53 53 46 43 39 45 41 37 37 35 34 34 34 35 34 32 33 33 34 34 33 34 35 36 35 37 40 42
68 65 56 49 48 45 58 72 79 82 76 70 65 57 59 60 62 56 53 48 44 56 51 43 42 40 38 40 39 38 37 36 36 35 37 38 38 38 38 40 40 42 44 46
74 65 64 57 52 47 44 60 71 83 84 81 74 59 66 70 66 64 59 56 52 59 51 48 46 47 48 44 42 41 41 40 39 39 40 42 42 42 43 43 44 47 48 50
81 75 68 62 59 63 58 55 66 76 86 83 81 72 73 75 71 75 65 62 59 57 54 50 54 49 49 47 45 44 43 42 42 43 46 47 47 47 48 49 48 50 51 53
84 77 75 69 67 67 64 60 61 70 76 89 83 84 78 81 76 77 75 66 68 64 60 59 60 57 53 51 51 50 47 47 47 49 51 53 51 51 52 54 54 54 55 56
89 81 82 77 72 71 71 67 47 58 65 74 87 91 87 85 84 81 79 77 70 66 64 61 62 62 63 58 57 55 54 54 50 54 57 55 56 56 57 58 59 58 60 60
92 87 86 79 79 79 74 58 60 58 66 68 81 86 94 95 93 89 86 81 76 71 71 66 63 73 66 64 61 59 59 58 57 59 61 60 60 62 63 62 62 63 65 65
100 92 89 84 87 83 54 68 66 66 61 65 71 82 96 98 99 94 91 86 81 70 74 73 78 72 72 67 65 64 63 63 63 63 66 65 65 66 66 65 65 66 70 71
107 97 92 90 89 75 73 72 72 68 57 59 63 73 83 94 100 100 98 90 81 84 79 83 81 79 74 72 71 69 67 68 66 67 71 68 68 69 70 69 69 71 74 76
114 106 100 97 89 79 69 69 69 68 57 61 63 68 78 84 97 99 94 94 94 92 86 86 88 86 87 71 76 74 74 71 69 72 74 71 71 73 73 73 73 75 79 80
113 110 100 94 82 69 66 66 66 60 54 52 57 61 69 78 83 93 101 103 103 95 91 89 94 88 90 79 76 78 78 75 75 74 77 76 75 75 76 77 76 80 83 82
105 101 88 80 78 72 65 63 61 61 57 53 52 57 64 67 74 81 96 104 99 95 96 92 91 92 101 82 78 81 83 80 79 79 79 80 80 79 79 80 79 81 83 79
94 93 84 76 62 62 59 50 60 60 59 61 57 56 57 61 70 77 80 89 97 100 100 98 95 102 100 88 82 85 88 85 85 84 83 83 83 82 84 83 83 81 80 79
90 86 79 73 64 61 56 59 55 59 58 60 55 53 54 56 58 65 70 80 88 97 101 102 101 97 98 94 88 87 88 88 88 86 87 86 85 86 86 86 84 83 80 78
80 71 65 59 58 56 54 57 58 63 60 56 53 56 49 46 51 52 56 66 80 87 91 100 103 99 97 93 90 88 88 89 89 87 85 84 84 84 84 83 83 81 79 80
72 67 63 59 55 55 55 58 63 63 62 59 58 56 58 55 51 49 53 55 61 73 85 90 97 101 98 96 94 89 85 80 84 86 84 83 83 83 83 84 80 79 80 78

GFSCGP_250_spd_033.txt.gz
Wind_Speed
39 32 32 30 25 18 18 16 11 8 2 4 8 16 2 7 9 10 14 17 17 17 17 18 18 19 18 16 13 10 8 7 7 8 8 9 10 10 12 15 15 15 17 17
39 41 41 35 29 24 22 21 20 12 15 10 13 14 19 8 10 14 13 12 14 17 18 21 21 19 16 15 12 9 4 4 5 6 7 9 12 14 14 16 16 16 17 20
45 44 43 39 35 28 27 29 27 16 17 19 12 12 11 10 11 11 9 14 15 17 20 20 18 17 15 15 13 9 6 2 2 4 7 11 14 15 16 16 14 17 19 23
51 49 46 44 41 37 32 37 34 25 19 22 19 16 15 11 11 12 12 16 15 17 19 19 18 17 16 14 12 9 7 5 4 6 10 14 15 16 17 15 15 18 22 25
47 53 52 47 46 44 44 40 39 34 28 27 22 21 23 19 18 17 16 16 15 15 14 15 15 15 14 12 10 9 7 8 8 9 13 16 17 19 19 18 18 20 24 26
26 41 53 55 52 47 53 44 43 40 33 26 25 25 24 23 24 22 19 16 19 17 16 17 16 15 15 13 11 11 11 11 12 13 16 16 18 19 20 19 20 21 22 25
32 25 36 54 56 54 54 53 46 43 35 29 33 28 28 27 26 24 21 24 24 23 21 21 21 19 17 15 14 13 14 15 15 19 19 19 19 20 21 21 23 26 27 28
33 31 30 37 49 59 60 58 54 49 45 45 42 33 37 33 31 28 25 21 26 27 26 26 25 23 21 18 18 17 17 17 19 22 22 22 23 23 24 24 24 26 30 33
45 35 40 32 36 48 59 58 62 60 55 50 42 41 43 40 34 32 28 26 29 24 22 23 25 27 27 21 22 22 20 21 23 25 24 25 25 24 26 26 25 27 30 34
54 49 43 39 37 38 41 53 65 64 59 54 51 50 44 45 42 40 37 37 30 35 35 31 38 32 32 25 25 26 25 26 27 28 28 28 28 27 27 27 27 30 35 37
61 55 53 47 36 38 41 37 50 68 68 63 59 51 56 54 51 46 48 47 43 43 38 41 40 37 33 30 30 31 29 30 30 30 31 31 32 30 31 31 30 31 38 42
68 66 59 53 51 41 42 40 41 52 63 71 67 55 62 66 58 53 54 52 50 50 39 47 44 40 36 35 34 35 34 34 34 34 35 35 35 34 34 35 35 37 41 46
74 69 66 61 50 44 40 45 42 44 43 59 72 59 68 68 63 61 63 58 55 55 56 50 45 42 47 41 39 39 38 40 40 40 40 40 40 39 40 41 40 42 45 48
81 75 69 65 62 64 56 51 49 48 43 39 59 69 72 74 70 69 67 63 61 64 61 53 49 48 50 48 46 43 41 43 44 42 43 45 45 45 46 47 48 48 51 52
87 78 73 71 71 71 61 57 55 50 48 43 40 55 64 79 76 76 75 69 69 71 69 55 52 52 52 53 50 49 48 47 47 48 50 51 52 52 52 52 53 54 56 58
99 87 85 78 77 77 75 66 59 54 53 49 44 32 48 57 81 84 81 79 77 75 73 62 60 58 57 57 57 57 55 54 51 53 57 57 59 58 57 57 59 60 58 60
108 101 95 85 84 85 83 65 67 63 57 51 46 45 46 49 64 77 84 86 80 80 78 74 66 63 64 59 63 62 61 57 57 60 62 64 64 65 63 61 64 64 61 62
110 107 102 93 93 92 69 72 72 69 62 55 50 50 50 50 53 64 74 85 81 84 84 82 76 68 65 68 63 62 64 65 65 65 66 68 68 70 69 66 67 66 65 66
117 114 108 102 96 81 77 71 76 77 69 64 55 51 53 51 54 58 61 72 80 86 88 86 86 78 75 69 73 72 69 65 66 69 71 74 73 75 72 70 69 69 70 70
124 120 114 109 100 83 73 77 78 80 73 64 59 57 54 56 54 50 60 60 68 78 89 87 88 86 84 80 76 78 74 69 69 73 75 76 75 78 77 74 73 73 72 73
132 128 122 111 103 90 84 81 87 90 69 65 63 57 54 56 51 48 52 59 63 66 77 85 89 91 91 87 86 82 79 74 76 79 79 76 78 80 80 78 76 76 76 76
135 129 120 114 106 97 91 92 98 88 61 67 66 66 56 52 47 52 57 61 61 61 65 73 81 93 95 93 92 89 81 80 83 86 83 79 79 82 82 83 79 80 79 80
118 121 120 112 106 100 98 96 93 82 65 70 67 62 57 52 49 49 51 52 56 61 64 69 73 79 88 93 95 96 90 88 84 91 87 85 84 83 85 84 80 83 84 84
107 112 115 107 104 98 92 91 82 72 74 69 55 54 52 44 48 43 42 48 52 55 60 66 71 73 77 83 90 95 96 93 84 90 89 89 88 89 89 88 87 87 88 87
93 97 97 97 105 102 91 85 82 78 63 49 42 46 45 49 52 43 39 45 47 53 56 59 64 67 72 75 78 81 88 92 91 88 90 91 90 90 90 84 84 85 85 82
83 87 82 91 91 80 79 57 55 61 40 48 53 47 42 45 41 38 39 44 43 41 49 51 57 63 66 69 70 73 73 75 84 83 83 80 72 75 78 76 72 66 69 77

GFSCGP_250_spd_036.txt.gz
Wind_Speed
39 37 37 36 32 22 23 23 17 12 7 9 11 7 6 3 4 5 9 14 19 22 22 23 22 20 22 20 15 16 13 12 9 6 5 7 11 13 11 12 12 15 20 21
44 43 43 39 37 31 26 27 24 17 14 6 7 13 9 6 6 10 13 19 20 18 21 23 24 24 23 20 16 16 11 9 6 3 3 7 10 10 10 9 11 15 18 18
49 49 43 41 40 37 31 32 28 24 18 17 12 12 10 7 9 14 12 11 14 17 20 23 24 24 22 20 16 14 11 6 3 1 4 7 10 11 11 11 11 14 17 19
46 51 50 46 43 43 37 41 32 29 24 21 16 16 12 9 13 15 10 12 14 17 19 19 20 21 20 17 13 10 8 6 3 4 5 9 11 12 13 13 14 16 17 20
24 34 50 51 51 43 54 42 38 33 29 22 14 21 17 13 17 16 15 15 14 15 19 20 17 16 14 12 11 11 9 8 7 6 8 11 12 13 14 15 16 17 18 20
27 22 26 50 53 50 57 44 43 37 32 25 23 20 18 20 19 19 20 18 17 18 18 19 18 16 16 15 13 13 12 12 11 9 10 13 14 15 16 15 15 17 20 22
32 24 24 29 47 58 58 53 49 42 34 31 36 26 28 24 26 24 23 21 19 21 23 24 21 18 17 16 14 13 14 14 15 13 14 15 16 16 18 17 17 19 22 25
36 30 34 33 29 43 59 56 54 50 44 45 44 33 39 33 32 28 25 24 21 26 27 28 24 20 19 18 15 16 18 17 18 17 17 18 18 18 19 20 18 19 24 27
42 39 45 34 33 32 36 52 61 55 52 47 43 41 42 38 34 31 32 30 29 29 34 32 28 25 26 23 19 20 22 21 20 21 21 21 21 20 22 22 21 21 25 29
47 46 49 45 40 31 32 35 51 57 58 54 51 47 45 47 43 41 38 35 35 33 30 32 31 33 27 28 25 26 27 26 25 24 25 26 25 24 26 26 23 24 28 32
54 48 54 49 35 42 40 36 36 47 60 60 55 48 52 54 50 46 45 45 43 38 31 37 34 31 27 29 27 32 31 32 29 29 28 28 29 29 30 30 28 27 30 35
58 57 55 46 49 47 42 39 39 40 44 57 61 54 63 60 57 55 48 47 46 44 40 40 42 43 38 32 33 35 38 36 35 32 32 32 32 33 35 34 33 35 36 38
70 60 56 53 48 40 37 41 44 38 40 42 50 56 67 66 62 61 57 56 53 51 51 49 48 44 42 40 41 35 42 40 36 35 36 36 36 38 38 39 39 39 43 45
79 73 64 55 55 58 52 50 48 45 39 39 40 43 58 71 69 67 66 65 61 59 59 56 54 51 46 45 45 43 45 44 42 40 41 42 41 42 43 44 45 45 48 51
83 78 76 66 64 63 57 53 49 43 40 37 39 43 46 58 68 73 72 71 67 65 60 60 56 53 53 52 49 51 55 49 46 48 46 48 47 47 48 49 50 48 52 55
89 81 82 75 73 70 68 61 52 47 44 41 41 44 45 48 49 56 71 76 73 71 66 66 64 60 59 59 58 57 55 53 54 52 54 53 53 53 54 54 55 54 56 58
100 89 87 81 77 79 86 56 59 54 52 51 50 52 56 53 54 51 52 65 74 78 73 76 71 66 66 62 64 60 58 61 59 58 58 60 59 59 60 59 59 59 61 62
110 104 99 89 90 97 61 71 68 69 63 59 59 61 58 58 59 57 53 49 55 70 76 81 76 74 72 69 65 66 66 65 64 62 62 63 63 65 66 65 64 64 65 64
117 116 108 103 104 93 82 77 77 77 70 70 62 62 63 60 58 57 55 47 45 47 55 69 75 80 80 78 72 73 70 68 72 72 70 68 68 69 71 71 69 68 69 68
125 124 121 113 111 104 84 83 82 88 82 74 64 59 65 63 60 58 55 49 44 43 45 48 58 70 80 84 80 80 76 77 74 74 74 75 75 75 75 75 75 74 72 73
132 132 131 123 114 103 98 90 88 94 82 77 69 64 63 62 58 58 57 55 53 47 47 51 56 61 68 74 83 82 82 82 78 81 79 78 79 79 80 80 80 80 78 77
136 134 131 125 118 112 106 98 96 92 84 77 72 67 64 63 60 57 54 56 55 55 55 53 53 56 63 64 66 73 81 83 89 86 85 83 83 83 84 85 83 86 84 80
139 137 130 129 125 119 108 103 102 99 91 80 74 69 61 58 57 56 58 57 61 61 61 57 55 57 57 60 64 68 67 75 82 88 90 90 85 83 84 88 87 87 84 83
121 126 126 128 127 125 114 109 103 98 92 86 79 68 63 59 59 61 61 56 63 64 61 55 54 55 58 59 59 58 62 66 68 73 81 87 86 84 86 87 85 86 83 74
101 111 115 115 121 123 116 105 106 99 91 84 72 61 63 64 66 60 63 59 59 62 58 52 48 50 53 56 56 54 54 54 57 61 65 72 77 75 71 68 69 76 74 63
89 96 105 103 111 116 107 90 89 85 89 90 76 77 69 71 65 61 53 56 56 55 52 50 52 52 50 50 54 52 48 46 48 45 47 53 54 45 38 44 54 59 53 60

GFSCGP_250_spd_039.txt.gz
Wind_Speed
46 41 42 39 35 28 22 22 22 18 11 8 9 6 9 12 11 6 8 9 12 15 26 29 28 27 27 22 18 15 14 10 8 7 8 10 10 11 10 11 14 15 16 19
52 49 46 41 39 34 30 25 26 21 19 7 9 14 7 5 4 3 6 8 15 21 25 25 23 24 27 23 18 16 14 10 6 6 8 9 9 10 11 11 11 11 14 17
51 52 50 45 44 41 36 33 29 26 20 17 9 9 8 4 5 8 11 14 17 22 23 26 26 25 26 22 20 15 11 8 4 3 6 7 7 8 10 11 10 12 14 18
32 44 53 50 47 47 43 45 34 29 26 25 16 13 16 10 9 14 15 14 13 14 19 21 22 19 23 20 16 12 10 7 5 1 3 6 6 7 9 9 10 11 14 16
27 23 34 52 55 49 55 41 39 33 28 26 21 20 15 14 16 18 19 15 14 15 17 18 20 17 17 20 19 16 13 13 10 6 2 3 6 8 10 10 9 11 12 15
28 28 22 32 52 56 58 46 43 38 32 22 27 25 25 24 17 21 20 20 18 16 20 22 23 22 20 20 18 17 16 15 14 10 8 7 7 8 11 13 13 16 18 19
39 28 27 24 27 43 59 54 48 41 36 36 38 31 29 27 26 23 21 19 20 21 22 22 23 23 23 21 20 19 17 16 16 16 13 11 11 10 11 13 16 18 20 21
37 34 33 34 31 36 37 55 50 48 42 47 40 34 39 34 27 26 24 23 21 23 23 26 24 23 23 21 23 22 19 17 18 18 17 15 15 14 14 15 17 20 22 22
45 40 42 38 37 31 29 25 50 53 48 45 40 41 38 34 32 31 29 27 29 27 26 27 28 28 26 25 23 22 20 19 18 19 21 19 19 19 17 18 20 21 23 24
49 47 46 44 40 31 26 30 28 37 53 50 46 46 47 41 39 37 34 32 34 34 31 31 33 31 31 27 26 28 25 25 22 21 23 25 24 24 22 21 23 26 26 26
55 48 50 46 34 37 37 33 28 27 35 52 50 49 53 50 47 44 40 40 40 39 37 35 35 35 37 32 33 34 30 28 29 24 25 30 30 29 28 25 27 28 29 30
62 55 53 49 47 48 43 38 34 22 20 28 45 55 60 57 53 49 45 45 46 42 38 36 38 35 35 37 36 31 30 32 31 30 26 30 35 34 33 33 31 31 33 34
68 63 58 56 53 46 36 36 32 32 33 22 27 37 54 61 59 55 53 55 54 49 46 44 43 38 39 38 38 37 41 36 34 34 33 31 37 38 36 37 37 37 37 39
75 71 66 60 60 58 51 49 46 42 34 28 26 33 44 48 56 60 60 58 57 57 54 50 51 48 46 45 46 44 43 44 40 39 39 37 37 42 42 42 43 44 42 44
79 73 73 69 63 63 58 52 49 39 34 36 37 40 43 44 41 45 61 62 60 59 58 57 56 56 56 54 53 53 52 52 51 49 45 46 41 46 48 47 48 49 47 48
89 83 78 72 72 72 69 62 51 44 42 37 37 37 41 50 43 38 41 49 57 65 64 65 64 62 62 60 61 60 59 56 54 52 52 51 48 51 55 53 53 53 54 52
97 92 88 80 83 83 79 51 60 58 53 47 41 42 48 48 47 43 41 39 41 43 54 67 71 69 69 66 68 68 65 63 60 56 58 57 57 60 61 59 59 57 58 57
99 98 94 88 92 91 64 74 67 65 62 57 53 50 47 43 44 44 41 42 43 43 40 44 54 65 75 74 73 75 74 69 67 65 64 63 63 68 67 64 64 64 63 63
103 104 98 97 97 85 81 79 80 75 67 65 59 58 51 49 46 41 42 44 45 46 46 44 47 47 50 60 75 81 80 78 75 74 71 71 70 68 70 69 70 69 68 69
114 110 107 101 99 91 88 88 85 82 76 66 62 59 56 54 48 47 52 48 46 49 49 46 49 47 52 54 57 64 77 83 79 80 80 80 78 75 75 73 74 75 75 76
122 119 114 107 100 90 91 94 89 92 72 75 69 64 63 56 52 54 54 54 51 49 53 54 50 49 53 54 57 58 64 68 75 83 87 84 85 81 82 79 78 79 79 82
126 127 119 111 105 96 95 96 96 90 82 78 72 70 67 63 62 58 57 56 56 56 56 58 55 56 56 56 55 54 55 59 65 72 78 84 86 87 88 85 83 86 85 87
133 133 124 119 110 101 99 99 94 92 87 83 78 74 71 70 69 65 61 62 60 61 57 57 58 59 60 59 57 57 55 61 62 61 63 65 72 76 82 82 78 79 81 77
136 134 126 127 116 111 108 105 99 88 85 85 83 80 78 75 71 69 67 65 62 66 63 61 61 61 61 64 60 59 58 57 56 52 54 55 53 59 62 63 62 57 55 54
104 119 131 134 121 114 110 108 102 94 88 86 82 81 81 78 77 77 75 72 70 67 64 60 62 62 65 62 59 56 58 58 53 47 45 43 41 39 38 36 33 30 22 30
80 90 106 115 121 117 114 108 101 92 90 90 87 82 85 80 79 79 77 70 58 57 64 65 63 61 66 64 60 59 60 56 47 39 37 25 14 20 28 28 32 35 45 49

GFSCGP_250_spd_042.txt.gz
Wind_Speed
50 49 49 48 42 35 28 24 24 22 20 17 9 8 9 13 10 13 17 18 17 10 13 20 26 23 23 24 21 19 15 13 12 9 8 10 11 12 12 11 12 15 18 19
53 54 52 49 44 40 35 30 29 25 21 17 10 11 9 10 7 6 9 14 12 11 14 26 24 21 23 20 20 20 16 13 10 9 8 7 8 10 10 9 10 13 17 18
45 51 55 51 48 47 43 40 34 28 23 19 15 10 14 6 6 5 7 12 13 13 20 25 23 22 22 17 17 15 13 12 10 8 6 6 7 9 9 10 11 12 13 14
35 41 50 55 53 52 49 46 38 30 27 22 17 16 17 10 5 5 10 13 16 19 19 20 21 20 23 17 16 13 12 12 10 8 5 5 5 7 8 9 10 10 10 11
33 28 31 45 58 54 56 46 41 36 29 22 19 20 16 20 13 10 11 15 16 19 22 21 21 20 22 20 19 19 15 13 9 7 4 1 3 4 6 8 9 10 11 12
31 28 24 34 42 56 57 50 44 40 34 26 29 28 25 25 18 16 16 15 17 20 22 22 21 23 26 26 24 22 19 16 13 10 7 4 5 7 8 9 12 14 14 15
42 36 32 32 29 38 52 56 50 43 36 37 42 30 32 24 25 19 21 19 16 19 23 23 23 25 27 26 25 22 18 15 14 13 12 9 9 10 11 12 12 16 17 16
45 37 34 35 32 37 35 46 50 52 45 48 36 37 37 30 26 26 23 24 20 20 22 25 26 27 26 23 21 20 18 16 16 17 16 14 12 13 15 15 15 17 17 18
51 45 44 40 40 37 36 24 44 51 48 45 41 46 37 33 29 29 30 25 28 27 26 26 28 29 27 23 22 20 20 19 17 19 21 20 17 16 18 19 20 21 23 22
53 49 47 46 42 35 31 31 24 31 48 52 49 48 46 41 37 36 31 31 33 30 27 28 28 29 29 26 23 23 23 22 20 20 22 23 24 18 18 22 23 24 27 30
55 54 53 50 39 41 36 30 25 27 28 41 53 52 55 48 46 43 40 38 36 34 31 28 27 28 30 27 26 28 29 28 26 26 28 26 27 26 21 20 26 27 29 31
62 57 57 54 50 49 43 38 31 21 25 29 37 51 56 52 48 45 43 41 39 39 37 33 32 30 30 33 33 35 32 35 33 30 34 33 31 30 29 25 25 28 32 36
69 65 62 62 58 51 46 43 38 36 31 22 17 24 35 50 53 49 46 43 42 42 39 38 35 35 35 36 34 34 34 40 39 34 32 32 33 33 31 31 30 30 32 38
78 73 69 67 66 58 52 47 41 38 31 33 25 29 28 29 41 56 52 48 48 47 46 43 41 41 41 39 38 38 38 37 36 37 44 44 38 37 38 39 40 39 36 39
81 79 74 71 70 62 56 49 46 36 34 37 37 36 37 35 30 35 51 53 50 50 50 48 46 49 48 47 47 47 45 43 43 45 47 48 45 45 47 47 46 45 45 44
88 84 79 75 74 70 63 55 50 46 42 39 40 37 41 43 30 23 28 33 41 49 49 52 53 53 53 54 56 56 55 53 52 51 53 53 53 51 50 50 50 49 52 51
95 90 87 81 79 76 68 61 58 54 49 44 41 45 45 45 37 30 30 30 29 30 36 42 51 57 60 61 62 62 62 62 59 59 58 59 60 60 58 57 56 57 58 57
100 97 94 90 85 79 70 71 69 63 58 51 47 47 48 45 44 38 34 31 31 31 31 32 32 35 39 44 53 62 68 70 68 67 66 67 68 66 65 63 63 63 64 61
105 105 99 95 90 80 77 75 75 69 62 60 55 53 51 48 46 36 38 36 37 38 38 36 37 38 40 43 46 49 52 56 69 76 78 75 76 74 69 69 72 70 67 66
111 108 108 99 93 87 80 81 78 72 67 66 61 58 56 55 45 44 44 41 39 39 38 38 38 38 41 45 47 49 52 55 56 58 60 68 75 78 77 77 78 77 76 75
110 109 103 103 98 91 87 86 82 80 68 68 64 62 59 54 53 54 55 51 49 48 46 45 43 43 43 43 48 49 48 50 55 56 59 61 60 59 62 69 72 75 77 76
107 108 102 100 98 92 92 91 88 76 77 78 71 67 63 61 59 57 58 57 56 55 51 48 48 49 48 50 49 51 53 55 55 57 57 59 61 60 62 60 57 57 58 59
108 102 101 102 89 91 92 93 89 81 81 81 76 74 69 67 64 64 65 61 59 60 58 56 56 55 54 55 50 52 55 58 59 60 61 63 65 62 58 61 59 55 55 51
110 109 105 103 96 92 93 94 90 86 86 84 82 80 77 76 73 75 71 69 67 64 61 61 63 63 61 55 52 51 52 55 58 59 61 65 66 59 57 55 57 49 42 37
117 116 113 108 103 99 95 95 93 91 88 85 84 85 85 82 82 81 77 74 70 68 68 65 68 68 67 62 59 58 55 57 59 61 66 67 64 54 53 54 53 43 32 20
104 115 120 113 111 105 99 95 93 91 89 84 80 82 82 83 86 85 84 82 78 75 75 73 76 74 71 68 64 64 61 63 63 64 66 66 65 58 57 49 46 35 31 29

GFSCGP_250_spd_045.txt.gz
Wind_Speed
42 44 49 51 49 38 36 30 29 26 22 17 12 11 10 3 6 8 15 16 13 16 12 17 17 23 23 23 21 21 20 19 17 15 15 15 13 11 12 15 16 15 17 18
42 41 47 49 50 41 41 36 35 29 23 20 13 11 10 6 3 6 10 17 17 17 16 16 19 24 22 23 19 19 17 17 16 14 14 12 11 11 11 12 13 14 15 15
40 39 42 45 51 49 46 43 39 32 28 22 15 13 11 14 6 5 7 14 17 16 19 21 24 21 22 22 19 18 16 16 13 11 11 11 10 9 9 8 10 9 10 11
42 41 41 40 44 52 52 50 43 35 32 26 18 15 13 12 10 7 7 13 16 18 21 26 29 24 25 21 18 16 16 15 14 11 10 8 6 6 6 7 9 9 9 10
43 37 36 37 39 43 54 51 44 37 34 27 26 23 20 17 15 8 7 12 17 21 26 26 22 20 23 19 21 19 19 16 13 10 7 6 4 2 0 4 7 10 10 11
41 39 28 33 33 39 47 53 49 41 37 30 37 32 27 24 21 14 15 15 18 20 22 28 27 25 27 24 21 20 17 13 12 12 9 7 6 3 2 4 5 8 11 12
43 39 37 38 34 33 40 49 52 46 41 45 46 34 35 25 25 19 18 19 18 18 21 25 26 25 23 25 24 22 20 15 14 15 15 12 9 8 7 7 8 10 11 12
52 49 44 40 38 38 35 38 44 52 51 49 40 39 39 30 25 24 20 21 21 21 24 26 26 29 26 25 26 24 22 19 19 19 18 16 14 12 13 11 9 10 13 15
57 49 47 43 44 39 33 25 43 49 54 46 42 51 39 33 30 26 26 23 26 24 25 28 27 28 28 26 26 24 24 23 22 20 19 17 16 15 16 17 14 13 14 17
60 57 55 54 48 39 35 35 30 29 46 54 52 53 49 41 36 33 28 29 28 27 26 27 29 29 29 29 27 26 24 24 22 20 18 17 18 17 18 20 20 18 16 17
67 62 59 58 47 42 38 32 28 29 31 42 55 58 54 46 42 38 35 32 31 28 28 25 25 27 28 27 29 28 27 26 24 23 22 21 20 19 21 23 23 25 25 23
72 68 63 61 57 53 48 41 35 32 32 37 45 57 58 49 46 42 39 36 33 32 30 28 29 29 29 32 34 35 31 31 29 27 26 25 26 23 27 25 26 26 27 29
78 73 69 67 62 57 49 45 38 39 38 31 30 33 42 53 50 47 45 43 39 36 35 33 30 32 33 34 34 34 34 35 34 34 34 32 32 33 25 25 28 30 30 31
83 79 74 70 67 61 54 48 45 42 41 35 28 32 30 32 55 54 51 50 48 45 43 39 38 38 38 39 39 39 38 38 36 35 35 36 34 32 35 38 34 33 37 39
89 84 79 74 72 66 58 54 49 45 45 37 39 34 34 32 41 55 55 55 53 50 49 49 47 44 42 43 43 42 41 39 37 35 36 39 37 37 39 44 42 43 43 44
93 89 83 76 74 73 64 59 54 49 47 44 43 39 40 38 29 37 40 47 54 56 54 52 52 51 51 50 49 49 47 46 44 44 44 45 46 45 45 47 49 49 49 50
98 93 88 81 78 75 69 59 58 54 53 49 44 47 50 47 36 34 36 36 39 48 55 58 57 56 54 52 52 51 51 51 51 52 52 53 54 53 52 53 55 58 58 57
98 98 95 88 84 80 69 66 63 58 57 51 48 48 51 52 44 34 34 32 29 30 31 33 37 43 48 50 49 52 56 57 57 57 57 58 58 58 59 59 61 63 62 63
102 100 99 95 88 80 77 73 68 65 62 56 52 49 50 52 49 37 35 36 39 38 37 37 35 33 34 38 38 36 40 46 48 49 52 54 54 55 56 59 64 67 68 70
104 102 100 97 91 85 79 80 76 71 66 63 60 55 52 53 48 47 48 45 43 43 41 40 38 33 35 40 38 37 36 36 40 43 45 46 48 50 50 54 56 57 57 57
101 100 99 99 95 89 83 83 77 75 70 70 66 63 58 54 52 56 54 50 46 43 42 43 42 41 41 38 38 39 36 35 38 39 40 40 43 46 47 48 47 46 46 47
100 96 96 99 97 92 88 86 81 78 76 74 74 70 67 61 60 60 60 57 52 49 47 44 43 43 42 40 41 40 38 41 40 42 42 44 46 47 49 50 49 50 44 37
96 96 97 94 92 95 96 92 86 85 83 80 76 74 73 70 68 66 66 63 61 57 56 53 51 50 51 49 46 43 44 44 46 47 47 49 50 51 49 52 52 52 47 38
95 95 92 94 92 96 99 97 95 90 87 84 80 77 75 73 73 71 69 66 65 64 60 58 56 54 54 55 54 52 51 52 53 53 52 52 54 55 56 56 56 55 52 47
101 96 94 90 93 96 99 103 98 95 93 89 87 83 79 77 76 74 72 71 69 69 66 65 61 59 60 60 58 58 57 56 55 57 59 58 58 60 60 59 61 61 55 54
104 107 100 93 96 93 100 98 99 95 93 93 92 87 82 81 79 77 76 75 74 72 70 70 68 65 65 67 68 66 64 62 60 60 61 64 65 63 61 62 63 63 58 60

GFSCGP_250_spd_048.txt.gz
Wind_Speed
41 39 39 37 42 40 35 34 36 30 26 19 18 16 12 15 8 3 7 13 14 16 13 17 18 17 24 26 24 24 22 20 20 19 18 18 17 17 16 15 16 17 18 18
47 42 41 39 41 38 38 40 40 36 29 23 20 19 13 13 10 7 8 13 15 13 17 16 21 23 25 26 23 22 21 19 18 17 17 16 16 16 16 14 14 13 14 14
46 41 44 42 42 39 41 46 45 40 32 28 22 21 17 14 14 12 12 14 18 20 20 19 24 26 28 26 23 22 21 19 17 16 15 15 14 14 14 12 12 10 10 10
47 43 45 42 38 37 42 52 49 41 37 33 26 23 23 17 17 18 14 10 15 20 21 25 31 29 26 26 23 23 20 19 17 13 12 11 12 12 12 10 10 10 9 7
52 47 44 41 37 33 38 45 48 46 40 35 32 30 28 23 16 16 11 11 16 21 23 32 36 30 28 29 26 24 22 20 17 15 12 9 7 6 7 8 8 8 8 7
52 49 41 45 39 37 32 37 42 46 44 36 41 39 30 28 18 15 12 13 17 23 27 34 32 28 30 27 27 26 23 20 18 15 12 8 6 4 3 3 3 4 6 8
55 52 48 45 42 40 31 34 39 45 43 42 48 36 38 28 24 21 14 11 16 19 28 32 34 33 33 30 27 26 24 21 17 15 12 10 9 6 4 3 2 1 2 4
60 56 53 48 47 45 37 33 32 42 54 55 42 38 42 33 27 26 21 18 18 22 23 28 30 29 32 29 25 24 24 22 16 18 16 16 14 14 12 11 7 6 5 4
64 58 57 51 53 48 41 26 35 40 48 50 46 51 42 37 31 30 28 27 26 25 28 29 29 32 31 32 30 27 24 24 22 18 18 18 18 18 17 16 14 13 12 11
65 65 61 61 60 48 36 39 26 26 35 45 52 55 50 42 38 34 31 30 32 29 27 29 33 33 33 32 30 31 31 28 24 24 21 20 21 21 20 19 17 17 17 17
71 70 66 66 58 51 45 39 33 28 29 38 53 58 56 47 43 38 36 36 33 35 33 31 33 35 34 32 32 32 31 29 29 26 24 22 21 21 21 20 19 20 22 21
79 76 72 66 65 60 53 49 43 35 35 37 48 59 59 50 46 42 42 39 38 36 34 32 29 27 32 34 36 37 36 35 32 29 27 25 24 23 23 24 23 25 25 25
79 78 79 74 72 66 54 49 41 37 38 33 32 41 46 53 49 46 46 44 42 40 36 36 33 33 33 34 35 34 35 34 30 30 30 29 29 28 27 28 30 31 26 26
84 86 82 76 74 71 64 56 47 42 41 35 32 35 38 50 56 53 50 49 47 45 42 39 39 39 38 38 37 36 34 33 34 35 35 35 35 33 31 34 33 29 30 34
90 87 88 86 80 73 67 59 54 47 50 43 39 39 40 41 56 59 57 55 53 50 49 46 44 41 40 39 41 40 38 38 38 37 37 40 38 36 34 34 36 37 42 41
95 91 88 88 82 80 74 66 59 55 55 53 47 42 43 38 42 55 61 61 58 55 53 52 49 47 45 44 43 42 42 43 43 42 42 40 39 38 37 38 39 41 43 45
97 94 90 89 89 85 79 69 64 61 60 59 54 52 50 46 43 48 53 61 62 59 55 53 52 52 51 51 48 48 47 44 45 47 46 44 45 46 45 44 46 49 49 50
100 97 96 94 90 87 74 76 72 66 67 65 63 59 54 53 46 41 44 50 58 62 61 57 55 54 54 53 54 54 53 52 52 51 50 50 51 50 49 49 51 53 54 56
102 102 100 97 90 87 84 80 75 72 68 67 64 60 57 57 53 42 40 41 46 52 56 60 60 58 56 56 57 56 56 55 54 54 54 54 53 52 51 52 52 53 52 51
97 103 103 100 95 90 91 86 80 74 73 74 67 64 63 65 60 54 50 45 44 46 48 51 55 61 62 64 62 62 62 61 56 47 51 50 40 38 42 42 39 38 40 40
92 97 101 102 98 94 93 87 84 81 82 77 72 67 65 65 63 59 53 49 46 43 43 42 42 43 46 48 48 47 42 39 41 39 34 33 32 33 35 36 38 39 37 36
88 91 97 101 101 98 95 89 88 84 79 78 74 69 66 65 62 62 60 54 48 45 42 40 40 40 36 35 35 36 35 39 34 35 35 36 37 36 36 37 37 36 35 39
84 87 90 96 96 99 100 97 89 85 80 81 76 74 71 69 68 63 63 58 52 51 49 48 47 45 42 40 40 40 42 39 39 39 41 40 40 40 40 39 39 40 42 46
86 82 84 90 93 95 96 97 95 90 86 86 81 77 78 75 72 69 66 64 59 55 52 51 51 50 48 47 46 43 45 47 47 47 47 45 46 46 46 45 44 46 47 49
94 84 82 84 93 98 98 100 101 97 90 85 84 80 80 79 77 74 71 69 66 61 60 58 56 55 54 54 54 53 53 54 55 54 53 52 52 52 51 50 50 50 50 51
96 97 87 83 92 99 101 104 100 95 94 91 87 85 84 84 81 79 77 74 72 70 66 64 64 63 61 61 62 62 62 61 61 60 60 60 59 59 59 59 58 58 58 58

GFSCGP_250_spd_051.txt.gz
Wind_Speed
47 45 44 45 41 36 33 28 29 30 26 23 24 21 19 18 15 13 11 16 19 18 17 20 18 15 19 25 25 22 20 19 19 18 18 17 16 17 17 19 18 18 19 20
43 48 46 43 43 38 36 33 30 34 33 30 26 25 22 19 17 14 9 11 14 18 19 19 19 18 25 26 25 23 21 20 18 16 15 14 14 16 17 16 15 14 15 16
51 49 45 46 47 43 43 38 36 40 39 35 28 29 25 20 19 16 14 11 17 17 20 19 22 24 28 28 27 24 21 21 20 18 17 17 15 13 13 12 12 11 11 12
55 46 49 50 49 45 43 45 38 42 42 39 33 31 27 24 22 19 16 13 12 23 22 23 19 32 31 30 27 26 23 21 20 19 17 15 14 11 11 10 9 8 7 8
58 52 53 50 50 45 46 40 39 41 42 44 35 33 33 27 24 20 16 16 15 19 23 25 21 35 32 31 28 27 24 22 20 19 17 15 13 11 11 10 8 7 6 6
61 58 50 55 47 48 44 39 38 40 41 38 39 41 36 33 25 20 18 19 17 21 22 26 23 39 36 33 30 30 29 25 22 19 17 15 13 10 8 8 6 5 5 5
62 60 58 54 48 49 44 42 39 38 38 32 47 44 44 39 29 25 22 18 17 21 24 26 31 42 41 37 33 32 28 25 22 19 16 13 12 10 7 5 4 2 1 2
67 65 56 52 49 50 46 42 36 37 40 50 57 46 46 44 36 29 26 20 17 21 25 28 36 42 40 38 32 30 27 25 22 18 17 15 13 11 9 8 7 6 5 5
68 64 65 59 58 55 50 37 43 37 40 50 50 53 52 41 37 35 31 24 21 23 26 32 39 38 38 39 36 33 30 27 26 23 21 17 16 15 14 15 13 10 10 10
75 72 68 64 58 52 42 47 34 33 34 39 49 53 49 46 42 38 34 31 28 25 28 33 37 36 39 41 38 35 32 32 29 28 24 19 18 19 18 19 18 17 15 14
82 77 73 70 55 54 51 44 38 32 31 38 48 55 57 50 45 40 39 34 34 31 31 33 36 36 34 37 38 36 35 34 34 32 28 25 22 21 20 19 19 18 19 17
86 79 76 62 65 64 57 53 45 38 33 35 45 58 56 55 49 45 41 37 36 36 35 34 32 31 35 36 38 39 38 37 35 32 31 29 27 26 23 22 22 23 21 22
89 79 74 75 73 67 58 53 48 46 45 43 41 49 57 57 54 50 46 46 43 40 39 37 34 32 35 39 39 39 40 38 37 35 32 31 30 26 24 24 25 26 25 27
87 83 78 76 67 70 65 58 55 51 47 41 40 41 43 55 59 55 53 50 49 46 44 42 40 39 40 42 41 39 38 36 34 34 34 34 31 27 26 28 29 29 30 30
96 89 84 85 87 81 72 64 60 54 51 44 46 45 44 49 60 60 55 54 53 53 50 46 45 46 43 39 40 38 37 37 36 36 36 37 34 33 33 32 33 33 34 32
97 93 92 91 87 76 70 65 63 61 57 54 52 47 49 44 55 62 63 60 61 58 55 50 48 46 46 46 45 42 40 39 36 37 39 38 38 37 35 34 35 36 36 35
93 99 95 88 84 79 76 71 69 67 63 60 57 54 53 47 47 54 63 66 65 61 58 57 54 51 47 46 45 45 42 40 38 40 39 38 38 37 38 39 40 40 40 41
100 100 94 90 88 83 79 83 81 75 71 65 65 61 57 53 51 51 55 63 66 64 61 59 58 56 52 51 48 46 43 43 41 43 44 43 42 43 42 41 44 45 45 46
100 101 100 95 91 85 88 86 88 83 77 74 72 67 64 60 56 46 44 50 61 66 65 63 61 57 56 54 53 49 48 48 47 47 47 46 46 46 46 47 48 49 49 45
97 102 102 101 96 91 93 97 91 85 80 78 75 72 69 64 60 53 51 47 44 48 59 62 61 59 58 58 57 55 54 52 51 50 50 47 48 50 52 51 50 47 39 34
97 99 102 104 101 96 99 98 94 93 92 80 76 73 70 66 65 58 47 47 45 42 42 45 56 63 62 62 58 58 56 55 56 54 53 52 53 55 51 45 40 37 34 34
95 94 99 105 103 103 101 95 100 98 91 84 77 75 72 68 67 66 62 51 49 46 41 38 39 44 50 55 59 60 57 59 57 57 55 54 52 47 40 36 36 36 37 37
94 89 92 100 102 104 104 96 98 96 91 84 79 79 76 70 70 69 67 63 56 52 48 45 43 43 42 43 43 44 46 41 39 40 41 41 40 40 39 39 39 38 37 36
96 91 88 88 89 94 95 88 89 93 92 90 85 82 79 74 71 71 70 67 62 56 54 51 50 48 47 45 45 45 42 41 41 43 45 44 44 44 44 43 42 42 43 44
96 92 86 83 88 94 94 89 88 89 91 93 88 88 86 82 78 75 72 70 67 63 59 53 51 53 51 50 49 49 47 46 46 46 45 45 45 46 48 47 49 50 49 49
96 95 91 87 87 88 92 94 96 93 95 97 96 91 89 85 82 78 77 74 70 68 64 60 57 55 55 54 55 55 54 52 50 50 49 49 49 50 52 53 55 56 53 54

GFSCGP_250_spd_054.txt.gz
Wind_Speed
52 48 45 43 41 38 37 33 27 27 24 25 23 18 18 30 20 30 24 17 14 11 17 20 21 14 17 21 22 20 16 17 19 19 17 16 17 19 21 22 22 21 22 21
52 49 49 46 44 40 39 37 33 31 28 28 29 27 24 27 31 24 21 21 15 16 19 21 24 16 17 22 21 21 19 19 19 18 16 15 15 16 16 18 18 17 17 17
52 55 47 45 47 46 43 40 40 38 36 35 34 32 37 30 30 25 22 20 15 21 20 18 23 18 21 26 25 23 20 19 18 17 14 12 14 15 13 12 13 14 13 14
56 56 49 46 47 47 45 46 44 43 38 34 36 34 33 33 31 26 24 21 13 20 26 25 21 23 27 30 27 25 22 20 18 17 16 14 13 12 10 9 9 10 10 9
56 59 53 51 57 51 51 48 45 44 42 41 36 38 37 36 34 30 25 22 19 15 24 26 22 21 26 32 31 28 24 22 19 18 16 15 14 12 10 9 8 8 9 8
67 65 55 58 54 52 53 45 46 44 43 40 40 38 44 40 39 32 27 25 23 17 24 29 25 21 33 36 33 31 28 25 22 20 18 17 15 14 13 11 9 9 9 7
68 63 61 63 58 53 52 47 45 44 40 37 40 40 47 46 43 35 30 27 22 18 22 30 31 25 34 42 37 34 31 28 24 21 20 17 15 13 11 9 8 7 6 5
73 69 64 62 57 58 55 51 47 48 45 45 46 38 49 51 47 40 32 29 23 21 24 31 32 24 39 42 39 36 32 28 24 22 20 18 16 14 11 9 8 5 4 4
77 68 73 67 64 61 58 47 57 48 42 43 42 43 57 55 49 40 35 30 26 23 24 34 31 32 45 46 42 39 34 29 27 25 24 21 19 16 14 14 11 9 9 10
79 82 75 71 69 64 57 57 55 44 44 45 43 43 48 54 48 45 37 34 30 26 23 29 32 38 46 47 42 39 37 35 31 30 29 25 22 20 19 17 15 14 14 12
91 86 81 81 68 62 58 53 46 50 46 45 41 45 48 52 52 46 40 39 35 31 25 28 33 41 47 46 43 40 39 37 37 36 31 29 26 24 21 19 18 17 16 15
92 90 89 78 66 67 64 59 55 48 47 44 40 46 42 45 54 49 43 42 40 37 30 29 32 41 43 43 45 43 41 42 40 36 35 33 28 24 22 20 19 19 17 17
97 90 82 82 76 69 62 60 57 55 55 49 44 42 44 49 57 54 49 47 46 42 37 33 33 38 42 44 46 43 42 42 39 37 36 33 29 27 24 22 22 21 20 20
86 91 90 81 67 67 66 66 63 59 53 50 48 49 47 49 55 58 52 52 50 47 43 40 37 40 43 45 44 46 45 42 40 39 38 36 32 29 27 26 23 23 25 25
89 93 93 86 81 80 75 72 68 61 55 51 54 52 45 45 51 61 57 52 53 51 46 42 44 43 44 44 43 44 44 43 41 39 37 35 34 33 32 30 30 29 27 28
92 90 89 85 90 91 83 79 72 68 63 59 57 57 51 48 45 58 64 60 57 54 52 50 47 47 45 45 45 43 43 42 39 40 40 38 37 36 35 34 32 32 31 29
94 94 86 85 90 89 84 76 71 70 70 65 60 59 59 50 46 52 63 64 62 60 57 53 52 48 49 48 46 44 43 43 42 41 41 38 37 37 35 34 34 33 31 33
95 92 90 94 96 96 82 78 77 75 72 69 70 68 61 57 49 48 53 64 68 63 60 58 56 54 51 51 50 48 45 44 43 41 38 37 37 36 35 34 34 35 36 39
93 92 95 102 97 90 83 82 84 79 75 76 74 75 69 59 51 49 48 57 67 69 64 61 58 55 54 51 48 47 46 46 44 42 42 42 41 38 36 37 38 39 41 41
93 95 98 102 99 92 91 94 94 88 89 85 79 77 70 61 56 55 52 47 48 60 63 59 57 55 53 51 48 48 48 47 46 47 46 43 42 41 42 43 43 45 44 44
100 97 98 103 98 102 101 101 99 97 97 88 84 78 74 69 65 59 43 37 37 42 53 62 63 59 58 56 57 54 54 52 55 50 47 46 45 47 48 48 47 46 46 46
106 103 103 103 105 109 103 106 103 100 97 90 83 77 75 68 63 54 49 44 42 43 41 43 56 62 62 62 58 55 56 58 56 51 51 50 51 52 51 50 49 49 48 49
113 106 106 108 107 115 107 108 106 102 97 87 80 75 77 69 61 59 62 58 46 45 45 42 42 48 57 61 63 61 59 57 54 53 53 53 53 50 45 42 42 45 46 42
117 112 110 105 105 111 108 105 98 92 89 85 79 77 75 74 70 71 66 65 61 51 51 47 42 40 41 44 46 50 52 52 50 48 46 43 41 42 42 44 45 46 46 43
111 105 102 97 96 98 95 87 82 81 84 82 79 80 80 77 74 71 67 68 68 62 52 53 51 48 45 43 42 42 44 44 45 45 45 45 46 46 46 44 45 45 44 46
112 111 108 99 89 82 79 74 69 76 82 83 86 86 87 84 80 76 73 70 70 69 65 56 57 55 53 49 49 49 48 47 48 48 48 48 48 49 49 47 46 45 46 48

GFSCGP_250_spd_057.txt.gz
Wind_Speed
54 50 49 47 44 41 36 34 32 32 31 29 23 21 22 22 29 28 18 18 21 18 12 9 14 12 11 14 15 18 18 21 22 22 23 24 24 24 25 22 22 21 20 19
55 53 55 51 47 44 39 37 37 36 34 33 27 28 25 22 16 24 20 12 13 23 9 10 16 15 10 13 17 18 21 23 23 22 21 21 22 21 20 19 18 17 16 15
60 65 57 54 50 46 42 41 42 41 41 39 35 31 28 28 28 23 31 14 19 20 11 14 16 19 12 17 20 21 22 25 25 22 20 20 19 19 17 16 15 14 14 12
67 68 61 59 52 49 45 49 48 46 44 43 41 33 31 33 26 31 27 22 22 17 14 17 20 25 17 18 25 25 26 25 24 22 18 18 17 16 14 14 13 12 12 11
66 71 66 60 56 53 55 51 50 48 44 47 41 36 35 32 35 36 31 23 22 20 17 17 22 27 19 22 29 29 28 27 26 23 20 18 18 16 15 14 13 11 11 9
74 76 71 62 60 55 62 51 49 46 45 44 41 41 40 39 41 40 35 28 27 26 23 20 25 26 21 27 34 33 31 29 27 25 23 22 19 17 15 14 13 12 11 9
78 74 68 64 62 60 58 50 48 44 40 38 48 44 49 46 47 42 39 35 31 27 25 23 28 29 25 29 36 36 34 32 29 28 26 24 22 19 16 14 12 11 9 8
80 78 72 69 61 62 62 61 53 50 51 52 56 48 50 51 48 41 41 40 36 31 26 25 29 35 31 30 35 37 36 33 30 27 26 26 24 20 18 15 13 10 8 7
88 80 84 82 75 72 68 54 59 58 58 56 49 48 55 52 45 42 38 37 35 33 27 24 27 36 36 31 37 38 38 36 31 29 28 27 24 22 20 17 13 12 10 7
88 91 87 83 83 75 67 69 64 59 51 50 50 52 53 47 41 40 38 40 39 34 30 25 28 34 39 36 34 41 40 38 33 32 32 29 25 24 22 18 15 13 12 11
97 89 85 90 78 69 70 66 62 63 58 57 55 54 51 47 44 39 39 42 42 38 33 28 29 33 39 37 41 45 43 41 39 38 33 30 29 28 23 20 18 16 14 15
100 89 95 83 72 71 73 68 67 61 59 59 58 52 47 43 42 40 39 44 46 44 37 33 30 34 37 39 47 50 46 45 43 39 36 35 33 28 23 20 17 15 14 13
91 96 94 87 87 81 69 64 61 62 65 61 57 56 51 46 43 43 43 47 50 49 43 37 32 33 36 41 50 51 49 48 44 42 40 38 32 27 24 22 19 18 16 15
91 88 90 89 81 77 71 68 65 65 60 61 57 58 52 48 47 44 46 52 55 53 47 41 36 34 37 42 52 52 51 48 47 44 41 37 33 30 29 26 25 23 20 19
90 84 82 87 85 80 79 79 75 65 64 64 63 60 52 50 44 45 48 55 57 56 52 46 39 37 37 42 51 50 51 48 47 44 41 37 34 33 32 32 29 27 24 24
87 90 84 84 87 88 88 80 74 69 68 67 66 62 53 53 47 46 50 58 62 59 56 49 44 40 41 44 50 50 48 50 48 45 43 40 37 36 37 35 33 31 29 29
88 89 84 86 92 92 84 77 75 76 73 68 63 60 60 56 51 50 48 57 66 62 58 55 48 45 42 45 49 51 49 49 48 47 44 42 41 40 37 35 36 34 33 33
92 88 85 94 97 89 82 83 78 75 75 75 70 73 66 62 62 54 49 55 65 65 61 59 54 48 47 47 47 48 47 46 47 47 46 42 42 41 38 39 38 37 36 35
93 90 92 100 94 88 89 90 86 85 82 79 78 81 78 70 58 49 44 47 54 66 60 60 56 53 50 48 45 44 44 45 46 48 47 44 42 41 39 39 36 35 37 36
96 94 95 96 91 96 100 94 90 90 87 82 81 83 86 68 57 49 47 45 49 59 65 60 58 55 54 51 47 44 46 45 47 49 47 44 41 40 40 38 37 38 39 38
98 99 100 98 98 101 98 96 93 96 95 88 87 89 83 63 48 44 44 42 46 45 49 62 64 62 59 56 52 50 48 49 54 52 45 42 42 42 41 41 40 40 39 38
102 104 103 99 101 100 100 100 97 95 94 92 92 91 79 63 50 47 44 44 41 38 38 46 61 65 63 60 56 53 53 55 52 44 42 43 43 43 41 41 40 41 41 43
103 106 103 102 105 104 103 105 99 99 97 95 94 92 77 64 56 53 49 50 51 44 42 39 39 50 63 63 61 58 57 58 54 51 49 50 49 48 47 46 46 44 45 43
104 111 109 101 100 102 105 107 103 102 99 96 93 86 76 67 62 60 59 59 58 53 48 46 39 36 43 58 66 64 62 59 54 54 54 54 52 52 50 49 48 48 46 43
96 106 110 107 104 98 101 102 102 101 97 93 89 82 74 70 67 65 66 65 67 64 55 47 46 44 40 40 48 61 67 66 64 61 60 59 57 56 54 52 51 49 46 44
89 102 107 104 102 95 97 99 100 100 90 87 82 79 76 72 70 67 67 70 70 62 53 52 53 49 45 43 41 43 51 58 59 59 62 62 62 61 57 54 50 48 48 47

GFSCGP_250_spd_060.txt.gz
Wind_Speed
57 52 55 56 51 50 46 40 35 31 31 27 27 26 23 22 25 25 26 17 9 13 9 2 12 12 10 12 16 16 23 23 25 27 30 29 28 26 23 22 21 20 17 15
57 57 63 59 55 52 49 44 41 37 35 34 31 30 25 23 24 23 23 25 13 12 6 2 14 14 10 8 17 18 22 26 27 29 28 29 27 26 24 23 20 17 14 13
62 71 65 61 58 55 50 47 49 46 43 38 33 33 32 24 29 23 23 25 21 14 10 2 12 16 14 11 19 18 22 28 28 28 27 27 26 24 22 19 17 15 12 11
67 73 65 62 59 57 53 56 54 52 46 38 40 39 34 30 28 28 24 24 30 20 15 13 11 21 19 15 21 22 25 29 29 29 28 27 25 22 20 17 14 12 11 8
68 76 71 68 65 61 61 61 58 56 51 46 43 37 38 30 30 31 31 27 31 28 13 18 10 19 23 17 25 26 26 32 32 29 29 27 25 22 19 17 16 13 10 7
78 82 72 70 74 68 72 65 62 60 55 44 43 39 39 36 39 36 33 30 28 28 19 19 16 19 28 22 25 30 30 31 32 31 28 28 27 23 20 18 16 14 10 8
85 82 77 75 75 72 75 71 66 59 51 40 46 41 41 44 44 40 36 32 33 29 25 24 21 23 29 30 28 33 34 34 32 31 28 28 26 23 19 18 17 15 12 10
86 88 81 77 74 76 75 72 66 59 52 52 51 40 49 50 47 40 37 35 32 30 30 28 26 23 33 36 30 33 34 35 33 29 28 27 25 21 20 20 18 16 14 12
90 85 87 84 81 79 75 65 69 66 60 56 49 49 55 50 49 43 43 38 37 33 34 31 29 27 34 37 35 30 36 37 34 29 28 26 25 23 23 20 17 16 14 13
99 88 88 82 90 86 76 74 73 64 60 54 52 52 54 51 51 46 43 41 44 40 36 36 34 31 31 39 38 32 37 39 36 33 31 28 27 27 25 22 20 18 15 13
106 94 95 96 85 76 78 74 71 68 65 57 59 56 62 59 52 43 42 45 45 44 39 41 37 33 33 40 39 35 40 42 41 38 36 33 30 28 26 23 20 17 14 13
101 100 103 96 86 83 82 80 77 71 61 58 62 67 60 57 48 41 40 38 40 45 42 45 40 36 35 39 41 40 40 46 44 41 38 34 35 33 28 25 21 17 16 15
98 98 99 97 94 90 88 77 71 70 69 66 66 68 58 56 49 44 45 42 40 44 45 48 44 41 36 38 43 41 45 48 47 45 41 39 39 34 31 28 24 20 18 17
96 98 97 97 98 97 85 79 73 70 68 69 68 68 64 60 54 49 49 47 47 45 49 53 49 42 36 37 41 45 48 50 50 49 45 43 40 36 33 32 28 23 21 21
95 95 99 95 97 93 85 77 71 70 67 66 76 70 64 62 58 55 53 52 49 48 48 53 50 44 39 35 42 45 50 51 53 52 49 46 42 39 37 34 30 26 25 25
95 97 92 91 92 90 86 80 77 72 68 69 77 73 67 66 62 60 59 54 51 46 49 54 51 47 41 37 40 45 48 55 54 52 51 47 43 40 38 35 34 33 30 29
97 97 90 93 93 93 94 90 88 78 79 75 77 75 69 66 64 61 59 55 49 47 49 55 52 48 45 40 38 41 47 53 56 54 50 46 43 41 39 37 37 34 33 33
96 97 93 96 97 94 95 96 89 84 83 83 78 78 75 70 67 61 57 51 46 45 46 57 56 53 48 43 40 39 43 50 56 54 52 47 45 45 42 41 39 36 35 35
93 96 99 101 98 95 97 98 92 89 85 82 82 83 75 70 62 58 54 47 45 43 43 51 58 55 50 46 43 38 39 47 53 51 50 50 47 46 44 42 41 39 38 39
94 99 103 102 98 96 95 98 96 93 90 86 88 88 80 71 64 56 51 49 48 47 44 52 57 58 53 51 47 43 42 47 51 51 51 48 48 48 46 44 42 39 39 39
97 100 104 105 100 99 99 97 97 100 97 92 90 89 79 67 57 54 52 53 50 48 46 48 60 62 60 55 53 47 45 48 52 54 53 50 49 48 45 43 42 40 39 39
93 101 107 105 98 97 92 94 98 95 93 91 88 87 76 61 58 55 56 53 52 51 50 48 53 64 64 61 58 57 53 50 49 51 51 50 47 43 40 40 42 41 41 41
96 105 106 106 100 94 91 93 92 91 91 89 88 84 74 63 59 59 58 56 52 51 49 51 48 55 66 64 61 59 57 57 53 51 50 48 45 43 45 45 45 44 44 41
91 102 103 100 98 93 91 91 92 90 90 91 88 83 77 68 62 61 60 58 55 52 49 47 48 49 54 67 67 63 61 62 59 56 54 50 48 48 48 46 44 44 45 44
84 97 98 101 96 92 91 93 95 88 89 93 90 86 79 73 69 64 62 61 60 60 57 49 47 48 44 49 61 70 68 64 61 59 56 55 55 53 51 50 51 51 50 49
60 88 95 100 100 97 94 95 95 96 79 95 96 90 84 78 75 72 66 66 62 64 64 62 53 50 48 45 48 55 66 70 69 65 62 60 58 55 55 55 54 53 52 52

GFSCGP_250_spd_063.txt.gz
Wind_Speed
57 54 55 60 57 55 51 48 43 38 30 29 28 25 24 24 20 23 19 19 7 5 10 5 6 14 10 15 15 14 21 24 25 28 30 29 31 27 21 20 20 15 14 15
58 55 65 63 60 57 54 53 52 45 36 36 32 29 24 25 23 20 22 18 20 10 9 5 5 12 12 14 15 16 20 23 25 28 32 32 28 23 20 21 16 13 11 11
64 68 69 64 62 59 57 58 58 54 48 41 34 29 26 28 27 21 24 17 17 15 16 4 0 11 15 15 19 18 20 24 26 29 32 30 26 21 21 18 15 12 10 9
68 71 69 67 62 61 59 64 60 58 48 43 41 37 31 32 30 24 23 22 15 23 14 11 6 11 12 15 19 18 21 26 29 31 30 29 27 25 23 19 16 13 10 7
69 74 70 68 66 66 67 64 63 60 52 49 44 38 36 31 32 31 30 24 17 24 24 17 11 12 14 17 22 22 22 28 30 31 31 29 27 25 23 20 17 14 10 7
79 80 75 73 75 70 75 68 66 61 54 49 45 40 37 40 38 35 35 29 24 26 24 22 19 15 18 17 22 24 25 28 31 31 30 30 30 26 23 19 16 13 10 7
89 85 79 80 75 74 76 71 68 61 52 44 49 41 44 43 40 40 39 31 28 23 28 29 25 24 18 20 25 28 29 30 35 35 32 31 30 27 23 18 15 12 10 8
92 94 89 86 79 77 75 74 68 60 55 49 52 41 48 50 46 43 39 34 30 27 26 26 25 25 21 23 28 29 30 29 37 38 35 33 30 26 21 17 16 15 14 11
96 93 97 93 88 87 81 72 71 68 64 58 53 50 56 50 46 45 43 38 36 32 29 25 26 27 25 24 29 32 30 31 35 35 33 33 29 25 21 19 19 18 16 13
104 98 98 96 95 91 82 82 79 69 65 58 55 52 56 51 50 50 49 44 41 36 35 32 29 30 28 27 27 31 31 35 36 35 35 33 29 27 24 22 21 19 17 15
111 102 103 98 97 94 91 88 81 78 72 63 61 52 61 56 56 54 52 46 44 41 39 38 32 31 32 29 27 33 35 36 39 38 37 35 34 31 27 26 23 20 18 17
108 108 107 103 96 94 93 88 85 78 69 65 62 56 66 62 59 58 54 50 49 44 38 39 35 34 36 33 31 34 37 40 42 39 39 37 35 33 32 29 27 23 21 20
109 107 110 105 104 102 95 93 89 81 80 70 64 66 70 65 60 55 50 48 47 45 37 37 36 36 38 37 31 36 41 42 42 42 43 40 37 36 33 31 28 27 25 23
111 105 108 110 110 104 96 92 85 82 76 68 57 82 67 62 59 57 54 54 50 45 42 39 37 39 39 38 33 38 43 44 44 44 44 43 41 38 35 32 30 30 27 25
110 108 105 108 112 107 100 94 89 79 73 69 68 78 67 68 71 65 58 56 53 50 47 43 39 39 40 41 36 37 43 46 45 47 47 47 43 41 38 36 34 32 30 28
103 106 105 103 106 105 105 102 94 82 77 73 77 76 79 75 67 63 58 56 56 51 49 47 44 42 42 44 43 39 44 50 49 47 48 47 47 44 41 39 37 34 33 31
97 104 105 100 105 106 106 106 97 91 81 78 81 83 80 73 69 65 60 58 57 52 52 49 47 49 47 47 48 43 42 50 53 48 47 49 51 48 44 42 40 37 35 34
91 101 103 110 108 102 102 104 101 94 87 82 84 87 80 73 69 66 62 60 57 56 54 50 47 46 45 50 51 47 42 46 51 50 49 51 51 51 47 46 42 39 38 36
90 104 104 109 106 102 100 101 101 98 90 86 86 88 79 74 72 68 65 61 58 56 55 52 50 49 47 50 52 51 48 42 44 48 49 54 54 51 49 48 44 41 40 38
91 106 104 107 107 102 96 97 98 97 94 90 88 88 79 76 69 65 61 58 58 58 56 56 53 50 50 53 56 53 50 47 43 44 49 52 54 51 50 47 44 41 42 41
93 106 104 108 106 101 99 97 95 97 95 93 92 88 81 75 65 61 59 56 57 59 57 55 54 52 49 53 57 56 53 50 47 43 46 48 52 52 51 48 45 42 42 43
82 100 105 109 106 102 99 97 97 94 94 94 92 90 82 74 65 61 59 57 56 58 59 58 55 53 51 53 58 59 57 53 49 46 45 47 53 57 54 51 50 48 47 47
80 94 101 107 105 101 99 99 97 92 93 96 92 89 83 74 68 64 61 59 58 60 60 59 57 55 54 53 55 61 58 54 52 48 47 45 49 52 50 47 44 42 46 49
74 87 98 103 106 99 99 95 87 90 91 96 94 89 83 76 72 66 63 60 60 61 62 62 60 57 55 55 54 57 62 58 56 54 50 49 48 49 50 49 49 50 51 51
73 90 99 104 100 100 99 99 93 90 90 92 95 90 86 80 76 72 67 65 64 63 63 61 60 57 55 55 57 60 63 64 61 60 58 54 48 46 45 47 49 50 49 49
65 86 96 99 99 102 102 100 91 87 87 94 91 91 87 83 81 77 71 69 68 64 63 62 60 57 55 53 53 56 62 66 66 63 61 59 57 54 52 52 50 49 49 49

GFSCGP_250_spd_066.txt.gz
Wind_Speed
60 55 54 60 55 54 49 49 43 37 32 31 32 26 23 18 19 16 13 12 11 9 7 13 11 8 9 13 15 13 18 24 22 21 24 23 23 21 18 17 12 11 12 16
62 57 66 61 57 56 53 53 49 45 39 38 34 29 23 23 21 20 15 14 11 15 10 11 8 9 5 11 15 14 19 24 25 24 25 24 24 21 17 16 10 10 11 12
67 71 69 65 61 59 56 56 56 52 48 44 37 32 31 27 28 22 17 16 10 14 11 13 9 8 10 12 15 18 19 23 25 27 27 25 25 18 20 16 11 8 8 10
74 74 71 69 64 62 59 62 63 57 51 47 43 38 36 30 29 21 19 17 14 10 11 10 10 5 10 11 15 18 19 21 25 27 30 30 25 20 22 18 13 9 8 7
76 77 75 74 70 68 68 67 67 62 54 50 44 40 38 33 33 28 26 21 16 11 13 17 7 9 5 13 16 19 19 20 24 27 31 30 26 21 21 18 15 11 7 5
84 83 79 79 81 75 74 71 70 63 57 48 44 41 39 40 38 31 27 24 22 17 14 21 19 11 9 12 15 18 20 20 24 27 30 32 28 24 21 18 14 11 8 6
90 86 86 86 85 81 78 75 70 62 54 42 44 42 45 46 42 35 30 29 24 19 16 20 21 19 17 15 16 21 22 24 25 29 32 32 30 26 23 19 15 13 10 8
98 94 92 88 87 84 81 78 70 63 56 47 46 41 50 55 45 41 37 31 25 25 22 21 25 26 22 20 18 20 22 25 29 30 33 33 31 28 25 21 18 16 12 11
104 100 100 94 91 89 83 77 73 73 65 57 50 50 54 51 47 43 38 31 35 32 29 27 24 24 20 22 22 24 24 26 28 30 30 32 30 27 25 21 20 20 15 13
109 104 103 102 97 93 89 85 85 74 68 61 56 56 56 53 51 49 41 41 41 39 35 30 28 27 24 25 24 21 26 24 28 28 31 31 31 25 26 24 22 22 18 16
113 110 108 106 102 100 97 92 86 79 74 66 62 55 60 58 56 53 50 48 45 40 39 35 31 29 23 24 25 23 24 28 30 31 31 31 30 28 31 27 26 23 21 20
114 112 113 111 109 105 102 99 92 84 74 69 65 61 66 63 60 57 55 53 49 41 42 39 35 31 27 25 27 28 26 29 33 35 33 33 32 32 32 32 28 26 24 24
114 113 114 118 115 109 104 103 97 86 80 71 67 64 69 67 63 60 58 56 49 44 43 41 36 32 31 29 27 32 31 31 34 36 36 34 36 36 34 34 31 29 28 27
109 113 116 116 120 116 111 104 100 94 85 77 69 68 70 73 67 65 62 58 52 45 42 42 41 36 35 33 31 34 34 32 34 38 38 39 39 38 36 35 34 33 33 30
113 110 115 118 120 121 119 111 101 93 90 80 76 75 76 78 73 69 64 57 50 46 45 43 42 39 37 36 34 34 34 32 34 39 41 43 41 39 39 38 37 37 35 32
100 112 113 116 122 119 120 114 106 95 89 84 84 82 82 82 74 67 62 54 51 52 49 46 45 43 39 38 37 35 36 35 34 39 43 41 41 41 43 40 39 39 37 35
89 101 113 118 118 119 116 117 111 96 87 86 88 86 88 85 76 69 62 61 59 54 51 52 49 45 44 41 39 37 37 37 37 36 40 42 42 44 46 44 43 42 40 39
82 93 101 118 118 120 112 116 112 100 93 87 87 89 93 84 80 72 66 63 57 57 54 52 51 50 47 45 41 40 40 39 39 36 39 44 45 47 47 47 47 44 42 41
74 86 95 115 116 116 114 115 110 103 96 88 88 93 88 85 82 73 67 62 61 60 57 54 52 49 46 43 41 43 45 43 43 41 39 45 50 48 48 50 49 46 44 43
68 76 89 107 113 115 114 111 104 104 99 94 93 95 87 85 80 73 67 66 61 60 60 59 54 51 47 46 46 45 48 46 46 46 44 42 46 49 50 49 48 46 46 45
65 74 87 101 111 112 110 107 102 106 102 95 96 96 87 83 76 73 69 68 66 63 60 60 57 53 52 51 49 49 49 49 50 50 47 43 42 45 48 47 48 49 49 50
61 70 84 95 108 111 107 105 104 100 103 100 99 97 90 83 77 72 71 69 68 64 58 56 58 56 55 54 53 52 52 48 47 50 48 46 44 44 46 49 48 51 52 53
56 65 77 91 105 108 109 99 102 98 98 101 98 98 91 85 80 74 71 68 66 62 58 54 56 57 58 58 56 53 52 48 48 49 39 49 47 45 45 48 50 53 57 55
52 62 72 91 104 108 101 100 96 91 90 97 96 96 93 88 82 77 73 69 66 64 59 56 56 58 59 57 56 55 53 50 49 53 53 50 49 48 46 45 48 53 56 56
47 60 75 90 100 101 103 95 95 90 87 91 91 92 94 90 86 80 75 74 69 68 65 60 58 60 60 57 55 55 54 52 50 52 56 56 55 54 49 46 44 46 49 53
40 59 74 86 96 105 98 94 89 88 96 89 89 88 92 92 88 84 80 77 72 70 68 67 65 61 59 57 56 56 55 52 51 53 57 60 59 56 53 47 45 47 52 57

GFSCGP_250_spd_069.txt.gz
Wind_Speed
62 59 56 61 56 51 45 46 40 36 32 27 25 23 21 20 18 13 11 8 6 5 5 6 11 2 5 8 11 16 16 18 23 20 21 21 17 16 15 14 17 17 16 16
66 62 68 65 60 57 52 50 47 45 40 36 30 26 20 25 20 17 13 11 8 6 8 9 6 1 5 6 10 16 17 21 20 21 23 23 20 17 15 12 13 13 11 12
71 73 73 70 67 63 58 57 56 53 47 42 35 26 27 27 25 18 15 13 9 8 9 10 5 3 8 7 10 15 18 19 21 20 23 19 20 16 14 10 11 9 9 7
78 76 75 74 69 66 61 64 62 59 51 48 41 35 33 29 27 21 20 16 14 9 9 9 7 5 4 7 10 13 18 21 21 21 22 21 22 17 13 10 8 7 5 5
82 82 79 77 76 74 71 71 68 64 56 52 43 40 39 33 30 28 27 20 18 13 10 12 7 3 6 8 10 13 16 21 23 22 23 23 22 15 16 12 9 7 5 3
89 89 83 81 82 80 79 75 72 68 61 51 47 42 41 38 39 33 30 25 21 18 11 10 16 13 4 6 10 12 16 19 22 25 24 24 23 18 15 14 12 9 6 3
95 91 89 88 85 84 81 79 77 71 60 47 51 44 46 47 44 39 35 28 24 18 13 13 19 18 13 10 8 11 17 21 24 25 25 28 26 23 17 17 14 12 9 5
103 99 95 90 89 87 85 84 81 74 65 53 54 44 51 55 50 42 38 34 28 25 22 21 19 20 16 13 10 11 14 19 25 26 27 28 28 24 21 20 18 13 10 8
107 104 102 96 93 93 90 84 81 81 73 64 54 51 61 55 51 45 43 38 35 31 29 26 23 22 22 20 18 17 18 18 22 27 28 30 30 29 25 22 21 16 13 11
112 108 106 105 100 97 93 90 91 83 75 67 60 59 60 58 56 51 48 45 41 37 33 29 29 26 23 24 21 17 18 19 21 23 26 29 29 27 27 26 24 21 16 13
114 112 111 109 109 104 99 96 91 85 79 72 65 61 64 62 61 56 52 50 45 42 36 34 31 28 24 24 24 24 20 21 22 26 28 27 27 27 29 27 26 23 18 16
111 116 114 114 112 111 107 102 94 90 81 75 68 67 69 72 64 59 55 52 49 45 40 36 33 29 26 25 21 24 25 23 26 28 32 31 32 31 30 29 26 23 21 19
111 113 117 118 118 116 114 108 100 92 86 79 74 70 72 72 67 62 61 58 53 50 44 37 33 32 32 29 27 24 24 27 24 30 34 34 33 36 33 30 28 25 25 23
112 112 114 121 122 120 116 112 106 97 90 83 78 75 77 75 72 69 66 60 57 54 46 39 36 36 36 34 31 27 26 26 29 28 34 35 36 38 36 33 31 28 28 28
107 112 115 118 124 121 121 115 111 103 95 88 83 78 81 80 78 69 67 61 58 53 46 42 40 39 39 39 35 31 29 28 29 32 33 38 38 40 38 37 35 32 32 31
98 106 113 119 123 125 122 121 114 109 101 91 87 82 85 83 79 73 71 67 63 56 47 44 42 43 42 42 40 37 34 34 32 36 36 36 39 40 42 41 37 36 34 33
82 97 106 115 123 122 122 121 116 109 105 99 92 88 87 87 84 79 74 70 65 59 52 49 48 47 45 45 45 41 39 38 36 37 37 35 38 41 44 44 39 37 36 34
75 83 97 108 115 119 121 119 116 113 107 102 99 95 93 88 83 80 73 68 64 60 56 56 53 51 51 49 46 44 42 41 39 36 39 38 35 39 42 45 44 40 37 37
65 77 85 100 104 111 115 119 115 112 107 104 101 100 97 93 88 83 76 69 66 65 64 61 56 56 54 48 48 45 43 41 39 38 39 41 39 36 41 45 45 44 40 38
57 70 77 85 96 102 108 113 114 109 110 106 102 101 100 96 93 83 77 73 70 69 67 62 62 58 53 52 52 48 44 42 41 41 40 39 39 38 38 43 42 39 42 42
50 62 73 81 88 99 105 110 110 113 104 108 103 101 99 98 93 88 79 76 74 73 69 68 61 57 56 55 54 50 47 47 45 42 40 40 39 40 39 36 40 43 44 45
48 55 62 68 77 90 106 108 105 106 106 106 108 104 102 99 91 89 85 80 76 74 74 69 64 63 61 57 55 52 51 52 45 42 41 38 37 40 41 39 39 43 47 50
40 46 52 60 69 82 100 110 101 103 106 104 108 107 104 97 88 89 87 83 77 77 73 70 68 68 64 61 59 53 50 52 46 44 41 39 40 40 42 43 40 41 43 49
35 42 50 57 66 78 91 105 102 98 102 103 105 108 105 98 92 88 86 82 78 76 74 72 71 70 67 64 59 56 56 53 50 46 43 41 42 42 42 46 44 42 43 45
29 37 46 52 61 71 83 95 103 97 97 101 102 105 104 100 95 91 87 81 79 70 70 72 73 71 69 66 62 57 56 54 51 48 46 43 46 47 46 44 47 47 46 43
26 32 39 47 57 69 80 91 101 101 96 99 100 100 102 102 97 93 89 82 80 73 64 70 74 75 72 70 68 62 58 57 52 50 47 47 48 39 43 52 53 51 48 46

GFSCGP_250_spd_072.txt.gz
Wind_Speed
64 63 61 62 58 52 47 44 40 33 27 23 22 18 19 18 17 16 12 10 9 5 3 1 6 3 5 5 10 21 27 25 20 17 19 17 16 17 19 17 16 18 19 18
67 68 72 68 63 58 52 49 47 42 36 31 27 24 23 22 19 19 18 14 10 6 7 6 2 1 3 6 8 19 23 28 25 20 18 16 14 15 14 15 12 13 14 15
75 75 73 72 70 66 61 57 55 50 44 38 32 28 26 24 24 23 18 16 11 9 5 7 5 2 5 2 9 15 21 23 27 23 20 17 13 12 11 13 11 10 10 10
79 80 77 74 74 72 67 65 62 57 50 47 40 34 32 30 28 23 22 19 15 11 8 7 10 5 1 3 9 11 21 24 23 21 22 22 17 15 12 10 9 8 7 8
84 84 81 79 78 78 75 72 68 64 58 52 42 39 39 34 30 27 27 21 19 14 12 8 13 10 6 7 7 8 15 24 24 21 24 23 19 16 11 9 7 6 5 5
94 90 86 84 83 82 83 76 75 70 65 56 49 44 43 39 39 33 30 25 22 17 14 11 15 15 11 9 9 11 11 21 25 25 26 22 19 18 14 11 7 4 2 1
100 97 93 91 87 86 83 83 79 77 69 56 57 50 49 48 44 40 34 28 23 19 19 16 16 18 14 9 6 11 14 19 23 25 24 24 23 22 16 13 10 7 4 3
99 103 101 96 93 90 86 86 83 78 73 64 64 53 52 54 52 46 39 35 28 28 26 23 19 21 21 15 10 6 11 15 22 24 24 25 26 24 20 15 14 11 8 7
98 103 105 102 100 95 90 88 81 85 81 72 67 62 59 58 55 50 44 39 36 35 31 27 24 21 24 24 18 14 12 14 17 18 23 25 26 26 24 19 16 14 12 10
106 102 106 109 106 101 97 92 93 87 81 74 72 68 61 62 60 57 51 47 45 41 35 32 29 24 24 27 23 17 14 14 16 12 19 25 25 25 25 25 20 17 16 13
109 110 103 112 112 109 104 99 94 89 81 79 76 71 68 67 64 62 56 55 52 47 42 37 33 29 24 22 23 25 20 20 18 19 19 25 28 28 27 27 24 22 21 17
104 110 108 113 118 114 109 102 99 96 85 81 81 77 75 68 73 69 62 60 56 52 46 42 35 30 29 26 22 25 26 24 23 24 24 25 28 29 30 29 27 24 22 20
100 104 111 115 118 121 119 115 107 99 92 86 83 79 77 76 77 72 68 64 60 56 51 46 40 38 35 31 27 25 25 28 26 25 27 28 29 32 33 31 29 27 25 24
98 102 108 116 124 130 122 116 113 103 95 91 84 83 82 83 83 77 68 64 62 59 55 52 47 43 40 36 32 29 28 26 27 26 27 30 30 34 33 32 31 29 28 27
95 101 107 115 119 121 122 117 115 108 100 94 92 87 90 88 80 77 75 69 65 61 58 55 48 45 42 37 37 34 32 29 26 25 28 33 33 33 33 31 34 33 32 29
89 97 104 110 119 120 123 124 119 113 107 101 94 89 92 86 85 84 78 73 67 64 62 57 51 48 44 42 41 41 37 35 34 33 31 33 32 33 33 36 35 37 37 35
78 89 98 108 114 115 119 122 123 117 113 109 100 96 93 93 91 86 81 76 72 68 66 61 56 54 51 49 45 44 44 41 39 37 36 32 32 32 35 36 38 40 40 37
68 77 86 102 109 111 117 123 123 121 115 114 109 101 94 94 89 88 83 79 76 72 69 65 62 58 56 52 49 46 45 46 45 40 37 36 34 36 35 36 39 42 41 41
59 67 77 88 100 112 113 112 116 120 119 111 111 105 100 97 94 89 88 83 78 74 70 68 64 61 59 56 54 50 48 49 47 43 40 40 37 36 39 36 40 43 41 44
52 59 68 79 86 98 108 113 114 116 120 116 113 110 104 103 99 92 89 85 80 77 74 70 68 64 65 62 58 54 51 51 50 47 45 40 37 36 39 41 39 39 42 42
46 55 63 73 78 83 92 105 111 113 112 117 114 113 109 107 104 88 88 85 83 79 76 74 70 69 68 63 62 58 53 52 52 49 46 40 39 38 36 38 40 37 40 42
40 46 55 64 67 74 81 96 107 111 110 118 118 116 113 108 103 98 95 88 84 83 81 77 75 73 72 69 65 60 58 56 50 50 47 44 41 39 38 37 38 41 40 44
35 37 47 57 64 71 79 88 97 102 109 114 119 119 115 109 104 101 98 92 87 83 81 78 78 76 75 72 66 63 60 56 53 53 50 47 44 42 40 39 39 39 43 42
30 34 42 52 60 65 75 84 88 94 103 110 117 119 116 112 108 102 99 97 90 85 82 81 80 80 77 70 67 65 64 62 59 56 55 51 48 44 41 40 41 39 41 45
25 30 37 45 51 58 67 76 80 89 99 110 115 119 118 114 111 105 100 99 94 91 86 83 82 80 74 70 68 66 66 64 62 58 57 53 51 48 44 42 41 41 41 44
23 27 32 36 42 48 56 68 77 87 94 101 111 117 119 116 113 107 103 97 97 96 90 86 82 71 69 71 70 67 66 65 64 62 60 56 53 50 46 43 43 43 45 46

GFSCGP_250_spd_075.txt.gz
Wind_Speed
62 58 62 63 57 53 48 45 41 36 29 23 21 23 22 39 26 23 21 15 12 7 6 5 3 5 6 10 13 26 24 21 24 21 17 15 14 16 18 19 17 17 16 14
68 63 67 66 64 59 53 51 47 41 34 29 24 21 25 28 26 25 22 15 13 8 8 8 2 3 7 11 10 23 27 23 23 24 20 16 14 11 12 16 16 14 13 12
73 74 72 67 67 66 61 58 54 51 42 39 31 25 24 23 22 26 23 17 13 11 6 10 6 2 10 8 13 17 27 27 24 22 20 17 14 10 9 11 13 12 11 9
77 78 76 74 70 70 68 65 62 57 50 46 38 34 29 32 23 32 25 21 18 15 9 10 11 7 10 10 13 15 24 28 27 22 20 18 16 12 8 7 9 10 10 9
83 81 78 78 77 75 72 72 69 64 58 53 44 40 37 36 34 31 28 24 22 17 13 11 12 11 11 13 13 15 19 24 29 25 23 22 19 15 10 6 5 5 7 7
89 88 84 81 81 80 79 75 74 72 67 57 52 46 43 41 39 36 32 27 25 21 15 12 15 16 14 17 14 19 17 24 26 27 28 24 18 16 13 11 6 3 4 5
89 91 92 89 85 84 82 78 77 77 73 60 61 53 50 48 45 40 36 31 27 23 20 17 20 20 14 16 18 19 21 25 30 29 29 27 21 18 16 14 7 4 1 2
91 89 94 96 92 89 87 85 81 78 76 66 69 59 55 56 51 46 40 35 31 28 25 24 19 20 20 17 15 13 15 21 29 30 28 28 26 22 19 14 11 7 4 2
105 96 94 96 98 99 91 91 83 83 82 76 76 70 65 61 57 54 48 43 38 36 33 28 23 23 25 22 19 17 15 14 22 26 25 26 27 26 23 16 13 10 8 5
106 106 104 96 96 100 102 93 92 89 85 82 81 76 69 66 62 61 54 48 46 43 38 33 30 27 26 26 25 15 13 16 15 12 22 26 26 26 24 22 19 15 12 10
103 106 107 108 101 96 103 100 98 93 89 86 84 77 75 70 67 66 62 59 54 51 47 41 36 31 27 27 27 25 19 17 19 19 17 24 26 26 26 25 23 21 17 14
99 102 108 105 105 110 108 112 108 101 93 88 88 87 82 78 74 70 68 63 61 58 53 47 42 36 33 32 29 27 21 23 22 23 24 21 23 26 27 28 26 25 23 19
90 96 106 106 112 114 109 105 105 104 101 97 93 89 85 81 76 75 77 73 69 61 55 50 45 41 39 36 33 28 24 25 26 25 25 26 24 24 28 29 30 29 26 23
87 95 105 108 114 120 120 116 111 116 110 100 95 95 90 84 82 88 80 69 61 59 59 57 54 49 45 41 38 34 29 28 28 27 26 27 28 30 30 28 30 30 29 26
83 91 101 109 116 114 115 118 112 113 111 109 101 102 96 92 92 92 82 73 71 72 67 61 59 53 48 46 43 39 34 32 31 29 30 30 29 30 29 27 30 32 31 29
74 81 94 102 109 112 115 117 115 107 110 109 106 104 99 103 104 91 88 79 76 72 69 66 62 56 54 51 46 42 41 38 34 32 34 33 30 28 30 30 31 31 31 30
65 74 84 93 105 110 115 117 118 114 116 117 113 105 106 103 98 94 85 84 79 74 72 69 65 63 59 55 51 48 46 42 40 37 35 34 31 30 27 30 31 33 34 33
59 67 77 87 99 106 105 115 121 123 120 120 120 116 112 112 98 88 91 90 83 78 74 72 70 67 64 59 57 52 50 50 47 44 41 38 36 35 33 31 30 33 35 36
54 62 70 78 90 96 106 112 118 119 122 125 128 125 124 110 95 95 104 96 89 84 78 75 73 70 66 63 61 57 54 53 52 50 47 44 41 39 37 34 35 36 35 36
50 56 62 73 80 90 100 106 112 119 127 122 122 121 113 95 98 110 103 95 91 88 81 77 74 72 70 67 65 61 57 55 55 55 52 48 43 39 38 38 37 36 35 36
43 52 59 68 72 79 89 96 106 112 119 123 122 123 120 115 113 105 99 95 92 90 86 79 77 74 72 71 70 66 63 60 60 55 52 48 44 42 41 38 36 35 37 38
36 44 53 61 66 72 80 83 94 105 112 119 123 127 125 120 115 107 102 102 98 94 91 85 80 77 75 72 70 70 67 67 60 55 53 50 47 45 42 40 37 36 37 41
29 37 45 53 60 68 68 76 85 101 110 114 119 126 125 122 117 109 105 104 101 97 94 91 85 80 77 77 74 74 71 66 61 58 54 51 50 47 46 43 41 39 39 39
24 28 37 46 53 60 67 76 85 92 101 107 115 124 126 123 118 116 108 104 104 101 97 93 88 84 80 79 75 72 71 68 62 58 55 54 52 50 51 49 46 44 42 42
22 24 29 37 45 53 60 66 77 86 94 102 108 120 125 125 121 119 113 108 105 102 100 94 91 86 82 80 77 75 75 70 64 61 59 57 54 53 53 52 51 47 45 44
19 22 23 28 38 47 54 59 72 83 89 98 101 113 124 127 124 121 116 115 109 105 101 96 92 89 85 83 81 77 76 71 66 61 61 59 56 55 55 56 54 52 49 49

GFSCGP_250_spd_078.txt.gz
Wind_Speed
64 61 60 62 57 54 49 49 45 40 38 35 33 33 31 30 15 25 33 26 21 14 8 9 7 4 8 14 16 18 22 19 20 19 18 17 16 17 16 15 15 12 13 16
66 64 66 65 63 59 53 51 48 42 36 32 29 25 29 29 29 18 25 22 21 15 9 11 7 4 8 13 20 20 22 22 20 20 18 17 16 15 14 14 12 11 11 15
71 70 70 67 65 63 60 56 55 47 39 36 32 28 36 35 27 24 32 26 20 14 8 11 11 4 9 11 20 23 22 22 21 19 17 16 15 14 12 12 12 10 8 10
77 77 74 71 68 66 63 64 61 52 43 41 38 32 33 43 29 30 23 24 22 18 14 10 13 6 6 12 19 25 27 21 21 21 18 16 15 13 11 11 10 8 6 6
80 80 79 77 74 72 67 67 66 61 52 49 43 36 36 42 33 35 29 32 29 23 17 11 11 12 10 14 19 25 25 29 24 22 21 18 15 12 11 9 9 9 8 7
86 85 83 79 82 79 76 71 68 67 60 54 50 44 40 40 43 41 32 37 32 27 21 15 14 19 16 17 21 24 27 31 30 27 24 21 16 14 12 9 8 6 6 6
87 88 88 86 84 83 82 78 74 71 65 59 60 53 49 45 45 45 43 38 34 32 24 21 18 19 20 17 20 22 26 29 32 34 29 25 21 17 14 11 8 7 5 4
88 88 89 91 90 88 84 84 82 76 72 67 68 60 55 57 52 47 43 39 35 32 27 25 23 22 18 18 20 20 22 26 29 33 32 28 25 23 19 14 11 6 4 1
97 92 95 95 92 94 89 90 83 82 80 74 73 70 65 64 58 54 50 40 36 33 31 30 27 26 22 20 20 21 20 23 29 31 29 29 29 27 22 17 14 10 6 3
100 98 101 97 93 94 97 92 91 87 85 80 79 75 71 68 62 61 54 42 36 45 36 34 30 29 26 24 21 19 16 18 18 24 28 26 28 27 24 22 17 12 9 7
95 98 104 108 100 97 94 96 97 93 89 85 84 80 77 75 71 66 59 50 38 41 36 45 35 34 29 28 28 23 20 18 17 20 25 27 29 29 27 25 25 20 15 11
95 95 101 107 110 107 102 99 101 99 91 86 88 90 91 83 76 72 67 60 56 42 43 49 53 45 36 34 32 32 26 21 21 20 22 22 24 24 27 29 28 25 22 18
85 92 96 107 110 110 111 105 101 102 101 97 93 91 91 85 81 80 75 74 69 74 63 59 42 48 42 38 35 33 33 29 23 21 23 25 24 26 29 29 28 28 26 22
83 85 90 100 109 116 114 115 110 105 104 100 96 97 101 96 91 85 83 80 73 75 71 72 52 48 47 42 40 36 35 35 30 26 24 25 30 30 29 27 28 28 26 24
78 83 88 94 107 115 114 114 117 111 104 108 102 105 109 104 101 94 90 88 84 85 78 73 66 59 50 55 46 42 39 37 34 33 30 29 28 28 27 29 28 29 28 26
73 78 85 87 99 110 109 111 112 116 105 103 111 113 107 105 104 100 97 93 90 82 76 73 69 62 57 51 49 46 43 41 35 34 34 32 28 27 27 25 26 28 28 26
60 71 76 82 96 106 109 110 113 116 115 107 101 108 113 110 109 104 100 96 91 83 77 78 78 69 62 51 58 57 50 45 43 39 37 34 32 30 30 29 28 29 30 28
49 56 72 79 90 96 93 104 113 114 118 116 112 119 121 119 117 110 108 99 92 87 84 81 78 71 66 63 51 50 53 51 48 44 42 39 36 34 32 31 32 34 33 33
45 51 65 73 83 87 92 108 113 117 120 130 127 124 128 127 120 116 106 94 89 90 87 84 80 76 73 72 74 64 61 57 53 50 48 45 41 37 35 34 35 34 32 31
40 47 52 63 76 80 92 100 111 116 121 122 124 128 127 121 120 114 103 91 91 94 86 86 84 80 76 73 70 66 61 57 56 55 53 48 45 42 40 39 37 34 32 33
31 39 47 55 67 77 84 94 106 113 121 123 127 132 128 120 120 117 111 97 99 101 93 90 87 84 80 76 73 69 65 62 63 59 55 52 50 47 44 41 39 37 35 33
25 31 40 52 61 73 80 87 97 106 112 121 124 129 129 126 121 118 112 104 107 107 103 99 93 88 84 78 75 72 70 70 66 62 58 56 54 53 49 45 42 41 38 37
15 22 33 44 55 66 70 79 85 96 106 116 120 126 128 129 126 119 114 109 110 109 107 98 96 91 86 82 77 75 73 72 69 65 63 60 58 56 54 51 47 45 42 40
17 17 26 36 47 53 61 73 78 86 101 111 116 123 127 129 127 120 112 115 114 112 110 101 97 94 89 86 81 77 75 75 71 70 68 65 62 58 54 52 51 49 47 45
19 20 24 28 36 46 55 64 71 79 90 100 108 113 121 125 126 122 115 116 115 114 112 105 98 97 93 89 85 80 78 73 72 73 72 69 65 61 57 55 52 50 49 47
16 17 21 23 29 40 48 55 63 72 82 92 101 108 114 121 123 123 117 116 119 118 115 110 103 99 97 92 89 85 82 81 78 76 71 69 66 63 60 58 54 51 52 50

GFSCGP_250_spd_081.txt.gz
Wind_Speed
65 61 61 60 57 55 56 56 55 53 53 49 46 43 44 41 39 36 34 25 27 16 10 13 7 6 6 8 20 15 15 17 17 18 18 16 13 14 10 8 11 13 15 19
68 66 67 65 62 60 56 55 54 54 54 53 50 47 45 41 38 34 28 28 26 13 11 12 6 1 6 8 21 20 16 19 17 19 21 19 16 13 12 9 7 12 13 17
70 73 72 69 67 64 61 58 58 55 50 46 43 39 40 39 35 28 32 28 29 20 13 10 10 4 5 7 20 23 20 22 18 20 20 19 16 14 11 9 6 8 9 11
74 76 73 73 71 69 66 64 63 59 48 44 39 35 37 36 36 32 27 29 32 23 18 13 12 9 8 6 15 27 25 24 20 19 18 16 16 15 13 11 8 6 7 9
77 77 77 73 74 73 71 70 68 64 54 45 38 36 36 33 38 44 37 32 28 23 21 14 10 16 13 13 12 26 28 26 23 20 20 18 13 13 11 10 8 6 6 7
83 82 79 78 78 75 76 73 70 68 62 47 45 41 37 36 49 48 47 46 24 25 25 18 17 19 17 16 16 22 30 29 27 23 21 19 16 13 12 11 9 8 7 6
85 84 84 83 82 81 79 77 73 70 66 57 57 49 45 43 49 49 42 38 34 32 25 24 23 20 20 17 18 19 25 30 31 28 24 21 20 17 14 11 9 6 5 5
85 85 88 91 88 85 83 83 79 74 70 65 65 54 54 51 55 54 45 46 36 33 32 32 30 24 21 20 20 19 20 24 29 31 29 25 24 21 18 14 11 7 4 3
87 86 89 89 89 88 86 85 82 81 78 70 68 63 61 60 57 52 50 45 44 40 37 37 32 28 22 17 19 18 19 20 27 31 32 31 27 27 24 20 17 12 8 4
89 89 92 90 90 90 89 87 87 86 83 76 74 71 69 67 64 59 54 52 48 40 39 39 35 32 25 19 19 18 22 22 21 28 30 32 29 29 27 24 20 19 14 10
86 90 95 93 92 93 95 95 95 91 88 85 81 75 79 78 74 70 64 58 52 47 40 45 30 38 29 23 21 20 21 22 20 22 29 29 29 32 31 28 25 22 18 14
92 88 93 98 98 99 97 93 97 98 94 89 85 84 89 80 77 72 65 63 64 54 57 53 57 41 38 33 27 22 22 23 20 20 23 30 30 28 33 31 29 28 24 19
86 95 95 97 102 108 106 102 102 104 100 92 89 92 89 89 84 81 78 76 69 61 59 59 57 52 47 36 33 25 28 25 22 21 21 26 31 32 32 31 31 30 28 25
79 85 92 97 101 106 105 104 105 105 103 101 93 97 102 97 94 89 82 75 68 63 60 49 55 55 53 36 40 34 31 34 31 27 24 25 28 33 33 32 31 31 30 28
80 82 85 90 100 105 103 106 108 109 103 102 102 110 105 101 101 95 87 80 77 70 63 54 47 33 40 45 46 44 36 34 36 35 33 30 28 27 27 30 33 31 31 31
76 81 84 85 94 102 106 107 109 112 107 103 106 114 108 102 101 100 93 85 80 74 68 59 45 50 39 30 43 40 35 41 35 36 36 34 33 31 30 27 27 28 30 31
67 73 76 82 90 96 96 102 108 109 112 116 114 118 112 112 105 103 98 92 87 82 77 72 61 65 65 42 38 37 34 40 43 40 40 38 37 37 34 31 28 29 28 24
53 58 68 72 82 88 85 100 107 111 117 125 129 124 113 113 110 107 103 99 94 90 87 82 80 77 76 58 54 43 44 41 45 49 47 44 40 40 38 34 33 32 30 28
49 52 52 60 73 78 85 96 100 109 119 124 128 125 114 113 114 112 108 103 100 96 95 90 88 86 87 74 66 57 46 53 59 67 54 47 44 41 38 37 36 34 32 30
42 47 47 48 63 71 84 89 95 101 114 119 124 123 120 117 121 117 114 107 105 104 101 98 97 93 92 86 78 67 62 43 45 59 60 51 47 44 42 40 38 35 34 32
36 41 43 42 50 66 75 86 92 98 106 115 117 122 124 124 123 120 118 117 112 108 105 103 101 100 98 96 84 77 69 81 56 55 56 54 51 48 46 44 42 40 38 35
30 33 37 38 48 54 65 76 83 92 103 110 112 117 123 127 125 124 124 124 115 111 111 105 101 101 100 99 92 87 86 81 70 56 54 53 52 53 52 49 47 44 41 37
24 26 34 39 44 47 57 65 73 85 95 104 109 115 120 127 127 127 124 126 124 121 113 108 104 102 103 101 97 94 93 93 90 87 78 67 62 60 58 55 52 49 45 42
24 24 28 34 37 45 52 59 67 75 84 99 108 113 116 124 128 130 130 125 126 126 117 112 110 109 104 102 100 97 94 94 93 89 81 74 71 66 62 59 57 53 50 48
22 23 24 26 33 39 46 55 62 69 78 89 102 110 113 118 123 129 132 129 127 127 125 116 113 112 109 106 104 100 97 95 93 89 83 77 74 68 66 64 61 58 56 52
23 23 26 24 27 36 40 49 59 65 71 80 89 102 107 112 120 126 129 134 130 123 126 122 117 114 114 110 107 104 100 98 95 90 84 79 75 72 70 68 65 61 58 54

GFSCGP_250_spd_084.txt.gz
Wind_Speed
62 62 63 61 61 63 65 63 60 58 54 49 49 47 46 45 43 41 40 34 33 25 22 19 13 12 5 7 15 15 11 19 17 17 15 14 11 9 9 9 11 14 18 22
65 66 67 66 64 62 63 65 65 61 59 54 52 54 53 51 47 44 42 37 31 24 17 20 11 11 7 9 16 20 13 15 20 19 19 15 11 11 8 7 9 12 14 18
72 73 69 67 67 65 63 60 65 65 61 57 54 51 54 52 51 45 42 40 35 23 23 23 8 13 10 10 18 21 20 16 19 19 18 16 14 11 10 7 5 7 9 16
78 77 75 73 71 70 67 67 65 65 61 58 56 53 53 52 47 45 41 40 35 31 30 23 15 13 13 14 18 23 24 21 20 20 17 16 13 11 8 6 5 6 9 13
79 79 78 76 76 73 73 70 68 67 60 54 52 50 47 47 46 46 43 40 33 33 31 24 17 20 17 15 19 25 25 27 22 22 19 16 14 12 10 7 6 6 10 10
83 81 80 80 79 77 77 74 72 68 63 56 54 49 45 44 45 43 43 39 39 34 32 26 23 20 21 18 19 27 27 28 26 22 21 17 14 12 9 7 5 6 7 6
86 83 82 81 80 80 80 80 76 72 69 63 61 52 51 48 47 44 47 45 42 34 37 35 28 22 22 20 20 22 30 29 28 26 22 20 16 13 10 8 6 4 4 5
88 90 89 85 83 81 80 80 79 77 73 69 68 55 57 57 52 48 50 51 45 36 37 34 31 24 23 22 20 19 25 33 32 30 25 22 20 17 14 10 8 6 4 3
85 89 90 90 90 88 85 83 84 80 78 75 75 67 69 62 56 51 54 55 46 51 44 41 35 28 27 20 20 19 19 25 33 33 30 28 23 20 19 16 13 10 7 5
88 92 91 93 95 94 93 90 88 86 81 76 78 74 78 69 64 57 56 55 52 50 52 45 37 31 30 24 21 22 22 20 26 31 34 31 29 24 23 22 18 17 13 11
86 92 93 96 96 97 96 95 94 89 86 83 81 84 78 73 68 63 60 59 58 52 54 46 38 34 34 28 26 23 24 21 24 28 33 36 35 32 29 25 24 21 19 17
83 87 94 97 99 97 98 98 98 94 90 88 86 90 82 77 72 67 63 65 63 59 53 47 38 37 37 33 29 25 23 20 26 22 24 29 31 35 34 30 28 26 22 22
88 86 88 95 100 99 101 100 99 98 96 95 92 94 92 82 78 77 71 68 65 60 55 46 39 38 41 39 36 29 28 23 21 26 20 22 29 33 35 33 31 31 29 26
93 89 90 93 99 100 101 103 102 101 99 98 99 98 98 88 84 81 80 75 70 59 59 53 53 53 50 45 39 36 31 29 25 25 25 20 20 29 37 34 32 34 34 32
85 92 97 100 102 100 100 104 105 105 105 104 106 106 100 98 88 86 85 81 77 71 69 63 64 58 52 47 42 39 39 33 33 30 30 29 24 19 23 34 33 32 34 33
81 82 85 92 100 104 103 103 108 111 112 108 109 110 100 100 95 89 90 88 82 76 70 71 66 59 63 56 52 47 40 38 36 35 34 38 30 27 27 25 26 29 32 33
78 82 83 85 88 93 100 108 110 113 116 115 114 110 103 104 100 96 94 93 88 83 78 75 75 66 63 58 52 50 53 41 47 41 36 43 39 33 31 28 28 28 27 25
67 75 80 83 87 88 93 101 109 116 117 119 117 113 108 108 107 102 100 98 95 90 88 83 83 76 62 55 56 59 55 48 50 43 40 42 40 37 33 30 32 31 30 29
57 64 71 74 78 84 92 97 100 104 116 117 117 115 114 110 114 111 107 104 102 97 94 94 91 80 69 60 54 59 62 55 49 39 38 42 48 41 37 35 35 34 32 31
44 50 57 65 70 77 86 94 97 100 103 110 113 116 118 115 118 118 114 109 108 106 99 101 98 87 76 70 65 54 48 54 45 51 51 46 50 49 47 38 40 33 35 34
32 38 44 52 63 72 81 83 86 93 95 98 108 114 123 123 122 123 120 116 112 113 109 105 103 93 82 77 74 64 64 58 59 60 53 41 44 62 65 52 44 38 37 34
31 33 37 43 50 59 72 73 73 84 90 94 100 108 122 125 124 126 126 122 119 116 116 112 107 99 92 88 82 79 73 69 48 51 38 25 41 47 45 54 51 44 42 37
31 32 36 40 45 52 58 63 69 79 83 86 96 103 116 122 124 129 130 127 123 122 118 117 113 109 101 99 94 90 80 83 57 59 58 49 48 45 51 54 51 48 46 40
33 33 32 35 39 42 49 53 61 72 78 78 86 98 105 116 125 129 132 130 129 127 123 121 120 118 110 108 105 101 103 94 75 71 72 72 63 54 51 55 53 50 49 44
34 34 34 35 36 38 42 48 52 62 70 73 77 90 99 106 119 126 133 132 132 129 127 125 125 123 120 117 113 111 108 107 99 86 85 81 77 66 60 57 55 52 50 49
33 36 35 34 32 34 39 46 48 54 63 69 71 80 94 103 111 121 127 133 133 132 130 131 130 128 127 120 118 117 112 109 108 101 93 89 88 85 78 68 62 62 60 57

GFSCGP_250_spd_087.txt.gz
Wind_Speed
65 64 65 68 70 66 66 64 63 59 54 50 46 48 47 45 35 37 31 30 30 29 28 28 25 18 13 9 9 12 10 17 18 14 11 11 10 7 10 11 15 18 22 21
69 68 68 66 66 70 71 69 66 62 59 54 52 49 51 51 50 48 44 38 37 35 33 26 22 16 10 8 12 14 11 15 19 15 13 13 12 7 7 8 13 14 16 18
74 74 69 67 66 65 67 75 72 66 63 63 57 52 52 52 52 51 50 47 42 39 34 27 22 17 12 10 14 16 13 15 19 16 16 13 10 11 8 6 8 8 13 17
78 75 74 71 70 68 67 71 70 70 68 64 61 58 56 55 57 56 53 50 47 41 33 31 26 22 19 16 15 20 17 15 17 18 18 14 10 10 9 4 7 8 10 15
80 79 78 75 73 71 72 72 69 65 64 64 64 60 58 57 61 59 57 53 48 45 37 32 31 28 25 21 16 22 22 18 16 18 18 15 12 10 8 6 7 8 7 10
82 81 82 81 78 76 74 72 72 69 65 62 60 60 57 59 60 58 55 50 48 45 40 32 32 28 23 25 18 23 24 23 21 19 17 14 13 10 8 8 7 7 8 6
86 84 82 85 84 82 80 76 74 72 69 67 64 60 57 55 59 57 53 51 48 46 39 36 34 32 26 24 21 21 27 26 25 22 20 16 13 11 9 7 6 5 6 6
90 89 88 88 90 89 87 82 79 78 75 72 70 65 63 58 53 54 49 43 40 43 43 41 39 33 28 25 21 21 24 29 31 28 24 22 17 13 11 9 7 3 3 5
94 95 93 91 91 90 90 89 86 82 80 79 76 71 66 62 57 55 49 43 41 44 45 48 44 39 32 31 22 17 17 26 32 32 31 26 22 19 14 12 10 8 5 3
94 96 97 97 96 94 92 89 89 87 84 82 81 77 70 66 61 58 55 49 45 49 48 51 45 43 39 35 28 21 20 18 24 32 34 31 28 24 21 19 16 13 10 6
94 95 99 100 101 99 96 92 91 89 89 87 84 83 76 71 67 62 60 56 54 59 52 49 46 42 39 33 29 21 19 22 23 27 36 36 34 32 29 24 21 19 16 13
96 98 100 103 103 101 101 99 96 94 92 90 88 85 79 75 72 68 65 64 57 53 53 52 48 42 40 34 31 25 20 19 23 24 27 32 35 37 35 30 25 23 21 19
92 95 101 101 102 102 102 103 103 101 98 96 92 86 84 79 77 74 71 69 63 56 65 56 55 45 43 35 37 31 27 20 20 23 23 23 28 35 39 36 32 28 26 25
92 91 95 101 102 102 103 103 103 104 103 102 97 91 89 85 81 80 77 74 71 68 66 65 57 55 51 45 43 38 32 29 26 24 23 21 22 28 35 39 37 34 30 29
89 89 89 95 102 104 103 104 106 105 104 104 103 99 94 90 87 83 83 79 78 75 71 70 66 59 56 54 50 43 38 36 32 27 24 25 21 16 17 32 37 36 34 32
96 95 94 96 98 101 106 107 106 107 106 105 106 103 100 97 93 90 85 84 82 83 78 74 69 66 65 60 56 47 42 41 38 30 30 29 28 23 20 19 30 36 33 32
83 89 99 103 103 102 104 107 108 108 107 108 107 105 104 101 99 96 91 89 88 87 85 81 75 71 70 66 60 53 50 48 43 36 35 35 35 32 26 24 22 26 29 29
85 85 86 93 102 107 105 106 107 109 110 109 110 111 108 106 105 104 99 95 93 92 90 88 83 78 74 72 67 61 57 52 45 45 45 40 40 37 32 27 26 28 29 28
75 80 86 89 93 95 99 104 109 109 110 112 112 114 114 110 110 110 108 102 99 98 95 93 92 86 78 77 71 65 59 56 52 48 44 41 38 41 39 38 34 29 29 29
61 68 75 81 88 94 96 98 99 103 110 115 115 117 118 116 115 114 112 110 107 105 103 98 97 93 84 81 78 72 70 63 61 57 51 45 44 42 42 42 43 39 32 27
54 58 61 67 74 81 88 95 98 99 104 109 115 118 120 120 118 117 117 116 113 110 108 105 100 99 92 87 84 80 74 73 71 64 54 48 47 49 45 36 38 47 38 34
48 51 55 60 64 69 78 86 91 97 102 107 107 112 119 121 122 121 123 121 118 116 115 111 106 100 99 94 91 84 78 74 75 63 63 56 58 57 55 45 36 47 43 43
43 46 49 52 57 62 68 74 81 84 90 98 101 98 103 118 122 122 124 126 124 120 118 118 113 109 107 106 98 97 85 72 71 66 66 66 60 63 61 55 52 47 53 58
40 44 47 48 52 54 60 67 71 76 80 85 90 92 97 105 117 123 125 127 128 125 123 122 120 117 112 110 105 101 95 82 73 70 70 79 77 73 63 58 55 56 51 59
37 41 45 48 51 54 56 59 63 64 68 73 76 82 89 96 105 116 126 125 129 129 127 125 125 122 119 118 112 108 101 88 80 77 77 82 81 73 66 59 54 49 50 61
35 36 40 45 49 51 54 55 59 61 61 65 70 73 79 85 95 104 116 127 128 130 130 129 128 127 126 123 119 116 107 100 92 84 84 85 78 75 73 71 63 55 46 58

GFSCGP_250_spd_090.txt.gz
Wind_Speed
70 76 79 73 70 65 62 59 57 53 49 46 42 40 37 36 39 39 39 35 30 20 20 23 23 25 20 17 14 8 10 10 13 13 9 5 1 6 7 14 18 21 22 20
68 72 77 77 74 70 69 66 63 59 56 52 47 45 43 43 45 42 38 30 26 25 23 26 26 26 21 20 16 10 11 8 12 16 11 7 6 2 3 12 13 17 20 23
72 73 72 75 76 76 74 72 66 62 60 60 54 51 49 48 50 49 48 41 34 37 33 32 31 28 23 23 17 16 12 9 13 16 10 7 7 5 2 8 9 12 16 20
74 75 73 72 72 74 79 77 72 67 66 64 62 57 54 54 55 54 52 52 49 45 41 38 34 29 26 24 19 22 16 10 13 18 13 9 6 6 2 4 5 8 13 15
77 77 75 74 74 73 76 75 75 71 69 67 65 63 62 62 59 56 53 52 50 45 44 40 36 36 30 26 22 17 19 16 15 17 15 12 9 6 5 2 2 5 9 12
80 76 77 78 76 78 73 72 72 70 69 70 66 65 65 65 61 58 55 52 50 46 45 42 39 35 28 25 19 16 20 22 19 17 16 13 10 7 5 4 4 1 5 7
82 81 78 79 79 82 79 77 74 71 68 67 66 65 64 64 63 60 58 56 52 47 44 42 38 37 30 26 20 15 18 24 23 19 16 14 10 8 6 5 3 3 3 3
86 85 84 83 81 84 83 81 78 74 72 71 69 65 63 62 62 59 57 56 54 51 46 44 39 37 32 30 25 18 16 19 26 24 19 17 14 12 11 8 6 3 2 1
92 91 89 88 86 85 85 84 83 79 76 74 72 69 67 62 59 55 53 53 53 51 49 47 44 36 29 34 28 20 15 19 25 28 24 21 18 15 13 12 9 5 4 2
97 96 94 92 91 89 88 87 87 85 81 78 74 71 68 65 61 58 55 52 51 48 50 47 44 36 31 35 29 23 22 22 22 29 29 26 22 20 18 16 14 10 7 5
99 101 100 98 96 95 93 91 89 88 87 84 80 76 71 68 64 62 61 59 56 50 47 46 41 36 35 37 33 29 29 24 25 28 31 31 30 26 24 21 19 16 13 11
102 103 103 103 102 100 98 95 93 91 89 88 86 82 77 72 69 67 65 63 60 56 48 46 43 38 42 43 34 34 29 23 23 23 25 29 29 31 31 28 25 22 20 18
104 104 103 103 103 103 103 101 98 96 94 92 88 85 83 79 76 74 71 68 65 61 56 49 46 46 47 47 37 36 31 28 23 22 22 23 27 31 32 33 32 29 24 23
102 104 104 102 100 102 104 104 103 101 99 96 94 91 88 84 82 80 77 75 71 68 64 56 55 51 46 50 47 40 37 32 28 23 22 21 24 27 28 29 33 33 31 28
97 97 102 104 103 102 102 104 104 104 104 103 99 95 92 88 85 84 82 80 78 73 72 65 59 58 56 54 47 46 43 39 36 32 27 25 21 20 22 22 28 31 31 33
92 94 99 103 104 104 105 105 105 106 107 106 104 102 97 94 90 87 87 85 83 81 78 75 67 65 62 62 58 49 47 45 44 39 33 27 24 20 18 20 20 22 26 29
91 95 96 99 102 105 106 105 106 107 107 109 107 106 103 101 98 94 91 88 87 86 85 81 77 70 71 69 65 62 56 53 49 44 39 32 29 26 22 20 19 20 19 20
85 88 96 99 100 101 101 105 108 109 109 109 110 110 108 106 104 102 98 95 91 90 89 88 84 80 75 73 71 70 65 61 57 51 48 39 34 31 26 27 26 25 22 19
85 85 88 91 98 102 102 103 107 109 110 111 114 113 112 111 109 106 106 102 98 93 92 92 91 87 83 80 77 74 75 69 65 59 57 46 43 37 31 34 32 30 24 25
77 83 87 89 91 92 95 102 108 108 110 112 115 117 117 114 112 111 110 108 107 103 97 95 95 95 92 86 83 78 77 74 70 65 59 51 51 45 38 39 39 36 33 32
68 75 80 84 88 91 94 95 97 102 110 114 116 118 119 120 118 116 115 113 112 110 106 100 99 100 98 94 91 89 82 80 74 69 63 57 54 49 47 43 38 43 40 40
61 66 71 75 79 84 89 93 97 98 98 103 114 117 118 122 122 122 118 116 116 115 112 109 105 104 103 100 97 95 89 85 79 76 69 64 58 55 52 50 47 42 43 45
49 57 64 68 71 74 79 85 89 93 97 100 102 104 113 118 121 124 122 122 119 120 118 114 111 109 108 106 104 99 95 89 85 83 80 75 69 64 61 56 53 50 49 41
44 49 55 61 66 70 73 77 81 84 88 93 98 102 103 105 113 122 122 123 124 124 124 121 116 115 113 112 108 106 102 96 93 91 87 80 75 73 67 64 63 55 55 52
39 46 50 56 60 65 69 75 79 83 84 84 88 94 99 102 104 105 112 123 123 126 127 126 123 117 119 116 113 112 108 103 98 96 93 89 81 77 76 70 67 62 63 56
39 42 45 50 54 60 63 68 73 79 80 80 81 84 88 93 97 99 100 107 121 127 128 128 127 123 121 121 119 117 116 110 105 99 98 97 96 86 80 74 71 71 68 64

GFSCGP_250_spd_093.txt.gz
Wind_Speed
69 79 79 77 71 65 60 57 54 50 46 41 39 38 38 36 35 30 29 28 27 25 20 23 15 17 21 22 23 22 17 11 10 10 4 7 8 12 13 17 20 24 26 28
67 73 80 78 75 71 66 63 59 56 52 48 46 44 43 41 37 32 29 30 29 28 27 22 20 20 19 21 22 24 17 16 9 8 4 6 8 7 8 11 17 19 25 25
71 68 72 79 79 76 74 69 65 61 57 54 52 50 49 48 44 39 36 37 34 30 25 24 24 25 23 19 22 22 19 18 13 6 4 4 7 5 4 7 13 15 18 22
74 71 69 71 76 80 78 74 71 66 63 60 57 56 53 53 50 43 39 37 39 31 28 30 32 34 27 22 23 22 22 15 16 10 6 5 3 5 1 5 9 11 13 16
75 75 74 72 73 78 83 79 72 71 69 67 63 60 59 56 52 47 43 42 41 39 38 40 42 38 30 24 23 22 20 15 14 15 8 8 5 2 2 1 4 9 10 14
78 76 76 76 74 74 75 79 76 76 74 72 70 66 64 60 55 52 50 48 44 43 39 41 41 36 33 26 21 19 16 14 15 17 10 9 7 5 4 2 2 5 6 12
82 78 77 79 78 77 74 73 74 73 72 73 73 71 69 65 59 57 55 53 50 46 42 41 40 38 34 25 19 19 18 14 14 18 15 11 9 8 6 4 2 3 5 8
85 83 81 80 79 79 78 76 74 71 70 70 72 70 67 66 63 60 58 56 55 51 48 46 43 41 35 30 22 20 20 18 11 17 18 16 14 12 10 6 3 1 2 6
90 87 85 84 81 82 81 80 78 76 74 73 71 72 70 66 65 61 59 57 57 53 50 47 43 38 35 32 26 21 23 19 15 17 19 20 17 14 13 11 7 3 1 1
94 93 90 89 87 86 82 83 82 79 78 76 73 70 67 65 62 60 58 57 54 53 50 48 47 42 37 34 30 22 23 19 18 16 21 24 22 19 17 15 12 8 4 2
100 98 95 93 91 90 88 84 83 82 81 80 78 75 72 69 66 62 59 57 55 50 46 44 44 41 39 36 34 28 25 22 21 21 21 26 28 24 21 19 16 13 9 6
104 102 99 97 95 93 91 89 87 84 82 83 82 81 77 74 71 69 66 62 60 55 50 46 43 40 38 38 37 34 32 30 24 20 22 22 28 30 27 24 21 18 15 11
107 105 103 100 99 97 96 94 91 90 88 84 85 84 81 80 77 74 72 68 65 62 57 53 49 44 41 38 40 39 38 35 30 24 24 22 26 33 32 30 27 24 21 18
108 107 105 104 102 102 100 98 97 95 93 91 88 85 85 85 83 81 78 75 71 67 63 59 56 52 47 42 39 42 43 40 37 30 29 28 29 31 34 31 30 29 28 26
105 107 105 104 104 104 104 104 102 100 97 96 93 90 88 87 86 86 83 80 77 72 68 64 62 58 55 49 44 45 44 41 39 37 34 32 31 30 28 28 32 33 32 31
102 103 106 107 107 106 105 106 106 105 103 101 99 96 94 91 89 88 88 87 84 79 75 70 68 64 59 55 52 50 47 47 42 41 38 35 32 29 29 26 28 29 30 32
97 101 103 105 108 108 108 108 107 107 107 106 105 102 100 97 95 92 92 90 89 86 83 77 74 72 68 63 59 56 53 52 46 46 44 41 36 31 29 28 24 25 25 24
82 91 100 102 105 107 107 109 109 110 109 108 109 108 106 104 101 98 97 94 92 90 89 86 82 78 75 72 66 63 60 58 53 40 49 52 44 39 34 31 29 27 23 19
81 83 86 94 100 102 106 109 111 113 113 112 111 110 109 109 107 105 104 101 97 95 92 90 87 85 82 79 77 70 67 65 65 62 68 59 47 44 41 37 34 30 26 23
79 82 84 87 88 94 101 104 108 111 113 114 114 113 112 111 111 109 108 106 104 102 97 94 93 90 88 85 83 81 74 72 72 71 70 64 52 49 48 45 41 35 28 30
68 74 81 85 86 87 90 96 104 107 108 114 115 116 116 115 114 113 112 112 111 108 106 102 98 96 93 92 89 87 83 78 77 76 73 69 61 56 55 52 45 39 40 36
65 69 71 75 80 85 88 90 93 97 104 110 112 115 117 118 119 118 117 115 113 113 112 108 104 101 99 96 95 94 91 86 84 82 80 77 69 63 62 61 56 45 43 42
55 61 65 69 71 75 80 87 91 92 94 97 104 112 115 117 121 121 121 120 118 116 115 113 110 107 105 104 101 99 97 95 90 88 86 84 81 74 69 65 66 55 49 46
49 56 59 62 66 70 73 77 83 88 92 95 97 99 104 112 117 120 120 123 123 121 120 118 115 114 112 110 108 105 104 101 98 95 93 90 87 82 79 73 72 66 57 55
46 49 53 59 61 65 69 72 76 79 84 90 95 101 103 106 109 113 119 122 122 122 123 122 121 119 117 113 114 112 110 107 104 101 99 97 92 85 83 80 77 70 67 63
40 46 50 52 56 63 64 68 73 76 79 82 88 93 97 99 100 103 107 110 115 122 123 122 124 123 123 120 116 117 117 113 110 108 104 101 97 92 88 86 81 78 71 71

GFSCGP_250_spd_096.txt.gz
Wind_Speed
65 78 80 78 71 64 62 57 53 48 43 39 39 40 39 39 37 35 31 29 27 24 19 18 17 16 16 18 24 22 23 20 14 10 9 12 12 15 17 20 22 28 28 30
68 69 80 80 75 71 66 63 58 55 49 45 43 43 41 41 38 34 33 25 20 19 19 22 20 19 18 20 20 22 19 21 15 8 6 10 10 11 12 14 17 22 24 26
73 68 71 80 81 78 73 69 66 60 55 52 50 46 43 42 39 36 30 26 24 23 20 22 23 19 20 22 21 20 18 17 15 8 3 6 8 7 8 8 13 17 19 21
75 72 68 73 82 82 78 73 72 68 64 59 54 53 50 45 42 39 35 30 27 28 26 24 25 24 26 25 21 19 15 12 12 7 3 0 4 4 3 5 9 12 16 20
78 76 74 72 73 81 82 78 74 73 70 68 62 59 53 50 47 43 40 37 33 33 30 31 29 29 27 30 29 19 15 8 7 7 7 4 1 1 1 4 5 9 12 16
78 78 77 75 71 75 80 80 77 77 77 72 68 64 60 55 53 48 46 44 41 38 36 34 33 36 33 31 26 21 14 11 6 3 7 7 5 3 3 2 3 3 6 11
81 79 79 79 77 71 73 76 78 78 78 77 73 71 65 61 57 54 51 48 46 43 40 39 36 34 33 29 24 19 16 11 10 7 5 8 10 7 6 5 3 4 3 5
85 82 81 81 79 75 73 74 75 74 75 78 74 71 68 65 62 59 57 53 50 46 44 42 39 37 35 30 29 24 18 16 11 11 8 9 14 12 9 7 5 5 5 3
91 85 83 83 82 82 80 76 75 73 73 76 80 71 72 66 63 61 59 56 54 51 48 45 42 42 39 35 33 27 20 18 14 13 12 11 14 15 14 12 8 5 5 5
94 90 88 87 85 84 82 82 78 78 76 75 74 74 70 68 65 63 61 59 56 53 50 48 46 44 41 38 34 30 26 22 17 17 14 15 18 19 16 14 13 9 7 6
100 96 94 93 89 85 84 83 84 83 79 79 74 73 68 68 66 62 61 63 60 57 55 53 52 45 45 46 42 38 30 26 23 21 16 17 22 22 21 18 15 12 11 9
106 102 97 94 93 91 90 86 86 84 83 84 79 74 73 70 69 67 63 62 60 58 55 51 49 43 36 36 37 36 35 32 31 26 22 21 22 26 26 24 21 16 14 12
108 106 102 99 96 95 93 91 88 86 85 85 82 79 79 77 74 72 69 66 64 60 57 53 50 46 42 41 37 34 34 33 34 32 29 26 25 29 30 29 27 24 20 17
110 109 108 106 103 98 96 94 92 92 89 87 88 81 83 81 79 77 75 73 69 66 62 58 54 51 48 42 37 37 33 37 39 35 32 30 30 28 31 32 33 31 28 26
108 110 110 109 105 102 101 98 96 95 92 91 89 83 84 86 85 83 81 77 74 71 67 63 59 56 53 50 52 45 40 38 42 41 38 36 33 31 30 32 35 34 34 32
105 108 109 109 108 107 105 103 101 100 99 98 89 92 88 87 86 87 86 84 81 78 74 70 66 62 60 57 55 50 47 44 46 47 44 41 38 35 31 31 32 35 36 35
97 103 109 111 110 110 109 108 106 103 103 101 99 94 95 94 92 90 88 88 87 84 81 78 73 69 66 63 60 57 53 49 48 48 45 43 44 40 36 34 32 34 35 33
83 91 103 107 111 114 112 108 109 109 108 107 101 102 101 98 97 95 93 91 89 87 86 84 81 77 73 69 66 63 59 55 52 52 50 46 49 45 39 36 36 34 32 30
83 84 87 98 108 110 111 112 113 112 112 111 109 107 105 103 103 100 99 97 95 92 90 88 87 85 81 78 73 69 66 62 58 56 53 54 51 48 44 40 40 35 33 32
80 83 86 86 94 105 109 111 114 115 115 113 112 112 111 110 110 107 104 102 101 99 97 95 92 90 88 86 82 78 74 70 66 63 59 57 57 52 50 46 44 40 37 36
70 77 83 87 89 91 96 109 112 113 115 116 117 116 115 115 114 110 113 110 108 106 103 102 100 96 93 91 89 85 82 78 73 70 67 64 61 57 49 59 57 50 44 42
66 70 74 81 87 91 91 94 103 111 113 115 116 118 119 118 118 116 115 114 113 112 111 108 106 103 100 97 94 92 90 87 83 78 76 73 71 67 68 66 63 56 52 49
55 64 70 74 78 84 89 92 95 96 102 112 116 116 118 119 121 121 121 118 117 115 114 113 112 110 107 104 101 98 95 93 91 88 83 81 79 78 75 74 73 58 58 56
50 52 60 68 72 76 79 86 92 95 97 99 104 112 118 119 120 121 124 122 122 122 120 118 117 116 115 112 108 105 101 98 96 94 92 88 87 85 84 83 80 73 65 61
46 49 52 56 64 70 74 78 82 87 93 97 100 103 106 110 116 120 121 122 124 127 127 126 123 121 119 116 114 112 110 105 101 99 97 95 93 91 89 89 85 80 74 68
43 44 46 52 56 60 66 71 75 79 84 89 94 99 103 106 108 110 114 120 125 127 125 126 126 124 123 121 117 116 115 113 109 105 104 102 98 97 96 93 91 87 82 75

GFSCGP_250_spd_099.txt.gz
Wind_Speed
67 71 75 76 74 68 61 56 53 49 43 38 35 38 28 36 32 36 33 30 28 29 24 21 15 15 19 15 20 23 21 20 19 13 13 15 15 21 20 23 25 26 28 31
69 67 71 75 75 69 67 61 55 53 47 40 40 38 32 33 39 40 36 33 29 23 20 14 14 12 19 16 17 21 20 17 14 14 10 13 15 16 17 19 20 21 24 26
75 72 69 70 76 76 72 69 63 60 55 50 46 43 46 42 38 38 36 32 27 25 20 16 15 12 14 18 17 19 20 16 10 11 5 8 12 12 15 16 17 19 22 23
78 74 70 68 72 79 77 74 69 63 61 57 52 48 47 46 49 44 38 36 30 23 25 21 18 18 13 18 21 20 19 15 11 6 5 4 7 8 10 11 12 15 18 21
78 76 75 73 69 76 82 76 73 73 69 62 57 54 51 47 45 43 40 37 34 28 25 25 24 23 18 18 22 24 19 14 9 6 4 3 3 3 5 8 9 12 15 16
84 81 79 78 74 71 77 76 76 75 72 69 64 60 56 52 50 47 44 39 39 36 32 29 28 25 21 21 23 23 15 13 9 6 2 1 3 1 2 5 5 8 11 12
83 82 81 77 74 72 67 76 79 79 75 73 71 69 64 61 54 49 49 45 42 42 38 35 33 28 25 22 23 21 15 13 13 8 5 4 4 4 3 3 3 4 6 8
86 86 84 82 80 78 73 71 74 75 77 77 79 75 70 65 58 56 53 52 50 46 43 39 37 33 30 26 23 24 20 18 12 12 8 8 6 8 7 5 4 2 2 3
90 91 86 84 81 78 78 73 74 78 79 82 82 73 68 68 65 62 59 58 55 52 48 45 43 36 34 31 25 25 25 23 18 14 10 9 10 11 10 7 6 4 4 4
99 92 88 89 86 85 83 82 79 74 76 77 82 79 81 73 73 69 65 63 60 56 52 48 47 40 36 34 33 31 28 25 22 20 16 12 16 15 14 12 10 7 5 6
98 93 92 89 88 88 86 86 82 79 79 77 76 74 68 72 72 72 70 68 63 59 55 51 47 40 37 29 35 37 33 30 29 27 23 18 18 20 19 18 16 13 11 9
104 100 97 99 91 89 87 86 87 86 83 79 80 77 74 76 75 74 72 67 64 61 57 55 48 46 33 21 30 44 32 33 35 33 30 26 22 24 25 23 22 19 17 14
108 106 102 95 94 93 91 90 89 87 89 85 84 75 74 73 74 73 71 70 67 61 58 54 53 50 42 34 37 34 33 33 33 34 30 31 30 26 28 29 27 25 24 21
110 110 103 109 106 101 96 90 91 88 88 86 90 84 78 77 75 72 71 70 70 68 63 57 54 52 47 41 38 43 36 28 33 39 35 34 33 30 26 31 33 31 29 28
109 111 111 108 103 100 96 95 92 92 90 93 98 86 81 81 79 77 76 73 70 66 64 61 59 55 50 45 58 49 49 45 42 40 36 34 35 32 29 30 35 36 34 31
105 110 111 110 108 106 103 101 98 97 97 98 87 82 81 82 84 84 83 79 75 72 69 66 63 60 57 55 54 51 47 44 42 45 40 39 36 35 33 32 34 38 38 35
89 107 111 111 114 111 108 106 105 104 103 104 94 90 90 90 90 89 86 84 82 79 76 74 71 68 65 61 58 55 53 47 49 43 40 39 41 41 37 38 36 37 38 39
86 92 103 112 114 114 115 109 108 106 105 107 99 93 97 95 93 92 90 89 87 85 83 80 77 74 71 68 65 61 60 55 55 53 47 45 46 46 45 43 41 40 39 37
84 87 94 106 110 116 115 114 113 114 111 112 105 101 104 101 99 97 95 93 91 89 87 85 83 81 78 75 72 69 67 64 61 62 56 51 49 51 54 49 45 45 42 39
82 86 88 93 104 112 123 117 116 117 116 114 112 109 108 107 106 104 99 97 95 94 91 89 88 86 84 82 80 77 75 71 68 65 63 59 56 52 52 56 51 48 45 41
75 83 87 91 91 105 111 112 117 120 124 117 118 116 114 114 113 102 104 104 104 102 100 97 94 90 88 87 86 84 82 79 76 72 69 65 63 59 56 56 53 50 48 47
68 74 81 88 92 99 92 100 116 119 120 119 122 120 120 119 119 114 112 112 110 108 106 104 101 98 96 93 90 88 87 85 83 80 77 73 68 66 64 61 59 54 54 50
61 68 72 79 86 90 91 96 100 109 117 120 122 124 124 124 123 120 119 118 116 114 112 110 108 106 104 101 99 96 93 90 87 87 85 82 77 73 70 69 64 62 57 52
55 61 67 73 77 82 86 93 98 101 101 107 115 120 124 125 126 126 124 124 123 121 119 117 115 113 112 109 106 104 101 98 95 92 90 88 86 83 78 75 73 69 64 60
53 55 62 65 69 76 78 83 90 98 101 103 103 106 116 123 124 126 128 128 127 126 125 124 123 121 120 117 115 112 109 105 102 100 97 94 92 91 88 83 81 78 75 70
49 53 54 58 60 67 72 77 83 87 93 100 103 105 106 108 113 120 126 127 128 129 129 129 128 127 127 126 122 119 116 113 110 107 104 102 99 96 94 92 88 87 84 81

GFSCGP_250_spd_102.txt.gz
Wind_Speed
70 65 63 71 73 68 64 59 57 51 43 38 31 33 29 32 33 33 29 25 21 23 25 24 23 17 16 17 18 25 28 19 16 19 20 19 20 22 23 22 24 27 28 26
73 69 66 69 75 72 68 64 58 53 45 43 37 38 26 25 34 32 30 26 25 26 29 28 22 13 12 16 17 21 26 22 16 16 14 18 17 18 22 22 23 24 25 25
78 78 72 66 71 74 71 65 62 33 56 46 43 41 34 22 12 26 37 34 29 30 28 26 23 14 11 13 19 21 25 21 20 14 12 8 13 17 18 20 19 20 22 23
81 82 76 70 66 73 76 76 72 69 56 52 50 46 40 38 10 30 33 43 37 32 30 20 18 12 10 13 17 19 24 20 17 13 10 12 11 10 15 15 18 17 19 21
81 82 80 75 69 71 76 80 75 69 64 58 53 49 42 45 25 37 27 37 33 30 33 26 21 14 10 13 15 18 20 19 15 16 15 8 12 6 12 6 12 16 16 18
84 84 82 78 76 72 77 78 76 73 71 64 59 54 48 45 62 61 61 47 35 36 33 27 23 21 13 13 13 15 16 16 14 14 16 8 3 3 5 4 8 10 11 13
88 84 82 83 81 79 72 72 77 78 76 68 67 64 58 60 46 53 60 55 47 40 37 36 31 24 19 16 14 16 15 15 15 12 12 10 4 3 4 3 4 4 6 10
93 88 84 85 81 81 74 70 71 79 78 75 74 72 66 64 63 58 54 44 40 39 31 21 30 29 22 20 17 16 14 16 17 18 11 8 8 8 12 9 2 2 5 5
100 93 92 85 86 82 76 74 70 75 82 85 86 73 71 69 65 57 63 58 46 43 44 33 39 28 25 26 25 18 17 18 18 20 15 11 10 12 11 8 6 3 3 5
105 97 94 91 91 81 82 79 79 75 80 87 85 79 79 73 73 71 69 66 59 55 42 44 42 40 32 26 33 24 17 23 20 19 19 16 15 14 16 14 9 6 5 7
109 100 91 92 89 88 86 82 79 79 77 79 82 84 78 78 79 77 76 72 66 61 56 51 43 42 34 27 20 23 29 38 26 19 21 20 18 20 19 19 15 12 12 13
110 107 102 96 92 91 90 87 88 85 75 77 79 79 82 86 90 84 82 76 72 69 63 61 53 48 39 34 27 38 30 22 27 21 23 22 23 21 24 22 22 19 19 18
106 106 102 97 94 91 88 89 88 84 85 85 83 79 82 91 89 86 83 78 74 71 67 65 59 55 50 43 40 33 24 37 25 25 25 25 25 25 25 27 26 26 25 24
99 110 109 104 105 100 98 94 92 90 89 86 93 85 79 81 80 84 86 84 80 76 71 67 63 60 57 52 48 41 44 49 32 17 11 31 30 28 26 29 30 30 29 26
97 108 113 109 106 100 96 96 97 93 90 98 100 90 83 78 75 73 74 78 80 76 72 69 68 64 62 59 55 52 54 58 47 40 34 38 37 42 34 33 32 34 34 32
89 104 111 110 105 102 99 99 96 95 96 105 97 93 87 81 76 75 74 73 73 73 72 69 65 64 62 61 58 58 58 60 59 56 54 45 34 40 40 39 36 35 37 36
86 94 104 110 112 109 107 102 100 99 102 110 97 94 90 86 84 82 81 78 76 74 72 68 65 63 61 59 61 61 60 59 60 58 58 52 45 38 35 39 38 37 37 38
80 87 96 106 114 114 106 110 105 104 107 111 103 97 95 92 89 87 87 87 84 81 76 73 71 69 66 64 63 62 60 57 59 64 62 56 51 51 42 38 41 40 39 38
80 83 86 97 109 112 115 110 111 111 113 116 101 97 97 98 96 95 92 93 92 88 83 80 77 74 71 70 68 66 60 62 70 76 69 61 56 52 49 50 45 42 40 39
76 82 84 87 98 110 120 118 116 114 116 114 107 105 103 102 103 99 97 94 92 89 87 86 84 81 79 77 76 73 71 69 74 78 80 67 59 56 53 50 53 49 47 47
76 82 83 86 89 106 116 117 115 116 120 118 113 111 110 107 105 101 96 96 97 96 93 91 89 86 85 84 82 81 79 77 76 75 74 69 65 62 63 60 60 58 58 58
72 79 84 87 90 99 104 109 116 120 121 121 119 118 117 114 108 109 105 107 105 103 101 98 94 92 91 89 87 86 85 85 83 80 78 76 73 70 69 69 66 63 60 58
65 75 78 85 89 93 94 94 97 112 122 124 122 124 121 120 120 117 113 112 110 108 106 104 102 100 97 96 94 92 91 89 89 87 85 83 80 78 76 74 72 68 66 63
59 64 73 79 84 89 93 92 97 103 110 120 126 126 127 127 125 121 120 119 117 116 114 111 109 107 105 103 102 100 97 95 94 92 91 90 88 86 84 80 78 74 71 69
57 60 64 70 75 82 87 90 94 99 103 105 112 119 127 130 131 131 128 126 125 122 121 119 116 115 113 111 109 107 106 103 101 99 97 95 94 93 92 89 85 82 78 75
52 56 61 66 67 70 78 84 89 94 100 102 107 110 112 120 126 129 131 131 132 129 128 126 125 123 121 119 117 115 113 110 109 107 105 103 101 98 96 94 92 89 87 84

GFSCGP_250_spd_105.txt.gz
Wind_Speed
74 69 64 62 70 67 62 60 56 47 43 40 31 24 27 30 25 27 26 25 21 14 15 15 15 18 16 17 23 28 23 19 16 20 18 20 21 23 21 26 27 30 30 28
74 71 70 67 70 72 65 60 53 43 44 42 37 31 28 30 29 31 28 27 23 18 20 17 11 11 13 14 18 24 23 20 14 12 14 17 16 20 23 23 26 27 29 28
77 79 76 72 69 71 69 63 58 51 42 37 45 39 35 33 33 34 29 31 30 28 23 18 9 9 11 10 14 19 21 19 16 12 14 9 14 17 19 19 21 23 25 27
81 82 77 75 71 65 72 71 60 59 56 48 47 46 37 31 30 30 21 30 29 30 25 19 8 5 4 10 12 15 17 18 17 12 11 12 10 13 13 15 18 18 22 24
85 83 80 77 74 69 69 74 72 65 63 52 55 48 42 40 35 29 21 27 34 32 38 20 11 7 8 5 9 13 13 15 18 16 11 6 5 6 7 10 12 15 18 20
89 87 83 79 79 74 75 77 73 71 68 67 58 48 48 42 38 14 28 19 33 30 28 20 17 12 12 10 5 7 11 11 12 12 10 6 4 9 6 7 10 14 13 15
90 87 85 83 81 79 78 70 76 76 71 58 63 56 51 48 42 19 24 30 30 30 25 18 21 20 18 15 10 8 8 12 12 11 7 5 2 1 1 6 6 6 9 9
92 95 88 84 79 84 82 75 72 77 77 75 68 53 49 51 54 36 27 30 39 44 39 33 27 27 27 21 17 14 11 13 13 14 11 7 5 5 8 9 6 3 3 2
88 95 99 90 87 90 84 81 75 79 84 87 82 72 66 59 60 57 55 38 33 42 38 30 27 29 28 27 18 16 19 16 12 16 13 12 9 5 10 11 9 3 3 3
84 97 98 94 98 89 89 84 81 77 79 85 78 77 73 70 70 72 68 57 42 48 43 35 31 17 27 22 17 14 20 24 26 17 10 11 13 11 8 11 11 9 6 8
77 91 102 100 97 91 90 86 84 80 78 84 85 82 77 76 76 76 79 77 78 58 41 37 36 38 28 23 23 16 15 18 17 19 16 15 11 13 11 10 11 15 12 13
76 76 96 99 95 93 91 90 90 87 83 86 85 84 82 83 82 80 76 77 73 63 58 50 60 54 47 41 30 23 19 26 30 27 22 22 17 13 13 13 16 16 17 15
81 86 92 105 105 99 94 93 94 92 94 94 87 88 91 91 91 88 87 85 82 76 69 67 65 62 59 52 46 36 26 20 37 37 31 25 26 27 18 15 18 20 17 19
88 88 94 99 107 103 96 92 92 95 95 97 90 87 96 100 98 95 92 88 83 79 73 67 72 65 61 58 53 42 32 27 30 22 24 19 26 28 18 23 17 20 22 21
84 88 91 99 106 106 101 95 95 99 98 100 91 88 91 98 100 96 94 90 86 82 77 75 78 76 70 64 60 51 40 38 36 36 37 26 28 26 21 29 27 27 24 23
81 87 92 95 96 102 104 100 99 101 105 104 94 93 90 90 91 97 97 91 89 87 83 82 79 78 73 68 65 58 52 51 45 41 40 36 22 24 24 29 35 33 29 28
79 87 91 91 93 103 104 102 103 103 108 101 95 97 97 93 89 85 87 90 96 93 89 87 85 83 80 76 72 66 62 60 59 59 50 44 41 39 33 32 33 27 26 27
77 85 91 91 95 98 105 110 104 105 109 105 98 97 97 97 96 92 85 82 83 87 89 90 89 87 86 83 80 75 71 71 70 68 70 68 60 58 59 59 48 33 23 25
74 81 88 89 93 99 108 113 113 111 111 109 103 101 100 99 96 91 91 91 88 87 86 86 83 82 81 80 79 75 73 74 73 74 74 72 72 68 63 58 57 46 34 32
71 79 84 88 89 97 113 115 108 111 113 110 106 104 101 101 101 100 99 95 92 92 91 86 82 82 81 79 76 73 71 70 74 74 77 78 77 73 70 67 62 56 53 47
71 78 82 86 90 98 102 105 112 119 123 116 108 109 107 106 105 104 102 97 96 97 96 93 89 87 84 81 78 75 73 72 72 78 80 82 84 77 75 73 72 68 63 61
67 76 81 84 89 95 94 101 111 116 118 116 112 113 110 109 109 107 106 104 103 102 100 98 98 94 91 88 85 82 79 78 76 76 78 86 83 75 76 76 79 75 66 66
62 71 81 85 87 90 89 91 100 114 117 118 117 117 117 116 113 112 110 110 111 109 106 104 103 100 97 96 94 91 88 86 84 81 80 82 86 82 78 76 80 85 78 72
58 61 74 80 85 87 87 91 95 99 110 120 122 122 123 121 118 117 121 113 112 112 109 108 107 105 104 102 100 97 96 94 92 91 89 89 87 84 87 91 88 86 82 82
55 58 66 73 81 84 87 90 93 97 101 108 116 124 125 125 125 125 121 119 118 116 114 113 111 110 110 108 105 103 102 100 99 98 96 95 94 93 91 89 89 89 90 85
54 56 60 66 68 76 82 87 90 95 99 103 108 117 124 128 130 129 129 126 125 124 123 120 118 116 114 113 112 109 108 106 105 104 103 102 101 100 99 97 95 93 91 88

GFSCGP_250_spd_108.txt.gz
Wind_Speed
72 71 69 68 64 68 66 57 58 49 48 37 38 32 25 22 26 22 30 25 22 16 11 15 15 13 12 14 19 20 19 16 14 13 19 22 24 26 26 29 31 32 32 29
76 75 74 70 68 65 68 60 57 56 56 50 43 38 31 25 29 26 27 22 25 21 15 15 13 11 7 10 15 16 18 16 15 14 15 16 20 23 23 21 27 29 31 31
78 82 77 74 73 68 68 66 62 60 56 53 51 45 38 30 33 28 30 28 29 25 18 18 20 7 4 10 12 14 14 15 14 11 8 14 13 16 19 19 23 26 27 27
84 82 80 78 74 72 65 73 69 65 61 54 51 48 45 35 33 31 31 33 28 22 20 26 20 6 2 5 9 12 13 15 14 12 7 8 9 11 13 15 18 22 23 24
87 84 83 81 80 75 74 71 75 69 63 62 54 52 51 41 37 37 42 36 26 23 20 30 16 14 9 3 4 7 10 12 12 13 12 10 9 9 10 13 13 16 18 21
80 84 84 85 85 80 77 71 74 74 68 63 60 53 53 48 39 37 36 35 20 22 23 28 24 25 17 10 7 6 6 9 9 11 12 9 6 4 6 7 9 12 14 15
80 84 86 86 86 86 79 75 70 76 74 71 64 53 51 53 45 40 31 37 29 27 29 31 32 22 15 13 14 11 9 9 7 8 9 8 8 10 2 5 9 7 10 8
73 81 88 88 86 88 83 79 74 71 79 77 67 58 57 49 47 48 41 29 32 32 37 36 33 28 21 19 20 18 13 13 13 10 9 10 10 13 12 6 6 6 10 6
68 74 87 92 91 90 88 83 79 75 77 79 73 68 66 59 53 46 46 42 40 40 43 39 31 31 26 27 20 23 18 17 15 12 14 10 7 13 16 13 8 4 4 2
65 68 79 89 94 97 95 87 86 81 77 79 79 73 70 65 55 50 41 41 41 38 34 45 29 35 30 25 21 22 21 15 12 6 12 19 13 7 12 15 14 7 6 8
65 67 73 84 91 95 93 91 89 85 83 78 81 82 77 77 66 60 53 50 51 48 39 35 40 38 31 23 20 23 22 19 13 7 4 9 17 20 12 11 17 15 10 10
72 74 76 74 88 96 96 95 94 91 87 83 82 84 83 80 74 72 68 57 59 59 60 44 43 37 38 32 26 28 26 21 11 11 16 16 9 14 21 24 13 14 17 15
79 79 77 76 84 94 98 99 95 95 94 89 85 88 83 79 73 75 79 71 73 65 59 62 54 51 43 35 36 33 32 26 18 20 21 26 16 18 13 21 25 18 12 18
84 83 79 80 80 84 101 101 98 99 98 94 90 86 86 90 89 84 79 78 85 80 76 75 57 53 56 54 50 51 47 33 26 23 22 24 27 25 17 19 20 20 22 17
84 81 83 85 84 81 88 101 102 101 101 99 94 87 96 94 93 92 86 87 89 85 84 72 68 61 54 52 52 55 51 45 33 29 25 21 23 28 25 22 21 20 18 20
83 84 86 86 85 82 81 96 103 107 105 101 99 93 92 97 99 99 96 91 92 92 91 85 82 78 74 69 61 61 61 58 47 41 33 35 29 31 30 28 24 21 25 25
75 88 94 88 85 89 88 89 106 112 107 104 100 97 95 94 98 103 103 98 94 95 97 95 91 88 83 85 73 74 73 70 62 50 45 41 42 39 38 35 32 28 24 28
66 78 90 102 99 94 91 91 100 113 109 106 102 100 100 98 97 99 106 102 99 100 98 96 93 88 89 89 84 82 77 77 73 61 54 49 44 41 42 36 40 41 33 34
60 71 82 87 89 96 97 96 98 107 110 106 105 103 102 103 100 99 101 106 105 106 106 102 99 97 99 95 94 89 81 81 83 74 66 59 54 52 52 43 41 41 46 43
58 65 74 82 87 99 101 102 102 101 108 110 109 107 104 103 105 103 102 103 106 109 108 109 106 105 104 104 101 97 92 89 87 83 78 72 64 63 63 61 53 54 56 56
56 64 71 79 86 92 94 97 102 102 101 109 110 110 109 107 106 106 106 106 105 105 109 114 113 110 109 108 106 104 99 95 92 90 86 81 78 75 78 75 70 68 65 66
55 61 69 74 80 87 92 98 102 101 101 101 115 115 112 112 111 110 110 112 111 110 107 105 108 113 115 113 110 107 104 101 98 96 94 91 89 86 85 89 88 84 82 81
52 60 66 70 75 81 87 92 96 99 102 100 107 118 118 118 118 116 115 115 116 115 113 110 109 106 105 106 106 106 106 106 105 103 100 95 90 90 90 90 90 94 91 86
51 57 64 69 72 78 84 87 91 95 99 102 107 112 121 124 125 123 120 119 118 118 116 114 112 111 110 109 107 105 102 99 97 95 92 90 90 91 92 93 94 96 95 99
49 54 60 65 69 72 78 84 89 91 94 99 105 112 116 124 126 126 126 122 121 121 120 119 118 117 114 112 111 111 108 106 103 100 97 94 91 91 91 96 97 99 99 99
41 48 53 57 64 69 74 79 83 89 94 97 103 108 112 120 124 127 129 127 126 125 125 123 122 120 118 116 115 114 113 112 109 106 105 102 99 97 94 94 95 100 102 102

GFSCGP_250_spd_111.txt.gz
Wind_Speed
74 73 72 70 67 63 65 57 55 56 55 48 36 36 33 28 22 18 21 17 18 17 12 16 13 17 16 10 15 18 18 17 14 17 18 23 28 29 26 28 28 32 29 26
76 78 81 75 69 65 63 62 58 59 59 55 49 33 38 33 27 23 26 22 20 20 14 14 11 14 9 8 12 17 18 18 16 14 18 18 23 23 22 24 26 30 30 28
80 85 80 78 75 67 63 67 65 61 61 61 57 47 46 38 29 27 26 23 24 18 14 19 15 9 8 7 11 15 16 16 16 17 16 15 19 19 21 23 23 25 29 29
85 82 81 80 78 74 70 68 71 66 61 62 59 53 48 42 31 31 29 28 26 21 19 19 17 10 7 8 8 11 11 14 17 18 15 14 14 12 17 19 20 22 22 27
84 84 82 81 83 79 77 71 71 72 65 62 62 61 44 41 34 33 34 29 36 29 23 18 18 14 7 11 12 7 8 11 14 14 14 13 13 14 14 17 19 17 19 21
79 83 83 85 86 82 78 71 70 73 73 67 64 63 65 50 44 37 37 33 33 29 24 21 21 19 14 15 17 10 7 8 10 12 14 13 16 18 12 17 17 16 16 16
77 79 85 88 88 85 81 74 73 73 76 76 69 64 59 57 50 43 45 45 44 25 18 24 19 23 18 20 15 13 10 12 9 10 11 11 12 14 14 18 16 13 13 11
71 75 84 88 90 89 86 80 76 74 76 81 73 67 62 55 56 52 47 50 48 42 24 26 21 20 24 25 16 14 15 15 12 14 10 14 9 10 12 15 15 13 13 12
73 71 76 84 90 92 88 83 81 77 77 76 76 74 65 59 58 58 48 49 45 43 32 28 28 26 26 30 26 20 18 15 13 12 7 9 17 20 8 9 16 14 11 14
68 70 73 80 90 91 91 88 84 81 80 75 76 79 71 64 59 60 56 47 45 36 31 30 30 29 31 34 31 26 19 16 10 10 5 2 5 13 14 11 9 10 13 12
69 70 72 76 85 90 94 92 90 87 86 81 79 79 77 70 63 60 57 54 48 40 28 29 39 34 38 34 35 30 25 18 16 10 8 6 2 8 11 12 13 6 6 13
73 73 73 75 79 87 94 95 91 91 90 86 81 79 80 76 69 63 63 55 55 52 50 41 46 41 41 36 40 33 25 25 19 12 16 11 4 5 3 8 8 16 14 6
74 75 79 80 76 81 89 94 94 93 92 88 84 81 80 80 75 68 67 56 56 56 47 44 45 40 44 44 38 29 26 25 25 20 16 15 9 13 9 7 8 8 14 15
74 78 81 82 79 75 85 91 97 95 96 91 88 85 81 84 82 77 70 64 62 54 56 46 49 52 65 56 42 32 26 20 30 28 30 18 11 15 21 11 12 10 5 7
79 83 85 84 81 80 79 91 95 98 98 96 93 89 86 83 86 84 75 72 69 64 65 58 64 63 63 63 47 44 37 32 43 40 36 25 17 17 25 21 17 22 18 11
81 85 87 85 85 82 83 85 93 96 102 99 96 92 87 85 84 88 84 79 72 74 73 71 69 66 65 61 53 49 52 59 58 50 36 27 21 22 28 25 20 20 21 25
85 86 89 88 87 87 85 87 87 98 103 102 100 98 93 91 88 90 94 93 84 81 81 80 81 84 71 69 65 63 61 62 59 61 50 41 32 29 32 30 32 30 28 31
78 91 92 88 92 91 87 86 89 97 102 104 104 99 96 93 93 92 96 99 97 94 92 90 86 83 77 74 71 72 65 64 66 67 61 60 47 46 41 38 38 37 36 36
67 75 88 95 94 93 92 92 89 91 99 102 104 102 100 96 96 93 96 102 102 97 107 93 89 88 86 87 81 80 78 70 67 68 67 65 65 61 56 54 46 45 40 40
59 70 79 86 99 97 96 95 91 94 94 97 99 104 103 102 97 99 101 108 107 106 111 114 109 100 95 91 90 89 88 87 81 75 76 76 76 72 65 64 58 46 43 46
59 65 71 81 88 97 104 100 98 94 93 95 96 102 109 107 105 104 107 109 113 113 117 114 111 106 105 102 101 100 99 95 98 96 94 87 87 81 72 71 72 59 55 51
55 61 68 71 77 86 96 103 107 99 98 97 97 94 104 113 112 109 110 114 116 118 121 121 117 116 110 111 112 109 106 106 103 100 97 97 94 90 82 79 78 76 64 60
48 55 62 67 70 78 88 97 102 104 102 98 100 97 98 106 117 116 116 117 120 121 127 129 127 123 117 116 117 116 117 118 115 112 108 103 99 100 93 85 84 82 81 76
48 49 57 62 67 72 78 86 91 100 105 103 102 101 103 104 113 122 122 121 122 124 126 126 127 127 127 128 126 124 123 120 118 116 112 109 103 104 102 97 98 93 92 90
43 46 50 55 61 68 75 80 84 89 98 104 106 108 109 110 112 119 127 129 127 128 129 130 130 129 126 124 123 126 127 127 127 124 121 117 114 113 112 110 107 104 101 100
36 42 45 49 54 60 68 75 79 84 90 96 100 106 110 114 114 115 118 125 130 132 133 132 129 128 128 128 126 125 125 128 131 129 127 124 121 120 118 118 114 111 108 107

GFSCGP_250_spd_114.txt.gz
Wind_Speed
80 77 74 69 64 60 58 58 54 55 51 44 40 39 34 25 24 20 15 18 13 10 10 6 9 15 16 14 19 20 22 22 25 26 29 29 29 31 30 36 34 31 30 26
84 83 78 73 68 63 59 58 59 55 56 53 46 42 39 33 30 23 17 16 19 15 8 3 7 14 13 13 15 18 20 22 24 24 25 27 27 28 30 31 32 31 28 26
87 88 83 76 72 67 64 60 60 59 57 59 56 49 43 35 35 25 21 22 21 15 10 4 4 14 11 9 13 15 17 20 22 24 24 24 24 27 30 27 28 30 28 27
87 89 86 82 76 73 70 67 59 61 59 61 61 56 51 44 38 29 26 26 24 17 12 6 7 9 8 5 11 14 16 17 19 22 20 21 25 27 28 25 25 26 27 26
85 88 86 84 81 78 75 70 65 61 64 60 63 62 58 48 41 34 30 31 27 21 17 10 10 10 8 4 7 12 11 15 17 19 19 20 23 23 24 23 23 22 23 24
80 83 84 88 86 85 80 73 69 65 64 65 64 64 62 53 41 40 36 36 30 25 26 19 17 16 12 9 11 10 8 12 14 15 17 18 18 18 21 19 21 20 20 22
80 78 85 88 87 86 83 79 75 70 65 71 70 64 62 60 56 47 43 38 36 30 30 30 19 19 17 15 15 9 8 11 14 13 15 14 16 14 20 19 18 22 19 18
76 77 83 87 88 88 88 84 80 76 73 74 76 68 64 59 56 52 47 39 39 39 29 23 19 23 21 19 18 13 6 10 12 13 11 14 13 11 18 16 17 17 19 18
70 77 79 83 88 89 89 85 84 82 79 75 69 74 69 61 60 57 46 43 43 40 33 29 23 22 24 22 19 19 18 11 12 13 4 6 10 10 12 14 14 15 14 16
70 73 77 80 86 89 92 90 86 84 80 78 73 73 75 70 64 61 57 55 48 50 42 41 33 29 29 26 25 21 24 22 18 13 7 4 9 10 8 10 12 14 13 11
71 70 75 78 82 85 92 92 89 88 84 82 78 74 74 76 71 63 56 58 57 53 51 51 43 34 32 32 25 24 30 28 20 18 12 10 10 8 10 9 7 14 14 9
72 74 75 79 81 84 86 91 91 89 86 86 82 79 75 75 76 70 65 61 62 59 53 52 44 44 38 32 30 27 33 30 29 25 17 15 11 7 7 8 7 4 9 7
70 76 79 81 83 85 83 85 90 91 89 88 84 83 81 76 77 78 72 66 66 64 57 53 46 41 38 34 33 38 38 38 33 28 25 21 17 13 10 9 6 5 5 5
64 70 81 83 83 84 85 85 85 89 90 90 87 87 84 82 77 79 80 74 70 69 66 57 55 43 34 38 40 42 46 46 42 29 32 26 25 19 19 15 11 11 7 8
64 71 77 85 85 85 84 84 85 87 91 94 90 90 89 86 82 78 82 81 75 69 67 63 62 49 41 43 46 53 45 47 38 35 35 35 32 22 19 20 18 18 15 9
71 75 82 82 84 85 85 82 81 85 88 94 93 92 93 87 86 84 81 82 79 74 70 70 65 60 50 56 54 53 54 54 52 40 39 41 45 34 26 23 20 25 21 16
77 80 84 84 83 85 86 83 84 84 86 90 94 96 96 90 91 90 85 80 83 78 74 73 67 66 57 68 62 60 58 58 52 50 45 46 48 43 37 34 27 29 25 21
72 82 87 86 85 85 85 85 85 86 87 89 91 96 98 96 91 92 90 86 85 86 81 79 74 69 68 75 74 69 66 63 61 56 50 53 55 50 44 36 31 31 30 28
65 75 85 91 88 82 83 85 90 88 88 91 90 93 97 97 94 93 95 93 90 91 89 90 80 76 80 81 83 80 84 79 72 69 64 61 63 60 54 49 39 34 33 32
57 70 77 86 91 90 89 86 86 89 87 91 92 92 95 100 99 99 100 100 97 93 95 96 87 84 84 83 84 86 89 80 75 75 71 70 73 70 67 64 58 53 56 43
49 60 72 79 86 92 92 88 88 89 91 92 90 92 92 99 106 102 101 101 103 101 98 101 99 94 93 87 89 93 88 89 83 79 77 77 78 79 76 73 73 74 71 63
48 54 60 69 80 87 95 94 91 88 93 93 91 94 93 95 102 109 109 106 105 107 105 102 104 103 104 96 96 99 96 94 92 89 89 86 84 85 81 78 76 75 74 71
51 50 57 64 69 78 86 95 96 91 91 89 91 92 93 93 95 108 112 112 109 110 111 108 104 108 112 108 104 97 105 107 102 94 97 96 92 88 88 85 84 83 80 76
51 52 52 56 63 68 77 86 93 100 100 93 89 92 91 96 94 99 108 116 115 114 115 115 114 113 119 114 110 109 106 102 102 103 102 100 103 99 95 92 91 87 87 84
45 48 52 53 57 64 70 76 82 91 95 101 98 95 97 97 99 98 103 108 119 120 118 119 120 121 121 124 127 123 118 118 111 106 105 109 109 108 109 104 101 103 104 102
33 40 45 49 53 56 62 66 72 76 82 89 96 102 100 102 102 102 106 109 113 122 126 124 123 125 126 125 125 125 128 129 127 121 119 114 112 112 114 113 112 109 109 109

GFSCGP_250_spd_117.txt.gz
Wind_Speed
79 78 78 72 65 60 56 57 56 55 52 45 43 41 37 32 28 22 18 10 9 1 2 3 9 14 17 18 22 25 27 28 28 28 30 33 36 36 35 33 31 28 30 28
82 83 79 75 70 64 60 57 58 56 55 50 45 40 39 36 32 27 24 15 12 6 5 3 3 9 13 14 19 22 24 26 25 26 28 30 33 33 32 32 32 30 28 27
85 86 82 79 75 69 64 59 57 59 56 54 51 46 42 39 36 32 29 21 13 10 9 8 2 4 9 9 14 18 20 23 25 22 26 28 30 29 30 30 33 31 28 25
86 86 84 81 79 75 71 66 59 58 60 58 59 52 47 42 39 35 31 23 19 13 12 13 7 5 5 3 9 12 16 20 22 23 20 25 23 24 27 27 29 29 29 27
83 87 86 84 83 81 78 71 66 59 59 61 58 57 50 49 43 39 34 29 25 18 14 14 13 11 5 6 6 9 11 15 18 20 19 22 21 24 26 26 25 29 28 27
82 84 85 86 86 84 80 75 71 65 60 61 63 60 61 53 46 44 35 37 30 22 19 20 17 14 11 8 9 8 7 10 15 17 16 16 19 23 25 26 23 22 26 26
80 81 83 86 87 86 83 80 74 70 64 62 65 63 61 62 55 51 42 43 34 26 26 27 22 17 13 13 11 6 7 6 10 11 10 12 17 20 21 23 24 20 22 24
78 81 84 86 88 90 89 85 79 75 71 71 68 67 64 61 63 58 48 47 37 34 33 32 29 23 18 16 15 14 6 4 6 5 7 11 11 18 19 19 20 22 23 22
76 76 80 82 86 90 90 87 84 81 76 74 68 66 68 65 62 64 57 49 41 40 37 39 29 28 25 20 20 19 14 12 7 8 2 4 8 15 18 18 19 19 19 20
77 77 80 81 82 88 90 91 88 84 81 77 72 69 72 71 67 62 61 60 54 46 45 43 34 32 27 23 23 26 19 15 15 11 8 4 5 9 13 16 14 18 20 20
75 78 78 79 83 83 88 90 90 88 86 83 78 75 74 74 72 68 60 58 58 53 51 44 43 38 32 27 28 28 23 19 16 15 12 9 8 5 7 13 13 13 13 14
76 77 79 80 80 83 84 88 91 90 87 86 84 80 79 75 74 72 68 61 57 59 56 49 47 47 40 35 32 32 28 25 19 18 17 16 17 15 9 9 9 9 11 11
75 78 80 83 82 84 83 83 86 90 90 87 87 84 84 80 77 74 74 70 65 64 59 54 54 52 47 44 39 36 36 26 23 22 25 23 20 23 13 12 9 9 8 9
64 75 79 82 84 84 84 82 82 87 89 88 88 87 88 85 81 77 76 78 73 72 70 65 60 61 54 51 46 45 40 40 32 26 29 28 26 28 20 19 17 14 9 12
57 64 74 80 81 82 84 83 83 84 86 89 90 89 89 90 86 82 80 78 79 78 74 71 69 65 59 53 52 51 47 45 41 36 36 39 34 32 30 26 23 19 17 14
56 61 67 72 79 83 83 83 84 84 83 85 91 93 93 94 90 87 86 83 80 82 79 73 69 69 61 57 56 52 51 44 42 44 40 45 47 39 33 33 28 28 23 22
55 58 61 66 72 77 83 84 84 83 84 85 87 91 94 96 95 92 90 87 85 83 81 80 74 70 66 61 56 55 48 42 46 52 49 49 50 47 46 40 35 31 31 27
62 62 64 70 71 73 76 83 86 84 84 88 90 87 88 96 95 94 93 92 90 88 84 82 81 76 73 70 60 56 51 53 59 54 57 60 57 59 54 47 41 40 37 38
67 69 71 71 74 78 79 80 84 90 87 89 89 89 85 89 95 98 98 97 97 95 90 83 84 82 77 76 71 67 69 65 67 59 60 60 64 64 61 63 63 55 46 46
75 77 75 74 74 75 81 82 85 86 91 93 90 91 89 86 91 100 104 103 100 98 93 89 84 86 85 82 79 74 69 67 70 71 72 74 70 70 66 63 56 54 50 51
69 68 69 66 66 70 79 85 86 88 89 92 93 94 94 92 91 93 99 102 99 99 100 96 92 87 90 89 85 84 80 75 72 75 75 77 78 76 74 66 64 60 59 59
61 59 59 56 57 65 76 83 88 88 91 90 93 95 94 94 92 94 94 99 104 103 103 102 98 94 89 94 92 91 89 84 80 76 80 81 76 79 76 70 70 68 67 69
60 58 55 53 53 58 69 75 83 92 92 89 91 92 92 94 95 92 96 96 101 106 106 104 103 101 97 94 99 96 98 95 93 86 83 86 88 88 87 82 82 78 77 75
55 56 55 52 53 55 61 71 80 87 92 91 89 90 90 93 94 95 96 98 99 104 107 109 107 106 104 102 99 104 101 101 98 100 96 92 94 95 94 91 89 92 90 86
38 45 52 51 52 53 56 63 71 80 87 92 93 90 90 91 90 92 94 102 101 102 104 109 111 111 109 108 108 106 110 105 105 105 100 100 100 100 100 101 99 96 94 92
22 30 37 45 48 50 52 55 62 68 77 86 92 95 93 93 92 92 92 100 105 105 104 106 111 114 115 114 114 113 111 116 111 109 111 109 105 107 105 103 104 101 100 98

GFSCGP_250_spd_120.txt.gz
Wind_Speed
80 78 76 74 67 62 62 59 56 57 50 51 38 35 33 30 23 20 15 13 11 3 2 4 8 12 17 23 27 28 27 26 27 29 31 35 39 37 34 32 29 28 28 29
82 83 79 74 71 66 63 62 58 58 57 53 37 39 35 36 31 28 20 19 15 5 6 3 3 7 11 17 23 25 28 27 24 27 27 29 34 38 36 33 32 28 27 26
84 85 82 79 76 71 66 62 60 60 60 57 48 42 40 37 36 36 28 24 22 11 8 8 3 2 8 11 16 20 23 27 24 23 25 24 26 32 33 34 31 30 28 25
82 85 85 83 80 77 72 66 61 59 61 62 55 47 46 44 42 37 31 30 27 17 12 12 8 5 1 9 10 15 16 21 24 22 25 22 19 25 30 32 30 30 28 26
75 81 84 85 84 81 75 71 65 60 60 63 60 56 53 47 45 41 37 35 31 23 16 15 12 9 7 3 6 11 11 15 18 20 19 20 21 21 26 28 31 29 28 27
70 79 84 87 86 84 80 76 71 66 61 63 66 61 59 56 50 46 42 37 34 28 20 20 20 15 12 9 3 4 7 9 12 18 16 17 19 19 19 22 25 27 26 27
73 73 80 84 88 87 85 81 78 73 67 65 64 66 61 59 55 54 47 40 38 32 27 25 21 20 15 13 8 5 2 5 7 14 18 13 12 16 19 19 19 21 23 24
77 76 78 82 86 88 88 87 83 79 75 72 67 65 66 62 61 58 51 45 41 41 33 29 26 24 20 17 12 10 5 2 4 8 11 13 13 16 17 19 19 18 18 20
77 80 79 83 84 89 89 87 87 81 78 74 71 64 67 66 63 64 58 52 49 40 38 37 32 28 27 24 20 16 12 11 4 5 5 12 15 14 14 15 18 17 17 18
77 81 83 85 86 87 89 90 88 85 82 80 75 71 69 68 68 66 66 59 54 50 43 41 36 33 32 29 27 23 18 19 10 7 4 8 12 17 17 14 15 14 14 14
75 81 82 83 86 88 87 89 88 87 86 84 79 79 76 72 69 69 66 66 63 59 51 49 41 38 37 34 32 26 24 25 17 10 8 7 8 13 10 14 16 15 12 12
70 79 80 85 81 85 87 87 89 88 87 88 86 82 81 77 73 71 69 67 67 66 58 53 45 45 38 40 36 32 29 29 25 17 15 12 9 12 14 13 14 14 12 12
65 75 78 79 82 85 87 86 88 90 90 89 88 87 87 82 79 76 73 70 69 65 65 62 56 55 47 45 42 35 32 33 31 26 23 20 14 16 19 19 17 9 12 14
58 67 76 81 85 83 83 86 87 89 89 90 91 92 89 87 84 81 76 73 71 69 64 65 64 60 56 54 48 46 40 36 34 31 32 27 24 18 21 23 21 20 15 16
49 60 69 74 76 78 79 82 85 86 88 89 92 94 91 91 88 85 81 77 75 74 69 68 62 62 61 59 56 54 47 43 39 38 36 35 28 26 24 26 28 25 21 19
49 50 58 69 76 77 78 81 81 84 83 85 89 93 94 94 93 90 88 84 80 77 75 76 71 67 66 62 60 58 54 52 48 44 44 41 40 36 32 32 31 33 32 26
55 54 54 59 63 72 78 81 82 81 82 84 87 91 90 93 95 94 92 90 87 82 80 76 78 74 72 71 64 61 60 57 55 53 52 51 52 47 41 38 39 35 39 35
56 60 59 59 60 63 75 79 81 83 85 86 87 87 87 91 95 96 94 92 90 88 87 84 81 81 78 78 71 70 64 64 61 61 58 55 54 55 50 42 42 44 41 40
50 54 61 63 64 66 65 69 76 86 88 89 88 88 89 87 90 96 96 95 95 94 93 91 86 84 83 82 79 75 72 70 67 65 60 57 53 51 50 50 50 48 48 48
57 58 60 61 65 69 67 64 70 77 85 89 90 90 89 90 90 91 98 99 97 96 95 95 91 90 85 84 84 80 75 75 75 66 65 65 60 59 58 61 65 64 60 58
69 68 67 67 69 70 71 71 73 75 79 81 88 92 92 94 90 88 91 94 97 98 96 97 96 94 91 87 82 86 83 78 75 73 67 69 67 67 63 62 69 71 67 63
73 74 76 77 76 76 77 75 74 74 75 78 79 88 92 93 88 92 93 93 93 96 99 100 99 97 95 92 88 85 89 87 83 80 75 74 74 71 68 68 72 72 70 71
58 65 74 79 76 75 82 81 81 79 79 79 81 82 85 93 93 93 93 92 92 92 97 102 103 101 98 96 95 94 90 92 93 89 83 82 80 80 79 73 74 79 78 78
42 50 55 62 66 71 76 77 76 76 77 81 83 87 88 85 89 95 95 96 96 96 99 99 101 103 102 101 100 100 99 96 95 98 94 90 89 83 84 82 80 82 84 84
24 31 37 47 55 58 60 64 66 66 67 72 80 88 91 90 88 91 95 95 95 97 100 99 98 99 103 105 105 106 104 102 99 98 102 99 98 95 89 87 83 87 84 88
11 16 22 27 36 44 50 55 59 58 58 60 70 82 91 96 90 88 92 94 91 92 98 101 100 98 99 104 108 110 109 107 106 104 103 106 108 103 101 98 96 92 89 90

GFSCGP_250_spd_123.txt.gz
Wind_Speed
80 79 74 71 69 62 62 58 43 47 47 50 39 28 30 32 25 22 15 11 5 6 7 7 11 13 19 24 28 29 25 23 27 33 35 38 35 33 32 28 26 26 25 23
81 82 80 75 69 65 64 66 58 41 46 46 33 29 36 34 25 20 20 16 11 5 7 8 4 8 12 18 21 27 23 22 23 26 31 35 35 33 32 29 27 24 23 24
81 86 83 77 73 73 69 68 59 61 58 52 42 27 29 36 32 30 31 20 18 10 8 9 7 4 6 11 16 21 21 22 23 22 22 29 31 32 32 30 26 24 22 22
78 84 82 83 81 76 73 66 53 40 64 62 54 36 33 34 34 38 36 26 19 8 14 12 11 4 2 7 12 15 18 17 18 22 20 23 25 27 30 31 27 24 22 21
71 79 83 84 83 81 75 69 70 70 63 64 63 53 43 42 44 41 33 33 30 27 20 16 13 13 5 1 7 9 13 12 14 15 19 19 22 24 26 28 27 24 23 19
74 71 82 85 85 83 76 73 73 69 66 67 67 64 58 52 51 49 44 39 35 30 24 22 15 16 11 8 1 5 8 11 11 13 13 13 15 18 18 22 22 24 23 21
72 71 72 81 83 85 80 83 78 74 67 68 71 69 69 61 59 55 48 44 40 33 26 26 19 13 18 14 6 2 4 6 9 9 12 10 12 14 14 14 17 20 21 21
75 74 70 72 82 86 87 87 83 78 74 70 69 71 72 69 67 60 54 50 43 37 33 30 24 20 20 19 12 9 3 5 3 6 7 10 11 16 15 12 13 16 17 17
74 78 76 73 76 81 87 86 86 85 80 77 69 71 71 70 67 62 60 56 50 43 38 37 32 30 27 24 21 12 11 9 5 4 4 10 10 12 11 10 13 15 15 15
70 72 74 74 73 77 83 88 87 87 83 81 75 77 68 70 72 66 62 61 54 49 45 42 41 34 30 29 27 22 15 16 12 9 6 12 12 12 11 10 14 14 12 14
72 73 71 73 75 75 80 84 86 88 89 86 84 82 79 75 71 72 70 65 59 55 52 49 46 41 35 34 30 30 24 21 20 18 11 14 12 13 11 11 10 12 13 13
69 72 70 71 75 77 78 83 88 89 88 90 90 86 82 61 83 73 70 69 64 61 58 55 48 46 40 39 37 34 30 25 27 25 19 14 16 16 12 11 11 12 12 9
60 67 73 72 74 77 79 82 86 89 90 92 94 95 93 94 81 76 71 67 66 65 64 60 56 52 47 45 42 39 36 32 31 30 25 21 18 20 18 15 16 14 12 13
52 58 63 75 74 81 84 85 85 88 91 90 91 99 93 89 85 83 77 71 68 66 67 66 64 60 54 52 47 43 40 38 36 35 33 27 25 23 25 21 22 20 17 15
45 50 56 63 70 76 83 85 85 87 87 90 92 100 97 89 88 84 83 78 76 69 67 68 67 67 63 59 54 52 46 44 40 38 38 36 32 30 29 28 25 24 24 22
39 44 53 58 63 71 79 83 84 85 88 88 93 96 87 69 90 95 92 86 83 78 72 70 69 69 68 64 63 58 57 50 48 43 40 41 38 35 34 30 29 30 27 25
46 46 45 56 63 66 73 84 87 89 89 88 88 97 89 93 63 71 98 94 87 83 79 77 75 74 73 68 69 66 63 60 56 52 51 45 43 42 41 41 41 41 34 32
48 52 55 55 54 61 72 78 85 87 87 80 84 87 89 94 105 89 89 97 93 88 85 83 81 77 75 74 70 69 67 65 63 64 62 55 52 47 47 46 44 45 42 37
48 50 55 60 58 64 74 77 80 87 89 87 91 86 90 89 95 100 100 98 95 93 92 89 87 83 80 78 77 74 71 67 68 68 69 64 62 58 55 54 52 53 52 49
53 53 51 58 68 71 63 64 72 80 87 92 89 89 85 88 90 92 95 94 95 95 95 94 93 89 87 84 80 80 80 74 75 69 71 69 69 63 62 60 58 57 58 57
61 61 60 59 58 72 74 63 69 78 88 86 87 90 86 91 87 87 91 88 93 96 96 96 96 95 93 91 87 85 82 82 82 81 81 78 75 72 70 69 66 63 62 63
66 68 68 68 68 70 63 73 72 69 75 78 82 88 88 90 89 89 87 88 92 93 93 96 97 99 98 98 94 92 89 86 87 89 86 85 82 79 77 76 73 69 65 65
58 68 72 72 72 66 64 60 69 73 75 74 73 75 83 85 83 85 90 88 90 91 93 95 97 99 99 100 99 98 97 95 91 93 95 93 91 85 84 82 80 75 73 73
31 43 61 71 77 70 71 72 71 70 70 71 74 76 75 68 74 82 88 89 92 92 93 92 95 97 98 98 100 100 101 101 99 98 95 96 97 93 90 87 85 82 79 81
15 28 35 45 61 73 85 81 80 79 76 74 72 74 76 75 75 70 77 86 86 93 96 96 97 97 97 97 100 102 102 103 102 104 102 99 95 93 97 95 90 88 84 83
9 10 14 25 38 59 59 64 79 83 81 78 79 79 80 79 80 77 78 77 84 88 96 99 99 98 97 97 98 100 102 104 106 106 107 103 101 99 95 97 99 96 93 92

GFSCGP_250_spd_126.txt.gz
Wind_Speed
80 77 73 71 66 62 55 52 49 39 38 37 31 35 34 25 16 23 19 12 4 9 8 10 13 16 21 26 30 25 28 27 31 36 37 34 33 29 28 26 22 25 23 23
79 78 78 75 71 65 58 55 51 29 36 43 47 32 36 34 29 23 19 14 11 4 9 9 10 11 15 20 25 24 26 26 26 30 33 34 32 30 28 26 23 21 23 23
78 77 81 78 73 68 59 57 57 56 36 28 45 41 31 31 34 34 24 15 20 7 8 12 9 7 10 13 19 23 19 25 25 25 30 30 33 30 26 25 25 23 22 21
79 81 82 80 76 71 67 64 58 52 48 28 42 49 32 29 37 30 20 32 27 10 14 12 11 9 5 10 15 18 20 17 20 21 25 28 29 29 28 23 22 20 22 19
77 80 80 81 80 80 75 67 63 64 39 56 29 44 43 32 29 34 31 33 27 17 13 15 11 12 7 5 11 15 16 12 14 15 17 19 22 23 25 23 22 19 19 20
74 80 77 76 82 81 77 71 68 75 75 56 50 43 44 36 40 32 38 38 30 26 21 23 15 12 9 9 9 10 11 11 11 13 12 13 14 15 20 21 20 19 17 17
72 76 72 74 82 83 79 75 74 74 81 74 75 61 50 41 45 38 38 35 31 26 27 23 17 13 16 10 9 9 4 8 7 7 8 10 8 9 13 18 18 19 17 17
71 70 69 70 74 81 82 82 80 79 80 72 69 73 64 57 53 45 43 43 39 33 32 24 19 16 12 10 10 8 2 3 4 4 4 4 6 9 10 16 16 17 17 17
72 75 78 73 73 80 85 87 87 84 82 77 57 55 64 66 62 53 53 55 49 43 37 31 24 23 24 18 13 14 9 5 3 2 3 4 1 3 6 11 14 16 16 16
67 71 76 75 72 75 82 88 91 88 86 83 79 69 60 70 60 66 63 55 58 47 42 35 31 27 29 27 25 22 19 15 11 9 7 6 8 6 5 7 11 10 12 16
63 67 74 74 69 68 78 85 88 89 91 87 85 84 73 64 60 70 72 71 60 58 54 46 39 32 29 21 19 26 26 23 18 16 14 11 12 12 7 7 4 6 9 11
64 66 68 73 74 74 74 81 88 90 88 90 88 80 76 70 62 33 44 75 70 64 60 53 45 39 32 26 29 42 46 31 24 21 21 18 17 14 12 11 8 9 10 7
59 62 66 68 75 77 77 75 81 87 91 94 91 93 82 76 82 78 58 56 72 68 60 57 52 46 42 43 37 40 35 36 31 27 25 24 21 21 19 16 13 13 13 8
57 65 63 67 75 77 77 78 76 81 89 89 91 97 91 87 80 75 74 53 57 73 66 64 55 51 49 48 54 45 45 40 31 31 31 30 26 25 23 23 19 17 19 14
55 60 62 66 70 71 74 78 79 79 81 89 97 97 94 90 82 74 87 68 48 60 65 69 63 59 57 56 55 53 57 48 41 36 40 33 34 32 30 30 28 23 24 21
50 53 54 57 63 71 76 74 77 79 81 81 91 97 94 91 85 84 62 88 82 78 70 70 67 66 65 66 67 68 70 64 54 46 44 38 38 38 37 34 32 30 28 24
48 51 53 57 62 67 70 75 79 78 79 85 90 97 91 90 87 88 89 59 76 88 85 74 71 69 71 72 72 72 70 66 61 58 51 48 43 42 44 42 38 36 33 27
48 52 52 54 55 64 74 78 81 83 87 82 89 83 75 81 87 81 96 82 58 58 86 87 80 76 73 72 76 79 76 73 69 63 62 59 54 48 46 44 47 45 43 41
47 52 56 54 53 57 63 69 75 80 85 83 87 84 78 81 87 90 98 103 100 72 67 80 84 84 85 81 82 79 81 77 74 72 69 67 62 60 57 54 50 46 47 49
51 54 55 62 58 62 56 58 66 74 86 82 85 84 85 78 66 68 78 85 107 108 91 77 94 94 88 90 87 83 81 79 78 73 75 75 73 69 67 64 63 58 54 53
58 59 60 64 66 68 67 63 62 71 77 78 80 85 86 88 75 69 69 83 93 96 83 103 86 102 102 97 92 89 88 86 84 84 78 75 74 74 73 73 72 72 70 63
64 70 69 71 70 67 60 70 71 67 65 66 74 83 85 91 98 85 89 84 81 100 102 91 87 86 102 105 100 96 94 92 89 86 84 84 82 78 72 75 76 76 77 75
64 69 70 67 72 71 68 67 65 71 72 62 68 73 80 86 94 100 98 105 98 91 92 110 112 111 100 94 96 100 99 96 94 93 90 86 89 88 86 78 79 82 81 79
40 52 61 63 70 70 68 64 71 72 65 72 79 66 72 80 89 95 95 99 98 102 102 99 100 108 109 111 110 104 102 103 100 100 98 94 92 90 92 91 92 87 86 83
13 21 32 45 59 63 61 76 82 80 76 71 72 79 77 71 80 83 89 94 96 96 96 98 100 100 101 103 104 104 106 106 106 106 104 102 100 99 97 95 96 97 99 96
33 16 12 24 39 50 67 77 74 69 70 72 74 68 72 80 78 77 79 82 85 87 92 97 97 97 101 102 101 101 103 103 107 108 109 107 106 107 106 104 99 101 105 103